[[[{"header":{"parameterUnit":"kt","parameterCategory":2,"dx":1,"dy":1,"la1":29.587661999999998,"la2":31.0,"lo1":-88.76705300000003,"lo2":-86.6583820000003,"nx":115,"ny":88,"refTime":"2022-10-06T12:00:00:Z","depth":0,"parameterNumber":1,"parameterNumberName":"U-component_of_WINDS"},"data":[14.5566,14.5566,14.5566,14.5566,14.5566,14.5566,14.5566,14.5566,14.5566,14.5566,14.5566,14.5566,14.5566,14.5566,14.5566,14.5566,14.5566,14.5566,14.5566,14.5566,14.5566,14.5566,14.5566,14.5566,14.5566,14.5566,14.5566,14.5566,14.5566,14.5566,14.5566,14.5566,14.5566,14.5866,14.6065,14.6929,14.7849,14.9531,15.0452,15.0766,15.2535,15.4114,15.4415,15.4833,15.4833,15.4803,15.4803,15.4895,15.4803,15.4594,15.4537,15.4236,15.3724,15.3085,15.2443,15.235,15.3451,15.3965,15.4116,15.4116,15.4086,15.3964,15.2596,15.2442,15.281,15.3116,15.4656,15.4716,15.543,15.6255,15.6639,15.7566,15.7945,15.8517,15.8807,15.9625,16.0136,16.0136,16.0136,16.0136,16.0136,16.0136,16.0108,15.9681,15.8829,15.7249,15.6112,15.4776,15.2473,15.2688,15.2871,15.348,15.4206,15.5965,15.7485,15.7831,15.7595,15.7249,15.6784,15.6489,15.5932,15.4895,15.4925,15.6284,15.5902,15.5252,15.54,15.6459,15.5252,15.4146,15.1856,14.988,14.8759,14.7758,14.6205,14.5566,14.5566,14.5566,14.5566,14.5566,14.5566,14.5566,14.5566,14.5566,14.5566,14.5566,14.5566,14.5566,14.5566,14.5566,14.5566,14.5566,14.5566,14.5566,14.5566,14.5566,14.5566,14.5566,14.5566,14.5566,14.5566,14.5566,14.5566,14.5566,14.5633,14.5633,14.5566,14.6031,14.6765,14.8308,14.9244,15.0291,15.2196,15.2963,15.3176,15.516,15.7509,15.8857,15.9765,16.0163,16.0163,16.0108,16.008,16.0052,15.926,15.7802,15.7133,15.6372,15.543,15.4716,15.4865,15.5932,15.661,15.6755,15.6784,15.6755,15.6259,15.4297,15.3693,15.4086,15.543,15.7917,15.8864,15.9569,16.0136,16.0108,16.0386,16.0386,16.058,16.058,16.0892,16.092,16.092,16.092,16.092,16.092,16.092,16.092,16.0947,15.9709,15.7945,15.6551,15.5341,15.4806,15.5489,15.5726,15.6167,15.6959,15.8403,16.0024,16.0191,15.9821,15.9428,15.9006,15.9681,15.9681,15.7854,15.7364,15.8602,15.9288,15.8999,15.9055,15.8488,15.7917,15.7075,15.4746,15.2504,15.1141,14.9244,14.7165,14.5566,14.5566,14.5566,14.5566,14.5566,14.5566,14.5566,14.5566,14.5566,14.5566,14.5566,14.5566,14.5566,14.5566,14.5566,14.5566,14.5566,14.5566,14.5566,14.5566,14.5566,14.5566,14.5566,14.5566,14.5566,14.5566,14.5566,14.5566,14.5566,14.5733,14.6732,14.7752,14.7985,14.9052,15.1328,15.1856,15.2902,15.54,15.5489,15.6459,15.8403,15.9485,16.0892,16.1112,16.1057,16.0975,16.1112,16.1112,16.1112,16.0524,16.0024,15.9316,15.8772,15.7882,15.7566,15.7825,15.8317,15.94,15.94,15.94,15.94,15.9344,15.8089,15.7307,15.7451,15.7595,16.008,16.0247,16.1002,16.1112,16.1112,16.1112,16.1112,16.1112,16.1112,16.1112,16.1112,16.1112,16.1112,16.1112,16.1112,16.1112,16.1112,16.1112,16.0782,15.9062,15.9344,15.8517,15.8403,15.8716,15.846,15.8637,15.9344,16.0671,16.1112,16.1112,16.1112,16.1112,16.0754,16.0837,16.0524,15.9737,15.94,15.9821,16.0441,16.1112,16.1112,16.0386,15.9709,15.8949,15.7017,15.4925,15.3177,15.1297,15.0577,14.5566,14.5566,14.5566,14.5566,14.5566,14.5566,14.5566,14.5566,14.5566,14.5566,14.5566,14.5566,14.5566,14.5566,14.5566,14.5566,14.5566,14.5566,14.5566,14.5566,14.5566,14.5566,14.5566,14.5566,14.5566,14.5566,14.5566,14.5566,14.5866,14.6601,14.7654,14.924,15.048,15.1732,15.4146,15.4295,15.5548,15.7974,15.8232,15.9062,16.0163,16.0865,16.1112,16.1112,16.1112,16.1112,16.1112,16.1112,16.1112,16.1112,16.1112,16.1112,16.1112,16.103,16.103,16.1085,16.0662,16.0754,16.0754,16.0699,16.0607,16.0809,16.0865,16.103,16.1112,16.1112,16.1085,16.1057,16.1112,16.1112,16.1112,16.1112,16.1112,16.1112,16.1112,16.1112,16.1112,16.1112,16.1112,16.1112,16.1112,16.1112,16.1112,16.1112,16.1112,16.1112,16.1112,16.1002,16.0469,16.0275,15.9773,15.994,16.0947,16.1085,16.1112,16.1112,16.1112,16.1112,16.1112,16.1112,16.1085,16.058,16.0275,16.0892,16.1112,16.1112,16.1112,16.1112,16.0975,16.0302,15.863,15.6551,15.4746,15.4116,15.4146,14.5566,14.5566,14.5566,14.5566,14.5566,14.5566,14.5566,14.5566,14.5566,14.5566,14.5566,14.5566,14.5566,14.5566,14.5566,14.5566,14.5566,14.5566,14.5566,14.5566,14.5566,14.5566,14.5566,14.5566,14.5566,14.5566,14.5666,14.5899,14.6271,14.7985,14.9435,14.9531,15.1856,15.4417,15.6551,15.6901,15.7945,15.9801,16.0219,16.0358,16.0975,16.1112,16.1112,16.1112,16.1112,16.1112,16.1112,16.1112,16.1112,16.1112,16.1112,16.1112,16.1112,16.1112,16.1112,16.1112,16.1112,16.1112,16.1112,16.1112,16.1112,16.1112,16.1112,16.1112,16.1112,16.1112,16.1112,16.1112,16.1112,16.1112,16.1112,16.1112,16.1112,16.1112,16.1112,16.1112,16.1112,16.1112,16.1112,16.1112,16.1112,16.1112,16.1112,16.1112,16.1112,16.1112,16.1112,16.1112,16.092,16.092,16.0754,16.0809,16.1112,16.1112,16.1112,16.1112,16.1112,16.1112,16.1112,16.1112,16.1112,16.1112,16.1112,16.1112,16.1112,16.1112,16.1112,16.1112,16.103,16.0782,15.9857,15.8003,15.7335,15.7075,15.7335,14.5566,14.5566,14.5566,14.5566,14.5566,14.5566,14.5566,14.5566,14.5566,14.5566,14.5566,14.5566,14.5566,14.5566,14.5566,14.5566,14.5566,14.5566,14.5566,14.5566,14.5566,14.5566,14.5566,14.5566,14.5566,14.5566,14.5733,14.6502,14.8437,15.048,15.2872,15.3754,15.4895,15.722,15.8687,15.94,16.0191,16.0727,16.1112,16.1112,16.1112,16.1112,16.1112,16.1112,16.1112,16.1112,16.1112,16.1112,16.1112,16.1112,16.1112,16.1112,16.1112,16.1112,16.1112,16.1112,16.1112,16.1112,16.1112,16.1112,16.1112,16.1112,16.1112,16.1112,16.1112,16.1112,16.1112,16.1112,16.1112,16.1112,16.1112,16.1112,16.1112,16.1112,16.1112,16.1112,16.1112,16.1112,16.1112,16.1112,16.1112,16.1112,16.1112,16.1112,16.1112,16.1112,16.1112,16.114,16.1194,16.1304,16.1413,16.1413,16.1331,16.1194,16.1112,16.1112,16.1112,16.1112,16.1112,16.1112,16.1112,16.1167,16.1277,16.1249,16.1194,16.1112,16.1112,16.1112,16.1112,16.103,16.0386,15.9765,15.9681,15.9477,16.0349,14.5566,14.5566,14.5566,14.5566,14.5566,14.5566,14.5566,14.5566,14.5566,14.5566,14.5566,14.5566,14.5566,14.5566,14.5566,14.5566,14.5566,14.5566,14.5566,14.5566,14.5566,14.5566,14.5566,14.5566,14.5566,14.5799,14.6601,14.7849,14.9721,15.2011,15.4537,15.7254,15.7802,15.9119,16.033,16.1057,16.103,16.1112,16.1112,16.1112,16.1112,16.1112,16.1112,16.1112,16.1112,16.1112,16.1112,16.1112,16.1112,16.1112,16.1112,16.1112,16.1112,16.1112,16.1112,16.1112,16.1112,16.1112,16.1112,16.1112,16.1112,16.1112,16.1112,16.1112,16.1112,16.1112,16.1112,16.1112,16.1112,16.1112,16.1112,16.1112,16.1112,16.1112,16.1112,16.1112,16.1112,16.1112,16.1112,16.1112,16.1112,16.1112,16.1112,16.1112,16.1112,16.1112,16.1167,16.1249,16.1386,16.174,16.1876,16.1903,16.1795,16.1577,16.1441,16.1304,16.1222,16.1167,16.114,16.114,16.1331,16.1495,16.1495,16.155,16.1577,16.1441,16.1222,16.1112,16.1112,16.1085,16.1222,16.1604,16.1903,16.1676,16.2109,14.5566,14.5566,14.5566,14.5566,14.5566,14.5566,14.5566,14.5566,14.5566,14.5566,14.5566,14.5566,14.5566,14.5566,14.5566,14.5566,14.5566,14.5566,14.5566,14.5566,14.5566,14.5566,14.5566,14.5633,14.5998,14.6601,14.7784,14.9176,15.0038,15.2902,15.5341,15.7514,15.9577,16.0413,16.0865,16.1112,16.1112,16.1112,16.1112,16.1112,16.1112,16.1112,16.1112,16.1112,16.1112,16.1112,16.1112,16.1112,16.1112,16.1112,16.1112,16.1112,16.1112,16.1112,16.1112,16.1112,16.1112,16.1112,16.1112,16.1112,16.1112,16.1112,16.1112,16.1112,16.1112,16.1112,16.1112,16.1112,16.1112,16.1112,16.1112,16.1112,16.1112,16.1112,16.1112,16.1112,16.1112,16.1112,16.1112,16.1112,16.1112,16.1112,16.1112,16.1112,16.1112,16.1222,16.1441,16.1577,16.1957,16.2255,16.2282,16.2282,16.2093,16.1876,16.1768,16.1632,16.1604,16.174,16.1604,16.1659,16.1768,16.1957,16.2066,16.212,16.2039,16.1795,16.1441,16.1277,16.1194,16.1304,16.1468,16.1903,16.2658,16.2818,16.2913,14.5566,14.5566,14.5566,14.5566,14.5566,14.5566,14.5566,14.5566,14.5566,14.5566,14.5566,14.5566,14.5566,14.5566,14.5566,14.5566,14.5566,14.5566,14.5566,14.5566,14.5566,14.5566,14.5566,14.5633,14.6601,14.805,14.9403,15.1577,15.4056,15.5371,15.7191,15.9203,16.0699,16.103,16.1112,16.1112,16.1112,16.1112,16.1112,16.1112,16.1112,16.1112,16.1112,16.1112,16.1112,16.1112,16.1112,16.1112,16.1112,16.1112,16.1112,16.1112,16.1112,16.1112,16.1112,16.1112,16.1112,16.1112,16.1112,16.1112,16.1112,16.1112,16.1112,16.1112,16.1112,16.1112,16.1112,16.1112,16.1112,16.1112,16.1112,16.1112,16.1112,16.1112,16.1112,16.1112,16.1112,16.1112,16.1112,16.1112,16.1112,16.1112,16.1112,16.114,16.1304,16.1523,16.1768,16.2174,16.255,16.2604,16.2604,16.2443,16.2255,16.2255,16.2201,16.2039,16.212,16.2282,16.2362,16.247,16.255,16.2443,16.2631,16.2738,16.2309,16.1903,16.1632,16.1523,16.1523,16.1604,16.1876,16.255,16.327,16.3508,16.3522,14.5566,14.5566,14.5566,14.5566,14.5566,14.5566,14.5566,14.5566,14.5566,14.5566,14.5566,14.5566,14.5566,14.5566,14.5566,14.5566,14.5566,14.5566,14.5566,14.5566,14.5566,14.56,14.6065,14.6666,14.7882,14.9435,15.1918,15.4566,15.7398,15.8232,15.9745,16.0644,16.1002,16.1112,16.1112,16.1112,16.1112,16.1112,16.1112,16.1112,16.1112,16.1112,16.1112,16.1112,16.1112,16.1112,16.1112,16.1112,16.1112,16.1112,16.1112,16.1112,16.1112,16.1112,16.1112,16.1112,16.1112,16.1112,16.1112,16.1112,16.1112,16.1112,16.1112,16.1112,16.1112,16.1112,16.1112,16.1112,16.1112,16.1112,16.1112,16.1112,16.1112,16.1112,16.1112,16.1112,16.1112,16.1112,16.1112,16.1112,16.1112,16.1112,16.1222,16.1277,16.1713,16.2039,16.2577,16.2978,16.3137,16.3111,16.3164,16.2925,16.2738,16.2738,16.2658,16.255,16.2577,16.2631,16.2791,16.3031,16.3031,16.2898,16.3084,16.3455,16.2738,16.2039,16.212,16.2147,16.2012,16.2147,16.2658,16.327,16.3771,16.3941,16.402,14.5566,14.5566,14.5566,14.5566,14.56,14.5633,14.5699,14.56,14.6139,14.6271,14.6164,14.5566,14.5566,14.5666,14.6172,14.6304,14.6271,14.6436,14.6666,14.6936,14.7296,14.6469,14.7132,14.8534,15.0196,15.1014,15.3572,15.62,15.7744,15.9457,16.0469,16.1112,16.1112,16.1112,16.1112,16.1112,16.1112,16.1112,16.1112,16.1112,16.1112,16.1112,16.1112,16.1112,16.1112,16.1112,16.1112,16.1112,16.1112,16.1112,16.1112,16.1112,16.1112,16.1112,16.1112,16.1112,16.1112,16.1112,16.1112,16.1112,16.1112,16.1112,16.1112,16.1112,16.1112,16.1112,16.1112,16.1112,16.1112,16.1112,16.1112,16.1112,16.1112,16.1112,16.1112,16.1112,16.1112,16.1112,16.1112,16.1112,16.1112,16.1194,16.1359,16.1632,16.2174,16.2738,16.3349,16.364,16.3745,16.3797,16.3928,16.3679,16.3495,16.339,16.3217,16.3084,16.3031,16.2978,16.3137,16.3429,16.3508,16.3482,16.3719,16.4046,16.3548,16.2818,16.2738,16.2673,16.2806,16.2939,16.3482,16.3771,16.4164,16.4358,16.4306,14.5566,14.5566,14.5566,14.5566,14.5866,14.7557,14.7296,14.6436,14.9244,15.0105,14.8238,14.6337,14.5566,14.6172,14.7231,14.8179,14.8695,14.988,15.064,15.0703,15.0577,15.1079,15.1328,15.198,15.2963,15.5047,15.708,15.8495,15.9625,16.0671,16.103,16.1112,16.1112,16.1112,16.1112,16.1112,16.1112,16.1112,16.1112,16.1112,16.114,16.1112,16.1112,16.1167,16.114,16.1112,16.1112,16.1112,16.1112,16.1112,16.1112,16.1112,16.1112,16.1112,16.1112,16.1112,16.1112,16.1112,16.1112,16.1112,16.1112,16.1112,16.1112,16.1112,16.1112,16.1112,16.1112,16.1112,16.1112,16.1112,16.1112,16.1112,16.1112,16.1112,16.1112,16.1194,16.1194,16.1277,16.1249,16.1359,16.1523,16.1713,16.193,16.2228,16.2765,16.3349,16.3824,16.4085,16.4072,16.415,16.4306,16.4176,16.4072,16.3889,16.3732,16.3771,16.3745,16.3692,16.3719,16.3889,16.3968,16.4164,16.4346,16.4294,16.3981,16.3587,16.3323,16.319,16.3429,16.3771,16.3915,16.4164,16.441,16.441,16.441,14.5566,14.5566,14.5566,14.5566,14.5699,14.7296,14.7654,14.7752,15.0389,15.1328,15.0857,14.834,14.7067,14.7492,14.8952,14.9912,15.1172,15.281,15.2963,15.3328,15.3359,15.3328,15.3935,15.4297,15.5699,15.693,15.8374,15.9885,16.103,16.1057,16.1112,16.1112,16.1112,16.1112,16.1112,16.1112,16.1112,16.1112,16.1112,16.1277,16.1341,16.1277,16.1222,16.1359,16.1369,16.1112,16.114,16.1112,16.1112,16.1112,16.1112,16.1112,16.1112,16.1112,16.1112,16.1112,16.1112,16.1112,16.1112,16.1112,16.1112,16.1112,16.1112,16.1112,16.1112,16.1112,16.1112,16.114,16.1112,16.1112,16.114,16.114,16.1194,16.114,16.1167,16.1277,16.1386,16.1523,16.1604,16.2066,16.2228,16.2282,16.255,16.2818,16.3376,16.3876,16.415,16.441,16.4358,16.4384,16.4332,16.4228,16.4254,16.419,16.4072,16.4228,16.4384,16.4332,16.4306,16.428,16.4228,16.445,16.4346,16.419,16.3955,16.3824,16.3719,16.3613,16.3745,16.3994,16.4254,16.441,16.441,16.441,16.441,14.5766,14.6105,14.6205,14.6403,14.6469,14.6271,14.7947,14.9785,15.0512,15.2103,15.2688,15.1235,15.0196,15.0038,15.0638,15.1949,15.3632,15.3813,15.4534,15.4596,15.4026,15.4746,15.543,15.6639,15.7716,15.8232,15.9485,16.0644,16.1112,16.1112,16.1112,16.1112,16.1112,16.1112,16.114,16.1249,16.1304,16.1304,16.1468,16.1659,16.1632,16.155,16.1386,16.1632,16.1413,16.1167,16.1259,16.1386,16.1441,16.1277,16.1304,16.1277,16.114,16.1112,16.1112,16.1112,16.1112,16.1112,16.1194,16.1194,16.1167,16.114,16.1194,16.1304,16.1331,16.1249,16.1277,16.1441,16.1604,16.1495,16.1386,16.1277,16.1523,16.1604,16.174,16.1822,16.1957,16.2012,16.2255,16.2711,16.2898,16.2898,16.3084,16.3429,16.3928,16.4164,16.441,16.441,16.441,16.441,16.4358,16.4332,16.445,16.445,16.4358,16.4384,16.441,16.441,16.441,16.441,16.441,16.4346,16.4216,16.4138,16.419,16.4072,16.402,16.3994,16.4111,16.4306,16.441,16.441,16.441,16.3976,16.3844,14.7888,15.139,15.1453,15.1392,15.1608,15.3511,15.3572,15.3085,15.6137,15.6225,15.4447,15.4596,15.4026,15.3085,15.4206,15.5252,15.6405,15.8346,15.9034,15.9231,15.9231,15.8885,15.8829,15.926,15.9996,16.0247,16.0892,16.1057,16.1112,16.1112,16.1112,16.1112,16.1167,16.1167,16.1249,16.1523,16.1768,16.1795,16.212,16.2201,16.2039,16.1822,16.1632,16.155,16.1577,16.174,16.1822,16.2066,16.2039,16.1822,16.1659,16.1413,16.1167,16.1112,16.1112,16.1112,16.1277,16.1277,16.1359,16.1523,16.1468,16.1413,16.1386,16.1659,16.174,16.2228,16.2416,16.2228,16.2255,16.2309,16.2443,16.2389,16.2309,16.2255,16.2309,16.2497,16.2631,16.2631,16.2818,16.319,16.3376,16.3429,16.364,16.4007,16.4242,16.4358,16.441,16.441,16.441,16.441,16.4384,16.4384,16.441,16.441,16.441,16.441,16.441,16.441,16.441,16.441,16.4344,16.4306,16.4137,16.4228,16.4372,16.428,16.4228,16.4332,16.441,16.441,16.441,16.441,16.4107,16.3252,16.2726,15.1359,15.4925,15.3783,15.3328,15.3541,15.4895,15.5312,15.5667,15.8175,15.8374,15.7191,15.7307,15.6522,15.5519,15.6434,15.7831,15.9119,16.0247,16.1085,16.0892,16.0892,16.0975,16.1112,16.1112,16.1112,16.0947,16.1112,16.1112,16.1112,16.1112,16.1112,16.1167,16.1331,16.1468,16.1577,16.2093,16.2309,16.247,16.2684,16.2818,16.2684,16.2497,16.2309,16.2282,16.2335,16.2362,16.2335,16.255,16.2255,16.2039,16.1659,16.1441,16.1222,16.114,16.114,16.1231,16.155,16.1849,16.1903,16.2201,16.2201,16.2066,16.1903,16.1947,16.1957,16.2039,16.2093,16.247,16.2497,16.2604,16.2738,16.2898,16.2898,16.2871,16.2711,16.2898,16.3111,16.319,16.3323,16.3613,16.385,16.3955,16.4111,16.4294,16.4306,16.441,16.441,16.441,16.441,16.441,16.441,16.441,16.4436,16.4213,16.4081,16.3976,16.3778,16.4173,16.4173,16.391,16.4041,16.4147,16.399,16.399,16.4253,16.4384,16.441,16.4344,16.4213,16.4278,16.441,16.441,16.4344,16.3318,16.1766,15.5607,15.7543,15.5282,15.4327,15.4537,15.4746,15.5785,15.7629,15.7974,15.909,16.033,15.8864,15.7917,15.7773,15.7917,15.9119,16.0386,16.1112,16.1112,16.1112,16.1112,16.1112,16.1112,16.1112,16.1112,16.1112,16.1112,16.1112,16.114,16.1222,16.1249,16.1413,16.1768,16.2039,16.212,16.2658,16.2978,16.3005,16.3084,16.3323,16.3587,16.3217,16.3164,16.3217,16.3164,16.2978,16.2925,16.2818,16.2497,16.2309,16.1795,16.1533,16.1396,16.1396,16.1396,16.1659,16.2201,16.2898,16.2791,16.2898,16.2898,16.2631,16.2497,16.2228,16.2282,16.2147,16.2147,16.2174,16.2324,16.2738,16.319,16.3164,16.3111,16.319,16.3323,16.3508,16.3601,16.3797,16.3902,16.4138,16.4164,16.4228,16.4372,16.4384,16.441,16.441,16.441,16.441,16.441,16.441,16.441,16.4304,16.4239,16.345,16.3121,16.2989,16.3121,16.3778,16.3475,16.3015,16.3581,16.4081,16.391,16.3844,16.4213,16.441,16.391,16.3713,16.3884,16.3555,16.2858,16.3252,16.3976,16.2858,16.124,15.9913,16.0302,15.9737,15.9569,15.9569,15.9569,15.9765,16.0339,16.0247,16.0616,16.103,16.0561,16.0219,16.0302,16.033,16.0533,16.1002,16.1112,16.1112,16.1112,16.1112,16.1112,16.1112,16.1112,16.1112,16.114,16.1222,16.1112,16.1331,16.1604,16.174,16.1957,16.2416,16.2711,16.2791,16.3244,16.3429,16.3666,16.3902,16.4098,16.4164,16.3797,16.3429,16.3084,16.3376,16.3534,16.3561,16.3587,16.3469,16.3205,16.3084,16.2898,16.2604,16.255,16.255,16.2577,16.2765,16.2871,16.3031,16.327,16.3376,16.3111,16.319,16.327,16.3217,16.3031,16.3125,16.385,16.3876,16.3876,16.3955,16.4111,16.4111,16.402,16.4085,16.4164,16.4216,16.4202,16.4346,16.4372,16.4384,16.441,16.4384,16.441,16.441,16.441,16.441,16.441,16.441,16.441,16.4436,16.4239,16.3844,16.2924,16.2726,16.2792,16.3187,16.3384,16.2752,16.2489,16.3121,16.3621,16.3844,16.3647,16.391,16.3318,16.2989,16.2686,16.2463,16.2069,16.1346,16.1148,16.1543,16.0911,16.0056,16.1112,16.1112,16.1112,16.1112,16.1112,16.1112,16.1112,16.1112,16.1112,16.1112,16.1112,16.1112,16.1112,16.1112,16.1112,16.1112,16.1112,16.1112,16.1112,16.1112,16.1112,16.1112,16.1112,16.1112,16.1112,16.1277,16.174,16.2012,16.2012,16.2282,16.2362,16.2524,16.2978,16.327,16.3402,16.3797,16.4033,16.4085,16.4294,16.4384,16.4358,16.4242,16.3981,16.3797,16.3889,16.4059,16.402,16.415,16.3955,16.3745,16.3455,16.3164,16.3111,16.327,16.3666,16.364,16.3692,16.3692,16.3745,16.385,16.3928,16.3692,16.3613,16.3692,16.364,16.3508,16.3297,16.364,16.385,16.419,16.4476,16.4384,16.441,16.441,16.4384,16.4384,16.441,16.441,16.441,16.4384,16.441,16.441,16.441,16.441,16.441,16.441,16.441,16.441,16.441,16.441,16.441,16.437,16.4239,16.3621,16.3621,16.3581,16.3713,16.2818,16.2029,16.2029,16.2332,16.1937,16.22,16.2792,16.2398,16.174,16.1411,16.1305,16.0911,16.0516,16.0253,16.0056,15.9727,15.9267,15.8766,16.079,16.079,16.079,16.0919,16.1112,16.1112,16.1112,16.1112,16.1112,16.1112,16.1112,16.1112,16.1112,16.1112,16.1112,16.1112,16.1112,16.1112,16.1112,16.1112,16.1112,16.1112,16.1167,16.1277,16.1413,16.1659,16.2228,16.2738,16.2791,16.3005,16.3005,16.3137,16.3561,16.3797,16.3928,16.4216,16.4332,16.4332,16.4384,16.441,16.441,16.4358,16.4346,16.428,16.428,16.4332,16.428,16.4059,16.3824,16.3797,16.3402,16.3244,16.3402,16.3981,16.432,16.428,16.4254,16.4202,16.4228,16.4424,16.441,16.4332,16.4046,16.3876,16.3771,16.3534,16.3534,16.3534,16.3771,16.4033,16.4384,16.441,16.441,16.441,16.441,16.441,16.441,16.441,16.441,16.441,16.441,16.441,16.441,16.441,16.441,16.441,16.441,16.441,16.441,16.441,16.4278,16.4278,16.4213,16.4081,16.3884,16.3358,16.2398,16.0977,16.0714,16.0714,16.1042,16.0491,16.0425,16.1017,16.0885,16.0359,16.0031,15.9859,15.9398,15.8609,15.8938,15.9333,15.8609,15.782,15.7385,15.9309,15.9309,15.9309,16.0045,16.1048,16.1048,16.1048,16.1112,16.1112,16.1112,16.1112,16.1112,16.1112,16.1112,16.1112,16.1112,16.1112,16.1112,16.1194,16.1194,16.1222,16.1249,16.1413,16.174,16.212,16.2631,16.2925,16.2978,16.3111,16.3297,16.3561,16.3601,16.4111,16.4242,16.4254,16.441,16.441,16.441,16.441,16.441,16.441,16.441,16.441,16.441,16.441,16.441,16.4187,16.4175,16.4189,16.4346,16.4294,16.4242,16.4268,16.445,16.441,16.441,16.441,16.441,16.441,16.441,16.441,16.441,16.4306,16.428,16.4254,16.4098,16.4085,16.4164,16.419,16.428,16.4384,16.441,16.441,16.441,16.441,16.441,16.441,16.441,16.441,16.441,16.441,16.441,16.441,16.441,16.441,16.441,16.441,16.441,16.441,16.4344,16.391,16.3778,16.2989,16.2661,16.178,16.1148,15.9661,15.8766,15.8832,15.9333,16.0056,15.957,15.9242,15.957,15.9439,15.9135,15.8807,15.8543,15.782,15.6702,15.6768,15.7491,15.7163,15.6439,15.6308,15.9014,15.895,15.8177,15.8692,15.9889,16.0045,16.0404,16.1048,16.1112,16.1112,16.1112,16.1112,16.1112,16.1112,16.1112,16.1112,16.1112,16.1112,16.1249,16.1495,16.155,16.174,16.2066,16.2631,16.2978,16.3297,16.3561,16.3719,16.3771,16.3981,16.402,16.4072,16.4346,16.441,16.441,16.441,16.441,16.441,16.441,16.441,16.441,16.441,16.441,16.441,16.441,16.4016,16.3384,16.3344,16.3318,16.3318,16.3252,16.3318,16.3318,16.4016,16.441,16.441,16.441,16.441,16.441,16.441,16.4344,16.441,16.441,16.441,16.441,16.441,16.441,16.441,16.441,16.441,16.441,16.441,16.441,16.441,16.441,16.441,16.441,16.441,16.441,16.441,16.4278,16.4278,16.441,16.441,16.4304,16.3187,16.3187,16.2924,16.3055,16.2726,16.2595,16.2529,16.1674,16.0951,15.9965,15.8913,15.7779,15.7582,15.7779,15.8371,15.8807,15.8478,15.8124,15.7754,15.7491,15.7294,15.7557,15.7097,15.6571,15.6176,15.5979,15.5913,15.5979,15.611,15.6045,15.8563,15.8499,15.7662,15.8177,15.9309,15.9438,16.0146,16.1112,16.1112,16.1112,16.1112,16.1112,16.1112,16.1112,16.1112,16.1112,16.1112,16.114,16.1331,16.1768,16.1822,16.2389,16.3217,16.3613,16.385,16.3955,16.4294,16.445,16.445,16.4332,16.441,16.4384,16.4384,16.441,16.441,16.441,16.441,16.4344,16.4041,16.391,16.3844,16.3581,16.3252,16.3318,16.3292,16.2792,16.2003,16.1831,16.17,16.1594,16.17,16.2069,16.262,16.3713,16.4147,16.3976,16.391,16.3778,16.349,16.3318,16.3515,16.3252,16.3161,16.3621,16.3844,16.391,16.4041,16.441,16.441,16.441,16.441,16.441,16.4213,16.4041,16.4173,16.441,16.441,16.4173,16.391,16.3753,16.3555,16.349,16.3358,16.3187,16.2858,16.2094,16.1634,16.1305,16.0951,16.0622,16.082,16.1083,16.0557,16.0319,15.9439,15.8675,15.7713,15.7319,15.7253,15.7516,15.7385,15.7097,15.6965,15.6439,15.5913,15.5979,15.6505,15.611,15.6242,15.6045,15.5913,15.5913,15.5913,15.5913,15.5913,15.7082,15.7211,15.8306,15.9631,16.0624,16.0919,16.0855,16.1112,16.1048,16.1048,16.0983,16.1048,16.0726,16.1112,16.0726,16.1048,16.1048,16.1048,16.1194,16.1386,16.1903,16.2634,16.3758,16.4019,16.4228,16.428,16.4358,16.441,16.441,16.441,16.441,16.441,16.4344,16.441,16.4173,16.4147,16.4344,16.391,16.2989,16.2555,16.2423,16.1609,16.1214,16.1214,16.1148,16.0885,16.0688,16.0319,15.9859,15.8568,15.9727,16.0911,16.2226,16.3581,16.3713,16.2792,16.2489,16.2003,16.1017,16.1017,16.082,16.0951,16.0885,16.1083,16.2226,16.2529,16.2924,16.3844,16.441,16.4278,16.4278,16.441,16.4041,16.3384,16.391,16.4344,16.4239,16.3344,16.2489,16.2489,16.1437,16.082,16.0622,16.0622,16.0622,16.0516,16.0319,15.9924,15.9505,15.911,15.9176,15.9307,15.9307,15.9333,15.8807,15.824,15.745,15.6834,15.6727,15.6595,15.6464,15.6332,15.6045,15.5913,15.5913,15.5913,15.5913,15.5913,15.5979,15.5913,15.5913,15.5913,15.5913,15.5913,15.5913,15.5612,15.5677,15.6283,15.7351,15.8665,15.9594,16.0404,16.0855,16.0339,15.9889,15.9696,15.9079,15.8665,15.8821,15.9502,15.9916,16.0045,16.0726,16.1048,16.1212,16.2001,16.251,16.2933,16.4043,16.441,16.441,16.441,16.441,16.441,16.441,16.441,16.4213,16.3647,16.3212,16.3187,16.2463,16.1937,16.1872,16.1477,16.1083,16.1083,16.0425,16.0162,16.0162,16.0162,16.0162,16.0031,15.9333,15.8305,15.745,15.8174,15.916,15.9859,16.1174,16.1674,16.1148,16.1108,16.0845,16.0294,16.0162,16.0162,16.0162,16.0162,16.0516,16.0911,16.1083,16.1148,16.2069,16.2792,16.3121,16.3318,16.4041,16.4107,16.3581,16.4016,16.4081,16.3278,16.3252,16.3515,16.3212,16.2357,16.1437,16.1437,16.0714,15.9924,15.9201,15.8938,15.8543,15.8058,15.773,15.7491,15.7294,15.7228,15.7426,15.7163,15.699,15.6439,15.6308,15.6201,15.6135,15.6045,15.6045,15.5913,15.5913,15.5913,15.5913,15.5913,15.5913,15.5913,15.5913,15.5913,15.5913,15.5913,15.5913,15.5913,15.4749,15.4749,15.5162,15.5896,15.6927,15.7919,15.9052,15.976,15.8794,15.8435,15.8241,15.734,15.7018,15.6953,15.8048,15.8408,15.8655,15.9601,16.0235,16.0361,16.1446,16.1534,16.1468,16.2903,16.3844,16.391,16.4173,16.4239,16.391,16.3778,16.3581,16.3318,16.2226,16.1766,16.1634,16.082,16.0228,16.0162,15.9899,15.9596,15.953,15.9267,15.9044,15.9044,15.8913,15.8913,15.8938,15.8042,15.6924,15.611,15.7253,15.8042,15.8305,15.953,16.0162,15.9727,15.9596,15.9464,15.9135,15.8913,15.8979,15.9044,15.8716,15.9201,15.953,15.9596,15.9833,16.0359,16.1042,16.1766,16.1872,16.2595,16.3384,16.3713,16.3227,16.2726,16.2094,16.2398,16.2792,16.2595,16.124,16.0319,15.9924,15.9333,15.8453,15.7754,15.7426,15.7163,15.6768,15.6373,15.6636,15.611,15.5979,15.5913,15.5913,15.5913,15.5913,15.5913,15.5913,15.5913,15.5913,15.5913,15.5913,15.5913,15.5913,15.5913,15.5913,15.5913,15.5913,15.5913,15.5913,15.5913,15.5913,15.5913,15.5913,15.4684,15.4878,15.6154,15.6605,15.676,15.7018,15.7275,15.7211,15.7018,15.6991,15.6953,15.6594,15.662,15.6787,15.6985,15.7205,15.7151,15.7873,15.8177,15.8287,15.8952,15.9676,15.9764,16.1339,16.2292,16.2555,16.3581,16.3581,16.2489,16.2423,16.1766,16.082,16.0491,16.0294,16.0253,16.0228,16.0031,15.9833,15.8938,15.8371,15.8305,15.7122,15.6439,15.6373,15.6439,15.6505,15.6571,15.6373,15.6135,15.6135,15.7122,15.7845,15.8174,15.9333,15.9267,15.824,15.8174,15.7491,15.6571,15.6571,15.6571,15.6571,15.6636,15.6636,15.7977,15.8174,15.8568,15.957,16.0122,16.0294,16.0294,16.0688,16.124,16.2029,16.128,16.0754,16.0228,15.9398,15.953,15.8897,15.7385,15.6439,15.7031,15.6768,15.6439,15.6176,15.6242,15.6242,15.5913,15.5913,15.5913,15.5913,15.5913,15.5913,15.5913,15.5913,15.5913,15.5913,15.5913,15.5913,15.5913,15.5913,15.5913,15.5913,15.5913,15.5913,15.5913,15.5913,15.5913,15.5913,15.5913,15.5913,15.5913,15.5913,15.5913,15.3397,15.3526,15.4904,15.5548,15.5612,15.654,15.6825,15.676,15.5961,15.5483,15.537,15.495,15.4655,15.4927,15.608,15.6599,15.6755,15.7742,15.7378,15.6317,15.6893,15.7718,15.8647,15.9323,16.0015,16.0885,16.1477,16.1477,16.0951,16.0951,16.0714,16.0056,15.9267,15.8807,15.8807,15.8807,15.8832,15.8897,15.9135,15.8938,15.8108,15.7516,15.6793,15.5979,15.5913,15.5913,15.5913,15.5913,15.5913,15.6045,15.6398,15.6661,15.6702,15.7163,15.7228,15.6768,15.6636,15.653,15.6045,15.5913,15.5913,15.5913,15.5913,15.6176,15.6505,15.6727,15.6834,15.7557,15.828,15.8832,15.9029,15.953,15.9924,15.9752,15.9135,15.9267,15.9965,15.9727,15.9333,15.8872,15.7977,15.7385,15.699,15.6636,15.5913,15.5913,15.5913,15.5913,15.5913,15.5913,15.5913,15.5913,15.5913,15.5913,15.5913,15.5913,15.5913,15.5913,15.5913,15.5913,15.5913,15.5913,15.5913,15.5913,15.5913,15.5913,15.5913,15.5913,15.5913,15.5913,15.5913,15.5913,15.5913,15.5913,15.5913,15.256,15.2689,15.3655,15.4105,15.426,15.5124,15.551,15.5446,15.4518,15.4146,15.4162,15.3686,15.3515,15.3979,15.5091,15.579,15.588,15.6954,15.6827,15.5673,15.5807,15.6505,15.7228,15.7385,15.8083,15.9333,15.9899,15.9965,15.9596,15.953,15.9242,15.8807,15.7845,15.7385,15.7385,15.7385,15.7385,15.7516,15.8346,15.8387,15.7516,15.7319,15.6924,15.6045,15.5913,15.5913,15.5913,15.6308,15.6332,15.5913,15.6308,15.6373,15.5979,15.5913,15.5913,15.5913,15.5913,15.5913,15.5913,15.5913,15.5913,15.5913,15.5913,15.5913,15.5913,15.5979,15.5979,15.6045,15.6727,15.7385,15.7516,15.8346,15.8346,15.7491,15.7385,15.7754,15.8412,15.865,15.8847,15.8716,15.7952,15.745,15.7122,15.6661,15.5913,15.5913,15.5913,15.5913,15.5913,15.5913,15.5913,15.5913,15.5913,15.5913,15.5913,15.5913,15.5913,15.5913,15.5913,15.5913,15.5913,15.5913,15.5913,15.5913,15.5913,15.5913,15.5913,15.5913,15.5913,15.5913,15.5782,15.5782,15.5847,15.5913,15.5913,15.256,15.2586,15.2651,15.2831,15.2896,15.3103,15.2831,15.3103,15.2883,15.3259,15.3711,15.3529,15.3847,15.4242,15.464,15.455,15.4817,15.5739,15.6053,15.5839,15.5889,15.5979,15.611,15.611,15.6834,15.8017,15.9398,15.9333,15.8108,15.8042,15.745,15.6308,15.6201,15.6176,15.5979,15.6242,15.6201,15.6373,15.6636,15.6439,15.5979,15.6242,15.6176,15.5913,15.5913,15.5913,15.5913,15.7097,15.7122,15.6201,15.699,15.7253,15.5913,15.5584,15.5716,15.5519,15.565,15.5782,15.5716,15.5609,15.5453,15.565,15.5782,15.5716,15.5847,15.5913,15.5913,15.5913,15.6045,15.6045,15.611,15.611,15.6045,15.5913,15.611,15.6176,15.6242,15.6045,15.5979,15.6267,15.6242,15.5979,15.5979,15.5913,15.5913,15.5913,15.5913,15.5847,15.5584,15.5716,15.5847,15.5782,15.5782,15.5847,15.5913,15.5913,15.5847,15.5913,15.5847,15.5913,15.5913,15.5913,15.5913,15.5913,15.5913,15.5913,15.5913,15.5913,15.5913,15.5387,15.5519,15.5453,15.5058,15.4688,15.5083,15.256,15.2612,15.2975,15.313,15.3182,15.3567,15.3785,15.3785,15.3785,15.3861,15.409,15.438,15.4671,15.4897,15.5271,15.5395,15.5469,15.5741,15.5913,15.5913,15.5913,15.5913,15.5913,15.5913,15.6176,15.6636,15.7097,15.7097,15.6661,15.6595,15.6332,15.5913,15.5913,15.5913,15.6045,15.6858,15.7385,15.7557,15.8346,15.828,15.745,15.7319,15.6924,15.6045,15.5913,15.5913,15.5913,15.6308,15.6308,15.5913,15.5387,15.4902,15.4401,15.3546,15.2978,15.3044,15.3044,15.2978,15.2978,15.2978,15.3438,15.4335,15.4442,15.4927,15.5782,15.5913,15.5913,15.5913,15.5913,15.5913,15.5716,15.4968,15.4442,15.4508,15.5321,15.5913,15.5913,15.5847,15.5847,15.5847,15.5782,15.5847,15.5913,15.5847,15.5913,15.5913,15.5913,15.5453,15.4861,15.5124,15.565,15.4705,15.5321,15.5782,15.5716,15.5584,15.5584,15.5782,15.5847,15.5847,15.5913,15.5913,15.5913,15.5913,15.5913,15.5913,15.5913,15.5913,15.5387,15.4574,15.4574,15.4532,15.3702,15.3241,15.3307,15.1041,15.1093,15.1605,15.1834,15.1885,15.2415,15.2731,15.2731,15.2731,15.3117,15.3823,15.4212,15.4722,15.5379,15.4649,15.4359,15.4401,15.4927,15.51,15.5165,15.565,15.5913,15.5913,15.5913,15.5913,15.5913,15.5913,15.5913,15.5913,15.5913,15.5913,15.5913,15.5913,15.5913,15.6045,15.6793,15.7253,15.7385,15.8174,15.8215,15.7253,15.7253,15.6858,15.5913,15.5913,15.565,15.5124,15.5124,15.4861,15.4335,15.3546,15.302,15.2888,15.2123,15.1663,15.1663,15.1663,15.1663,15.1663,15.1663,15.2057,15.2888,15.302,15.3438,15.4138,15.4335,15.4335,15.4335,15.4335,15.4359,15.4138,15.3546,15.302,15.3086,15.3809,15.4425,15.4993,15.5124,15.5124,15.5124,15.5124,15.5124,15.5124,15.5584,15.5847,15.5847,15.5428,15.5058,15.4664,15.4771,15.5058,15.4771,15.5297,15.5716,15.5321,15.5124,15.5321,15.5519,15.5387,15.5124,15.4729,15.4598,15.4138,15.3965,15.4729,15.4795,15.4993,15.4993,15.5256,15.4442,15.3982,15.3546,15.186,15.232,15.2057,14.8388,14.8578,14.8916,14.936,14.928,14.994,15.0072,15.0365,15.0186,15.1149,15.2815,15.293,15.3961,15.5297,15.2954,15.1663,15.186,15.3086,15.3653,15.3785,15.4927,15.5675,15.5782,15.5847,15.5847,15.5913,15.5913,15.5913,15.5913,15.5913,15.5913,15.5913,15.5913,15.5913,15.5913,15.5979,15.5913,15.6045,15.6176,15.5979,15.5979,15.5847,15.5782,15.5477,15.565,15.4927,15.385,15.3653,15.3086,15.1728,15.1597,15.1531,15.1531,15.14,15.1268,15.1268,15.1334,15.1334,15.1268,15.1137,15.1334,15.1531,15.1531,15.1597,15.1992,15.2057,15.2057,15.1728,15.1663,15.14,15.14,15.1465,15.1531,15.1531,15.1663,15.2452,15.3546,15.3653,15.3653,15.3653,15.3653,15.3653,15.3719,15.4861,15.5256,15.5124,15.4442,15.385,15.4466,15.4179,15.4113,15.4705,15.5124,15.519,15.3982,15.3653,15.4269,15.4532,15.4072,15.3677,15.3217,15.2691,15.2165,15.2057,15.302,15.3677,15.394,15.4138,15.4269,15.4006,15.3349,15.2296,15.0545,15.1137,15.0939,14.9399,14.9489,14.9613,14.9908,15.0301,15.0859,15.1166,15.1166,15.1166,15.1435,15.1997,15.1997,15.2332,15.2625,15.2057,15.1663,15.1663,15.2057,15.2165,15.2255,15.2583,15.3349,15.4311,15.4376,15.4837,15.5716,15.5913,15.5913,15.5913,15.5913,15.5913,15.5913,15.5913,15.5913,15.5913,15.5913,15.5913,15.5913,15.5913,15.5913,15.5716,15.4902,15.3875,15.2888,15.2757,15.2649,15.2231,15.2231,15.1968,15.1597,15.0587,15.0084,14.9995,14.8966,14.8374,14.8417,14.8351,14.8374,14.8374,14.8374,14.8877,14.9863,15.0061,15.0455,15.14,15.1663,15.1663,15.14,14.9624,14.8482,14.8548,14.9403,14.9995,15.0126,15.1071,15.1728,15.2123,15.2189,15.2189,15.2165,15.2231,15.2165,15.2296,15.2583,15.2978,15.2978,15.2494,15.2165,15.1442,15.1902,15.1968,15.1376,15.2255,15.2518,15.232,15.2165,15.2255,15.2649,15.2649,15.2255,15.2123,15.1992,15.1597,15.0808,15.1639,15.2231,15.2362,15.2362,15.2452,15.2123,15.131,15.0126,14.9098,14.8482,14.8417,14.82,14.8241,14.8176,14.8491,14.8972,14.9519,14.9821,14.9821,14.9821,15.015,15.061,15.0084,14.9821,14.9798,14.9732,14.9755,14.9887,15.0455,15.0742,15.0808,15.14,15.2033,15.2888,15.3456,15.4179,15.4993,15.565,15.5913,15.5913,15.5913,15.5913,15.5913,15.5913,15.5913,15.5913,15.5913,15.5913,15.5913,15.5913,15.5584,15.4927,15.3587,15.2428,15.1728,15.1663,15.14,15.0808,15.0742,15.0413,14.9821,14.9032,14.8548,14.8548,14.7693,14.7102,14.7102,14.7102,14.7102,14.7102,14.7102,14.7562,14.8417,14.8482,14.8877,14.969,14.9821,14.9755,14.9624,14.8243,14.7102,14.7233,14.7956,14.8482,14.8614,14.9229,15.0018,15.061,15.0742,15.0742,15.0718,15.0742,15.0718,15.0718,15.0742,15.1005,15.1531,15.1071,15.0873,15.0545,15.0545,15.0676,15.0389,14.9863,15.0084,15.0652,15.0742,15.1071,15.1334,15.1137,15.0718,15.0587,15.0347,14.9821,14.969,15.0282,15.0742,15.0742,15.1071,15.1597,15.1465,15.0479,14.9009,14.7496,14.7167,14.7102,14.6007,14.5918,14.6072,14.6155,14.6669,14.7024,14.7233,14.7233,14.7167,14.7891,14.8548,14.7562,14.7036,14.6904,14.6641,14.651,14.6575,14.7604,14.8088,14.8548,15.0018,15.0939,15.1465,15.2888,15.3587,15.3982,15.5256,15.5913,15.5913,15.5913,15.5913,15.5913,15.5913,15.5913,15.5913,15.5913,15.5913,15.5913,15.5782,15.4993,15.3587,15.2165,15.1334,15.1202,15.1202,15.0545,14.9337,14.9272,14.8614,14.7299,14.7167,14.7125,14.697,14.697,14.6838,14.6707,14.6707,14.673,14.6707,14.6707,14.6664,14.6773,14.6707,14.6773,14.697,14.6862,14.6773,14.673,14.6707,14.651,14.6707,14.6838,14.697,14.697,14.7233,14.7693,14.9009,14.9248,14.9272,14.9248,14.9206,14.9272,14.9206,14.9272,14.9732,15.061,14.9798,14.9492,15.0216,14.9887,14.9535,15.015,14.9032,14.8088,14.8877,14.9272,14.9666,15.0587,15.0084,14.9403,14.9074,14.8219,14.7233,14.8088,14.8506,14.9229,14.9535,15.0216,15.1005,15.0413,14.9755,14.8722,14.7562,14.7102,14.7102,14.6842,14.6842,14.6842,14.6912,14.6982,14.7055,14.7102,14.7102,14.7102,14.6049,14.4625,14.5195,14.55,14.5237,14.3156,14.2235,14.1775,13.9079,13.9605,14.2498,14.3047,14.5589,14.9732,15.14,15.2691,15.385,15.5256,15.5913,15.5913,15.5913,15.5913,15.5913,15.5913,15.5913,15.5913,15.5913,15.5913,15.5847,15.4771,15.3546,15.2123,15.0718,14.9403,14.8243,14.8177,14.8022,14.7693,14.7693,14.7496,14.7167,14.7102,14.6641,14.5566,14.55,14.4974,14.3968,14.3836,14.3836,14.3836,14.3836,14.3836,14.3836,14.3836,14.4297,14.526,14.4471,14.3836,14.3836,14.3902,14.3902,14.4099,14.48,14.55,14.5566,14.651,14.7167,14.7562,14.7717,14.7693,14.7693,14.767,14.7693,14.7693,14.7693,14.7891,14.8219,14.7891,14.7759,14.8045,14.7956,14.7759,14.798,14.7651,14.7365,14.7562,14.7759,14.7891,14.798,14.7891,14.7891,14.7759,14.7496,14.7167,14.7167,14.7496,14.7759,14.7759,14.8088,14.8285,14.844,14.8219,14.7628,14.7233,14.7102,14.7102,14.5217,14.5195,14.5217,14.5217,14.5217,14.5217,14.5217,14.502,14.3113,14.1381,14.0219,14.285,14.4011,14.3879,14.2433,14.1709,14.1666,14.0,14.0438,14.2673,14.3353,14.5392,14.8417,15.061,15.1992,15.2888,15.4861,15.5913,15.5913,15.5913,15.5913,15.5913,15.5913,15.5913,15.5913,15.5913,15.5913,15.5872,15.3875,15.2428,15.1597,14.9535,14.8022,14.7167,14.7102,14.7102,14.7102,14.651,14.6181,14.6158,14.5523,14.4866,14.4077,14.4011,14.3419,14.206,14.1929,14.1907,14.1907,14.1841,14.2192,14.2784,14.285,14.2455,14.1249,14.0351,14.0482,14.1732,14.1863,14.2104,14.285,14.3573,14.4077,14.4011,14.4691,14.5152,14.5217,14.5721,14.6158,14.6247,14.6707,14.7102,14.7102,14.7102,14.7102,14.7102,14.7167,14.7167,14.7167,14.7167,14.7167,14.7102,14.7102,14.7102,14.7167,14.7102,14.7102,14.7102,14.7102,14.7102,14.7102,14.7102,14.7102,14.7102,14.7167,14.7102,14.7167,14.7102,14.7102,14.7102,14.7102,14.7102,14.7102,14.7102,14.7102,14.285,14.285,14.285,14.2521,14.1929,14.2017,14.16,14.0811,13.7588,13.6141,13.6404,14.0219,14.1951,14.1995,14.1797,14.1666,14.1732,14.2476,14.3265,14.3857,14.5523,14.6575,14.7322,15.0413,15.1926,15.2123,15.4598,15.5913,15.5913,15.5913,15.5913,15.5847,15.5716,15.5584,15.5584,15.5584,15.5584,15.5519,15.2978,15.1728,15.186,14.9229,14.7562,14.7233,14.7365,14.7233,14.6575,14.5589,14.4646,14.3791,14.2652,14.1754,14.1337,14.1205,14.0877,13.9934,13.9802,13.9868,13.9802,13.9868,14.0328,14.1534,14.1666,14.0022,13.6273,13.601,13.7194,13.9474,13.9671,14.0417,14.1735,14.2022,14.2198,14.2219,14.2637,14.2833,14.2675,14.4085,14.5097,14.4803,14.597,14.6791,14.6473,14.692,14.7238,14.7278,14.7639,14.7608,14.7746,14.7525,14.7641,14.7862,14.7862,14.7862,14.8225,14.7771,14.77,14.7517,14.7379,14.7102,14.7102,14.7102,14.7102,14.7102,14.7102,14.7102,14.7102,14.7102,14.7102,14.7102,14.7102,14.7102,14.7102,14.7507,14.7556,14.285,14.285,14.285,14.0811,13.7588,13.7588,13.5528,13.2285,0.0,0.0,0.0,13.6712,13.7588,13.7522,13.6404,13.5791,13.5725,13.3534,13.4455,13.8049,14.0679,14.3748,14.7299,15.1418,15.339,15.3456,15.5058,15.5913,15.5913,15.5913,15.5913,15.5782,15.4729,15.4113,15.4113,15.4113,15.4113,15.4048,15.2494,15.2189,15.3259,15.1728,14.969,14.7233,14.8417,14.7365,14.3836,14.4537,14.2805,13.8312,13.772,13.647,13.4081,13.3884,13.4344,13.5331,13.5462,13.5462,13.5462,13.5462,13.5594,13.5791,13.5857,13.4936,13.2963,13.3971,13.4936,13.5375,13.5462,13.6056,13.7448,13.8639,13.9327,13.9393,14.1576,14.2469,14.1472,14.3583,14.4639,14.3693,14.4754,14.5193,14.4155,14.6015,14.76,14.7734,14.8426,14.9339,14.9381,14.9259,14.9612,15.0554,15.0542,15.1169,15.1174,15.0091,14.9405,14.9073,14.8002,14.7171,14.7102,14.7102,14.7102,14.6904,14.7102,14.7036,14.7102,14.6904,14.7102,14.7102,14.7102,14.7102,14.7224,14.8381,14.8919,13.8553,13.8553,13.8553,13.7325,0.0,13.5418,13.0793,12.3343,12.4856,12.7111,13.0115,13.3753,13.5418,13.5331,13.4607,13.4279,13.4279,13.3555,13.4344,13.6667,14.0898,14.4054,14.6224,15.1352,15.3785,15.3785,15.5256,15.5913,15.5913,15.5913,15.5519,15.4771,15.4113,15.339,15.2691,15.2691,15.302,15.3719,15.3086,15.3086,15.3653,15.2362,15.0521,14.8417,14.9074,0.0,0.0,0.0,0.0,0.0,0.0,0.0,0.0,0.0,0.0,12.9827,12.5554,12.3404,12.4124,12.3929,12.5449,12.9293,12.8929,12.7605,12.5221,12.8023,12.9545,12.8644,13.0041,13.1867,13.4008,13.5501,13.6716,13.754,13.9513,14.0655,14.0108,14.1755,14.2752,14.2235,14.3957,14.5146,14.4298,14.6257,14.7609,14.7765,14.8353,14.9029,14.9742,14.9362,14.9116,14.9858,15.0062,15.0062,14.9914,14.9212,14.8738,14.8598,14.7393,14.6392,14.6237,14.5566,14.502,14.502,14.502,14.4954,14.4954,14.502,14.5227,14.5993,14.6237,14.648,14.7345,14.815,14.8612,13.349,13.349,13.349,13.3008,13.2306,13.2569,12.7242,11.8497,11.8497,12.1127,12.5862,13.0596,13.2614,13.27,13.2963,13.3226,13.3555,13.4957,13.6076,13.7062,14.2213,14.4866,14.5721,15.0826,15.3324,15.3456,15.4771,15.5519,15.5519,15.5782,15.519,15.3785,15.348,15.2625,15.1268,0.0,0.0,0.0,15.3061,15.3456,15.3719,15.2625,15.1071,14.914,14.9337,0.0,14.8219,14.6181,14.5063,14.5063,14.2652,0.0,0.0,0.0,0.0,0.0,0.0,0.0,0.0,0.0,0.0,0.0,12.041,11.8902,11.7741,12.1624,12.3506,12.1837,12.5525,12.8934,13.1002,13.2784,13.4355,13.555,13.7019,13.7818,13.7611,13.9347,14.0439,14.0196,14.2741,14.4456,14.411,14.5822,14.6973,14.7265,14.7656,14.832,14.9511,14.8704,14.8127,14.8707,14.925,14.8921,14.8688,14.8612,14.8497,14.7647,14.6473,14.5407,14.493,14.3786,14.2989,14.3032,14.2901,14.3055,14.3408,14.3321,14.4173,14.5522,14.5883,14.6059,14.6748,14.7189,14.7418,13.0444,13.0424,13.0444,12.8209,12.4902,12.617,12.5842,12.4415,12.4481,12.4875,12.5579,12.6322,12.6716,12.6762,12.7986,12.9236,13.051,13.1911,13.4673,13.8465,14.1644,14.4494,14.697,15.0324,15.1926,15.1926,15.3324,15.3982,15.4048,15.5321,15.5124,15.3785,15.2494,15.1179,14.9732,14.8417,14.7825,14.8022,15.0587,15.2494,15.3719,15.3587,15.1549,14.7759,14.8745,14.7693,14.3968,14.4514,14.2805,13.8114,13.6317,13.4805,13.3379,12.8603,12.4086,0.0,11.6021,0.0,0.0,0.0,0.0,0.0,0.0,0.0,0.0,11.7341,11.8579,11.6886,12.4575,12.9171,12.8141,13.0741,13.2529,13.2736,13.4043,13.4381,13.3184,13.6635,13.8704,13.7189,13.9867,14.1254,14.0128,14.2296,14.4727,14.5973,14.6939,14.763,14.8367,14.8168,14.8871,15.1984,15.2334,15.1113,15.1235,15.0613,14.9309,14.8088,14.637,14.4975,14.3605,14.3128,14.2922,14.2902,14.2832,14.3357,14.4823,14.4879,14.5406,14.6703,14.693,14.6344,14.4874,14.5203,14.6086,12.7485,12.7506,12.7506,12.5467,12.233,12.2902,12.3185,12.3185,12.3185,12.3692,12.4395,12.4415,12.4856,12.5599,12.6276,12.6848,12.7506,12.8143,13.0333,13.3863,13.7588,14.0877,14.3748,14.8309,15.0389,15.0455,15.1926,15.2559,15.2625,15.3217,15.2386,15.0103,15.0324,14.8739,14.5524,14.4687,14.5434,14.756,14.9693,15.1727,15.3677,15.302,15.1244,14.8614,14.914,14.8548,14.6599,14.6312,14.4974,14.2521,14.0986,13.886,13.566,12.4881,11.8693,0.0,0.0,0.0,0.0,0.0,0.0,0.0,0.0,0.0,0.0,0.0,11.1468,11.3362,12.1968,12.5042,11.9097,12.2919,12.6124,12.694,12.6037,12.7515,13.2838,13.2948,13.3336,13.5183,13.8123,13.9735,13.9071,14.1643,14.3944,14.4573,14.3754,14.3474,14.4545,14.5336,14.6225,14.7547,14.7828,14.7828,14.7828,14.7198,14.6411,14.5647,14.4194,14.2947,14.2223,14.132,14.0703,14.0722,14.0703,14.0927,14.1559,14.1782,14.2259,14.3639,14.4185,14.3742,14.2676,14.3628,14.4679,12.4566,12.4349,12.1916,12.0094,11.8694,11.9126,12.0047,12.1278,12.1343,12.1935,12.2883,12.1908,12.1683,12.1946,12.0292,12.0668,12.2585,12.2585,12.5309,13.0444,13.4213,13.7632,14.092,14.5655,14.7891,14.798,14.9032,14.9887,15.0479,14.9911,14.8618,14.6868,14.6674,14.4268,13.9816,14.0635,14.2942,14.6496,14.8851,15.0997,15.2793,15.171,15.0413,14.9009,14.8614,14.8417,14.8417,14.697,14.6138,14.6049,14.2678,13.9231,13.5805,11.9882,0.0,0.0,0.0,0.0,0.0,0.0,0.0,0.0,0.0,9.953,9.015,0.0,10.5387,0.0,11.8894,12.1742,11.532,11.8356,0.0,0.0,11.8952,12.0027,12.8033,12.7597,12.7864,13.1416,13.5428,13.7918,13.7918,14.003,14.1352,14.0914,13.917,13.8643,14.0422,14.1507,14.2126,14.2549,14.269,14.2674,14.3182,14.2815,14.2431,14.2056,14.1092,14.0142,13.9708,13.8621,13.7767,13.7785,13.7785,13.7922,13.8354,13.8266,13.8775,13.9438,13.9682,13.9678,13.9724,14.0609,14.1618,12.1672,12.0817,11.161,10.911,11.1395,11.2662,11.6279,12.1212,12.1212,12.1362,12.1165,11.7541,11.4418,11.1615,10.521,0.0,11.3903,11.3987,12.032,13.1846,13.3621,13.6712,14.0789,14.2587,14.3376,14.3376,14.3507,14.4889,14.7233,14.4889,14.4391,14.5742,14.0873,13.6371,13.2869,13.6465,13.9873,14.2609,14.749,15.0104,15.0345,14.9901,14.8877,14.7365,14.6026,14.5369,14.5369,14.3945,14.3179,14.2872,13.3624,12.8018,12.7241,0.0,0.0,0.0,0.0,0.0,0.0,0.0,0.0,0.0,0.0,0.0,0.0,0.0,0.0,0.0,11.549,0.0,12.39,12.2148,0.0,0.0,0.0,11.2745,11.3329,11.9433,12.3725,12.4078,0.0,0.0,13.4865,13.5061,13.4694,13.3257,13.4116,13.5428,13.7063,13.7345,13.7863,13.9216,13.9396,13.9889,14.0961,14.0061,13.8793,13.7863,13.7294,13.679,13.562,13.5047,13.4912,13.5041,13.4928,13.5288,13.6738,13.6811,13.6589,13.5284,13.5113,13.5176,13.5265,13.5573,13.6525,11.3188,10.6545,10.255,10.1627,10.2792,10.319,10.5955,11.005,10.9848,10.9473,10.8848,10.7044,10.4869,10.239,9.9457,0.0,0.0,0.0,11.1267,12.3498,12.4785,13.0431,13.9189,14.092,14.1117,14.0394,14.206,14.3047,14.3288,14.2981,13.7411,12.6668,0.0,0.0,12.2321,12.8078,13.3144,13.7489,14.3448,14.6455,14.6251,14.7422,14.6993,14.4691,14.4011,14.3748,14.3682,14.2389,13.8838,13.2905,12.7129,12.0518,0.0,0.0,0.0,0.0,0.0,0.0,0.0,0.0,0.0,0.0,0.0,8.3536,7.8029,0.0,0.0,0.0,9.8592,10.2503,10.5588,11.0668,0.0,0.0,0.0,0.0,0.0,0.0,0.0,11.8616,12.3355,12.6664,12.7651,12.9217,12.9766,12.8385,12.9513,13.1136,13.2889,0.0,13.501,13.655,13.6762,13.6901,13.7358,13.5486,13.43,13.5261,13.5413,13.5132,13.4583,13.4513,13.4513,13.4513,13.4513,13.4709,13.5343,13.3366,13.1419,13.0755,13.1997,13.3223,13.3163,13.3838,13.4794,10.2401,0.0,0.0,0.0,0.0,9.4687,9.7167,10.103,10.0893,10.0426,9.9708,9.7857,0.0,0.0,0.0,0.0,0.0,0.0,10.5715,11.6082,12.1412,12.8364,13.669,13.8224,13.8334,13.7413,13.8114,13.7761,13.6148,13.3674,12.4932,11.0778,0.0,0.0,0.0,0.0,12.5966,13.219,13.9131,14.287,14.3342,14.5721,14.5736,14.3319,14.2065,14.1516,14.18,13.7383,13.1874,12.5188,11.8124,0.0,0.0,0.0,0.0,0.0,0.0,0.0,0.0,0.0,0.0,0.0,0.0,0.0,0.0,0.0,0.0,0.0,0.0,0.0,9.3607,10.1705,10.439,0.0,0.0,0.0,0.0,0.0,0.0,0.0,0.0,0.0,11.9015,12.2084,12.4572,0.0,0.0,12.8461,12.9741,13.0916,13.2037,13.3157,13.2873,0.0,13.2366,13.0596,13.0043,13.2336,13.2349,13.1559,13.0275,13.1135,13.15,13.0077,13.1007,13.1981,13.1785,12.8575,12.5893,12.6029,12.7376,12.865,12.909,13.0627,13.2037,0.0,0.0,0.0,0.0,0.0,0.0,0.0,0.0,9.711,9.6923,0.0,9.1301,0.0,0.0,0.0,0.0,8.5791,9.7008,0.0,0.0,12.6268,13.3182,13.2216,13.3642,13.441,13.4147,13.0066,12.7105,12.4655,11.3237,0.0,0.0,0.0,0.0,0.0,0.0,11.8721,12.6858,13.4894,14.018,14.2583,14.504,14.5662,14.4069,14.0021,13.8218,13.8762,12.7766,12.1728,12.2037,10.5091,0.0,0.0,0.0,0.0,0.0,0.0,0.0,0.0,0.0,0.0,0.0,0.0,0.0,0.0,0.0,0.0,0.0,0.0,0.0,0.0,9.9033,0.0,0.0,0.0,0.0,0.0,0.0,0.0,0.0,0.0,0.0,10.9088,11.3421,11.8617,12.3049,0.0,0.0,0.0,0.0,12.8479,12.8564,12.7288,12.6367,12.6371,12.6212,12.6579,12.8156,0.0,0.0,12.0267,12.3032,12.4556,12.0068,12.3201,12.5948,12.6004,12.2018,11.9609,12.0884,12.0292,12.0009,12.1413,12.3669,12.6133,0.0,0.0,0.0,0.0,0.0,0.0,0.0,0.0,0.0,8.167,0.0,7.8862,0.0,0.0,0.0,0.0,0.0,0.0,0.0,0.0,10.8529,11.5856,12.1391,12.408,12.3718,0.0,11.8075,11.1863,0.0,0.0,0.0,0.0,0.0,0.0,0.0,0.0,11.3649,12.1288,12.9961,13.5808,13.8423,14.0937,14.1434,13.9952,13.7475,13.3434,12.7588,11.964,11.421,0.0,0.0,0.0,0.0,0.0,0.0,0.0,0.0,0.0,0.0,0.0,0.0,0.0,0.0,0.0,0.0,0.0,0.0,0.0,0.0,0.0,0.0,0.0,9.1661,0.0,0.0,0.0,0.0,0.0,0.0,0.0,0.0,0.0,10.0496,10.8946,11.5699,11.7307,12.1299,12.437,12.5351,0.0,0.0,0.0,0.0,0.0,0.0,0.0,12.08,12.1998,11.8528,11.5301,11.4566,11.815,12.0731,11.9149,0.0,0.0,11.2782,11.0622,11.0465,11.0852,11.2095,11.3232,11.3515,11.5236,11.718,0.0,0.0,0.0,0.0,0.0,0.0,0.0,0.0,0.0,7.1651,7.065,0.0,0.0,0.0,0.0,0.0,0.0,0.0,0.0,0.0,0.0,0.0,11.0337,11.3081,0.0,0.0,0.0,0.0,0.0,0.0,0.0,0.0,0.0,0.0,0.0,0.0,10.876,11.6557,12.6144,13.2813,13.6376,13.9049,13.9637,13.813,13.5854,13.0373,12.1176,0.0,0.0,0.0,0.0,0.0,0.0,0.0,0.0,0.0,0.0,0.0,0.0,0.0,0.0,0.0,0.0,0.0,0.0,0.0,0.0,0.0,0.0,0.0,0.0,0.0,8.4375,0.0,0.0,0.0,0.0,0.0,0.0,0.0,0.0,0.0,0.0,0.0,10.9477,11.2579,11.7222,12.1031,12.3084,12.4041,12.495,0.0,0.0,0.0,0.0,0.0,0.0,0.0,0.0,0.0,0.0,0.0,0.0,0.0,0.0,11.4433,10.3766,10.152,10.1436,10.1767,0.0,0.0,0.0,0.0,0.0,0.0,0.0,0.0,0.0,0.0,0.0,0.0,0.0,0.0,0.0,6.6463,0.0,0.0,6.4193,0.0,0.0,0.0,0.0,0.0,0.0,0.0,0.0,0.0,0.0,0.0,0.0,0.0,0.0,0.0,0.0,0.0,0.0,0.0,0.0,0.0,0.0,10.4216,11.2871,12.3455,13.1411,13.6488,13.9584,14.0389,13.8833,13.4973,12.8879,12.0455,0.0,0.0,0.0,0.0,0.0,0.0,0.0,0.0,0.0,0.0,0.0,0.0,0.0,0.0,0.0,0.0,0.0,0.0,0.0,0.0,0.0,0.0,0.0,0.0,0.0,0.0,7.908,8.2976,8.5062,0.0,0.0,0.0,0.0,0.0,0.0,0.0,0.0,0.0,0.0,11.4283,11.8421,12.1476,12.3296,12.4165,12.4391,12.2999,12.1429,12.0014,12.0858,12.0335,0.0,0.0,0.0,0.0,0.0,0.0,0.0,0.0,0.0,0.0,0.0,0.0,0.0,0.0,0.0,0.0,0.0,0.0,0.0,0.0,0.0,0.0,0.0,0.0,0.0,0.0,0.0,0.0,0.0,0.0,0.0,0.0,0.0,0.0,0.0,0.0,0.0,0.0,0.0,0.0,0.0,0.0,0.0,0.0,0.0,0.0,0.0,0.0,0.0,0.0,0.0,0.0,0.0,0.0,10.1807,11.1198,12.0185,12.8073,13.5033,13.644,13.7199,13.7198,13.1945,12.4558,0.0,0.0,0.0,0.0,0.0,0.0,0.0,0.0,0.0,0.0,0.0,0.0,0.0,0.0,0.0,0.0,0.0,0.0,0.0,0.0,0.0,0.0,0.0,0.0,0.0,0.0,0.0,0.0,8.4426,8.3847,8.0224,0.0,0.0,0.0,0.0,0.0,0.0,0.0,0.0,0.0,0.0,11.5305,11.8361,11.829,11.8278,11.9372,11.8207,11.7351,11.8005,11.6649,11.4734,11.2214,0.0,0.0,0.0,0.0,0.0,0.0,0.0,0.0,0.0,0.0,0.0,0.0,0.0,0.0,0.0,0.0,0.0,0.0,0.0,0.0,0.0,0.0,0.0,0.0,0.0,0.0,0.0,0.0,0.0,0.0,0.0,0.0,0.0,0.0,0.0,0.0,0.0,0.0,0.0,0.0,0.0,0.0,0.0,0.0,0.0,0.0,0.0,0.0,0.0,0.0,0.0,0.0,0.0,10.0296,10.8591,11.8176,12.642,13.3049,13.4212,13.4635,13.4694,12.8384,12.007,0.0,0.0,0.0,0.0,0.0,0.0,0.0,0.0,0.0,0.0,0.0,0.0,0.0,0.0,0.0,0.0,0.0,0.0,0.0,0.0,0.0,0.0,0.0,0.0,0.0,0.0,0.0,0.0,7.9027,7.9972,7.7871,0.0,0.0,0.0,0.0,0.0,0.0,0.0,0.0,0.0,0.0,10.9469,11.26,11.3243,0.0,0.0,11.5125,11.4291,11.7006,11.5804,11.301,10.8444,10.5591,0.0,0.0,0.0,0.0,0.0,0.0,0.0,0.0,0.0,0.0,0.0,0.0,0.0,0.0,0.0,0.0,0.0,0.0,0.0,0.0,0.0,0.0,0.0,0.0,0.0,0.0,0.0,0.0,0.0,0.0,0.0,0.0,0.0,0.0,0.0,0.0,0.0,0.0,0.0,0.0,0.0,0.0,0.0,0.0,0.0,0.0,0.0,0.0,0.0,0.0,0.0,0.0,0.0,10.5722,11.7177,12.5782,13.1347,13.272,13.277,13.1428,12.4727,11.593,0.0,0.0,0.0,0.0,0.0,0.0,0.0,0.0,0.0,0.0,0.0,0.0,0.0,0.0,0.0,0.0,0.0,0.0,0.0,0.0,0.0,0.0,0.0,0.0,0.0,0.0,0.0,0.0,0.0,0.0,0.0,0.0,0.0,0.0,0.0,0.0,0.0,0.0,0.0,0.0,0.0,10.2244,10.5727,10.8261,11.1424,0.0,11.2738,11.1292,11.5493,11.6184,11.3247,10.4398,0.0,0.0,0.0,0.0,0.0,0.0,0.0,0.0,0.0,0.0,0.0,0.0,0.0,0.0,0.0,0.0,0.0,0.0,0.0,0.0,0.0,0.0,0.0,0.0,0.0,0.0,0.0,0.0,0.0,0.0,0.0,0.0,0.0,0.0,0.0,0.0,0.0,0.0,0.0,0.0,0.0,0.0,0.0,0.0,0.0,0.0,0.0,0.0,0.0,0.0,0.0,0.0,0.0,0.0,10.5937,11.491,12.3237,13.0679,13.1535,13.1397,13.0624,12.4208,0.0,0.0,0.0,0.0,0.0,0.0,0.0,0.0,0.0,0.0,0.0,0.0,0.0,0.0,0.0,0.0,0.0,0.0,0.0,0.0,0.0,0.0,0.0,0.0,0.0,0.0,0.0,6.1137,0.0,0.0,0.0,0.0,0.0,0.0,0.0,0.0,0.0,0.0,0.0,0.0,0.0,0.0,10.058,10.8234,10.5053,10.349,0.0,0.0,10.2252,10.3559,10.4583,10.3746,0.0,0.0,0.0,0.0,0.0,0.0,0.0,0.0,0.0,0.0,0.0,0.0,0.0,0.0,0.0,0.0,0.0,0.0,0.0,0.0,0.0,0.0,0.0,0.0,0.0,0.0,0.0,0.0,0.0,0.0,0.0,0.0,0.0,0.0,0.0,0.0,0.0,0.0,0.0,0.0,0.0,0.0,0.0,0.0,0.0,0.0,0.0,0.0,0.0,0.0,0.0,0.0,0.0,0.0,9.4729,10.6469,11.2811,12.0957,13.0677,13.0384,12.9845,12.9699,12.3325,11.4843,0.0,0.0,0.0,0.0,0.0,0.0,0.0,0.0,0.0,0.0,0.0,0.0,0.0,0.0,0.0,0.0,0.0,0.0,0.0,0.0,0.0,0.0,0.0,0.0,0.0,0.0,0.0,0.0,0.0,0.0,0.0,0.0,0.0,0.0,0.0,0.0,0.0,0.0,0.0,0.0,0.0,0.0,10.1825,9.8765,0.0,0.0,0.0,9.7686,9.9792,0.0,0.0,0.0,0.0,0.0,0.0,0.0,0.0,0.0,0.0,0.0,0.0,0.0,0.0,0.0,0.0,0.0,0.0,0.0,0.0,0.0,0.0,0.0,0.0,0.0,0.0,0.0,0.0,0.0,0.0,0.0,0.0,0.0,0.0,0.0,0.0,0.0,0.0,0.0,0.0,0.0,0.0,0.0,0.0,0.0,0.0,0.0,0.0,0.0,0.0,0.0,0.0,0.0,0.0,0.0,0.0,0.0,10.7094,11.1795,11.9726,13.0713,12.9506,12.8582,12.8721,12.315,11.524,0.0,0.0,0.0,0.0,0.0,0.0,0.0,0.0,0.0,0.0,0.0,0.0,0.0,0.0,0.0,0.0,0.0,0.0,0.0,0.0,0.0,0.0,0.0,0.0,0.0,0.0,0.0,0.0,0.0,0.0,0.0,0.0,0.0,0.0,0.0,0.0,0.0,0.0,0.0,0.0,0.0,9.3067,9.2734,9.2043,9.2562,0.0,0.0,9.4849,9.9052,9.94,0.0,0.0,0.0,0.0,0.0,0.0,0.0,0.0,0.0,0.0,0.0,0.0,0.0,0.0,0.0,0.0,0.0,0.0,0.0,0.0,0.0,0.0,0.0,0.0,0.0,0.0,0.0,0.0,0.0,0.0,0.0,0.0,0.0,0.0,0.0,0.0,0.0,0.0,0.0,0.0,0.0,0.0,0.0,0.0,0.0,0.0,0.0,0.0,0.0,0.0,0.0,0.0,0.0,0.0,0.0,0.0,10.7792,11.5291,12.2869,13.0343,13.0176,12.9751,12.9593,12.6932,11.9475,0.0,0.0,0.0,0.0,0.0,0.0,0.0,0.0,0.0,0.0,0.0,0.0,0.0,0.0,0.0,0.0,0.0,0.0,0.0,0.0,0.0,0.0,0.0,0.0,0.0,0.0,0.0,0.0,0.0,0.0,0.0,0.0,0.0,0.0,0.0,0.0,0.0,0.0,0.0,0.0,0.0,8.8983,9.4776,9.1525,0.0,0.0,0.0,0.0,9.0114,8.8311,0.0,0.0,0.0,0.0,0.0,0.0,0.0,0.0,0.0,0.0,0.0,0.0,0.0,0.0,0.0,0.0,0.0,0.0,0.0,0.0,0.0,0.0,0.0,0.0,0.0,0.0,0.0,0.0,0.0,0.0,0.0,0.0,0.0,0.0,0.0,0.0,0.0,0.0,0.0,0.0,0.0,0.0,0.0,0.0,0.0,0.0,0.0,0.0,0.0,0.0,0.0,0.0,0.0,0.0,0.0,0.0,10.972,11.4066,12.1177,13.1763,13.1222,13.0649,13.0454,12.854,12.0845,0.0,0.0,0.0,0.0,0.0,0.0,0.0,0.0,0.0,0.0,0.0,0.0,0.0,0.0,0.0,0.0,0.0,0.0,0.0,0.0,0.0,0.0,0.0,0.0,0.0,0.0,0.0,0.0,0.0,0.0,0.0,0.0,0.0,0.0,0.0,0.0,0.0,0.0,0.0,0.0,8.3627,8.6058,9.1436,0.0,0.0,0.0,0.0,0.0,0.0,8.39,8.2403,0.0,0.0,0.0,0.0,0.0,0.0,0.0,0.0,0.0,0.0,0.0,0.0,0.0,0.0,0.0,0.0,0.0,0.0,0.0,0.0,0.0,0.0,0.0,0.0,0.0,0.0,0.0,0.0,0.0,0.0,0.0,0.0,0.0,0.0,0.0,0.0,0.0,0.0,0.0,0.0,0.0,0.0,0.0,0.0,0.0,0.0,0.0,0.0,0.0,0.0,0.0,0.0,0.0,0.0,0.0,11.124,11.1569,11.8521,13.2345,13.1278,13.0577,13.0724,12.8736,12.0618,10.6277,0.0,0.0,0.0,0.0,0.0,0.0,0.0,0.0,0.0,0.0,0.0,0.0,0.0,0.0,0.0,0.0,0.0,0.0,0.0,0.0,0.0,0.0,0.0,0.0,0.0,0.0,0.0,0.0,0.0,0.0,0.0,0.0,0.0,0.0,0.0,0.0,0.0,0.0,0.0,8.0568,8.3097,0.0,0.0,0.0,0.0,0.0,0.0,0.0,0.0,8.1213,0.0,0.0,0.0,0.0,0.0,0.0,0.0,0.0,0.0,0.0,0.0,0.0,0.0,0.0,0.0,0.0,0.0,0.0,0.0,0.0,0.0,0.0,0.0,0.0,0.0,0.0,0.0,0.0,0.0,0.0,0.0,0.0,0.0,0.0,0.0,0.0,0.0,0.0,0.0,0.0,0.0,0.0,0.0,0.0,0.0,0.0,0.0,0.0,0.0,0.0,0.0,0.0,0.0,0.0,0.0,0.0,11.1232,11.8706,12.7552,12.7741,12.8086,12.9003,12.7266,11.932,10.4894,0.0,0.0,0.0,0.0,0.0,0.0,0.0,0.0,0.0,0.0,0.0,0.0,0.0,0.0,0.0,0.0,0.0,0.0,0.0,0.0,0.0,0.0,0.0,0.0,0.0,0.0,0.0,0.0,0.0,0.0,0.0,0.0,0.0,0.0,0.0,0.0,0.0,0.0,6.9273,7.3994,0.0,0.0,0.0,0.0,0.0,0.0,0.0,0.0,7.9152,0.0,0.0,0.0,0.0,0.0,0.0,0.0,0.0,0.0,0.0,0.0,0.0,0.0,0.0,0.0,0.0,0.0,0.0,0.0,0.0,0.0,0.0,0.0,0.0,0.0,0.0,0.0,0.0,0.0,0.0,0.0,0.0,0.0,0.0,0.0,0.0,0.0,0.0,0.0,0.0,0.0,0.0,0.0,0.0,0.0,0.0,0.0,0.0,0.0,0.0,0.0,0.0,0.0,0.0,0.0,0.0,0.0,0.0,11.5412,12.5307,12.6495,12.7573,12.8598,12.0865,11.1369,0.0,0.0,0.0,0.0,0.0,0.0,0.0,0.0,0.0,0.0,0.0,0.0,0.0,0.0,0.0,0.0,0.0,0.0,0.0,0.0,0.0,0.0,0.0,0.0,0.0,0.0,0.0,0.0,0.0,0.0,0.0,0.0,0.0,0.0,0.0,0.0,0.0,0.0,0.0,0.0,0.0,0.0,0.0,0.0,0.0,0.0,0.0,0.0,0.0,0.0,0.0,0.0,0.0,0.0,0.0,0.0,0.0,0.0,0.0,0.0,0.0,0.0,0.0,0.0,0.0,0.0,0.0,0.0,0.0,0.0,0.0,0.0,0.0,0.0,0.0,0.0,0.0,0.0,0.0,0.0,0.0,0.0,0.0,0.0,0.0,0.0,0.0,0.0,0.0,0.0,0.0,0.0,0.0,0.0,0.0,0.0,0.0,0.0,0.0,0.0,0.0,0.0,0.0,0.0,0.0,0.0,0.0,0.0,11.1902,12.2762,12.5282,12.7078,12.8148,11.4551,10.3785,0.0,0.0,0.0,0.0,0.0,0.0,0.0,0.0,0.0,0.0,0.0,0.0,0.0,0.0,0.0,0.0,0.0,0.0,0.0,0.0,0.0,0.0,0.0,0.0,0.0,0.0,0.0,0.0,0.0,0.0,0.0,0.0,0.0,0.0,0.0,0.0,0.0,0.0,0.0,0.0,0.0,0.0,0.0,0.0,0.0,0.0,0.0,0.0,7.2129,0.0,0.0,0.0,0.0,0.0,0.0,0.0,0.0,0.0,0.0,0.0,0.0,0.0,0.0,0.0,0.0,0.0,0.0,0.0,0.0,0.0,0.0,0.0,0.0,0.0,0.0,0.0,0.0,0.0,0.0,0.0,0.0,0.0,0.0,0.0,0.0,0.0,0.0,0.0,0.0,0.0,0.0,0.0,0.0,0.0,0.0,0.0,0.0,0.0,0.0,0.0,0.0,0.0,0.0,0.0,0.0,0.0,0.0,0.0,11.0284,11.8028,12.2511,12.495,12.4677,11.155,10.134,0.0,0.0,0.0,0.0,0.0,0.0,0.0,0.0,0.0,0.0,0.0,0.0,0.0,0.0,0.0,0.0,0.0,0.0,0.0,0.0,0.0,0.0,0.0,0.0,0.0,0.0,0.0,0.0,0.0,0.0,0.0,0.0,0.0,0.0,0.0,0.0,0.0,0.0,0.0,0.0,0.0,0.0,0.0,0.0,0.0,0.0,0.0,0.0,0.0,0.0,0.0,0.0,0.0,0.0,0.0,0.0,0.0,0.0,0.0,0.0,0.0,0.0,0.0,0.0,0.0,0.0,0.0,0.0,0.0,0.0,0.0,0.0,0.0,0.0,0.0,0.0,0.0,0.0,0.0,0.0,0.0,0.0,0.0,0.0,0.0,0.0,0.0,0.0,0.0,0.0,0.0,0.0,0.0,0.0,0.0,0.0,0.0,0.0,0.0,0.0,0.0,0.0,0.0,0.0,0.0,0.0,0.0,0.0,10.2896,11.2073,11.761,11.9586,11.7754,10.4476,9.5619,0.0,0.0,0.0,0.0,0.0,0.0,0.0,0.0,0.0,0.0,0.0,0.0,0.0,0.0,0.0,0.0,0.0,0.0,0.0,0.0,0.0,0.0,0.0,0.0,0.0,0.0,0.0,0.0,0.0,0.0,0.0,0.0,0.0,0.0,0.0,0.0,0.0,0.0,0.0,0.0,0.0,0.0,0.0,0.0,0.0,0.0,0.0,0.0,0.0,0.0,0.0,0.0,0.0,0.0,0.0,0.0,0.0,0.0,0.0,0.0,0.0,0.0,0.0,0.0,0.0,0.0,0.0,0.0,0.0,0.0,0.0,0.0,0.0,0.0,0.0,0.0,0.0,0.0,0.0,0.0,0.0,0.0,0.0,0.0,0.0,0.0,0.0,0.0,0.0,0.0,0.0,0.0,0.0,0.0,0.0,0.0,0.0,0.0,0.0,0.0,0.0,0.0,0.0,0.0,0.0,0.0,0.0,0.0,0.0,10.5808,11.1903,11.3093,10.8976,9.7938,8.9996,0.0,0.0,0.0,0.0,0.0,0.0,0.0,0.0,0.0,0.0,0.0,0.0,0.0,0.0,0.0,0.0,0.0,0.0,0.0,0.0,0.0,0.0,0.0,0.0,0.0,0.0,0.0,0.0,0.0,0.0,0.0,0.0,0.0,0.0,0.0,0.0,0.0,0.0,0.0,0.0,0.0,0.0,0.0,0.0,0.0,0.0,0.0,0.0,0.0,0.0,0.0,0.0,0.0,0.0,0.0,0.0,0.0,0.0,0.0,0.0,0.0,0.0,0.0,0.0,0.0,0.0,0.0,0.0,0.0,0.0,0.0,0.0,0.0,0.0,0.0,0.0,0.0,0.0,0.0,0.0,0.0,0.0,0.0,0.0,0.0,0.0,0.0,0.0,0.0,0.0,0.0,0.0,0.0,0.0,0.0,0.0,0.0,0.0,0.0,0.0,0.0,0.0,0.0,0.0,0.0,0.0,0.0,0.0,0.0,9.9623,10.5462,10.5622,9.9689,9.3501,8.5347,0.0,0.0,0.0,0.0,0.0,0.0,0.0,0.0,0.0,0.0,0.0,0.0,0.0,0.0,0.0,0.0,0.0,0.0,0.0,0.0,0.0,0.0,0.0,0.0,0.0,0.0,0.0,0.0,0.0,0.0,0.0,0.0,0.0,0.0,0.0,0.0,0.0,0.0,0.0,0.0,0.0,0.0,0.0,0.0,0.0,0.0,0.0,0.0,0.0,0.0,0.0,0.0,0.0,0.0,0.0,0.0,0.0,0.0,0.0,0.0,0.0,0.0,0.0,0.0,0.0,0.0,0.0,0.0,0.0,0.0,0.0,0.0,0.0,0.0,0.0,0.0,0.0,0.0,0.0,0.0,0.0,0.0,0.0,0.0,0.0,0.0,0.0,0.0,0.0,0.0,0.0,0.0,0.0,0.0,0.0,0.0,0.0,0.0,0.0,0.0,0.0,0.0,0.0,0.0,0.0,0.0,0.0,0.0,0.0,8.4134,9.1188,9.45,9.3219,8.5527,8.0317,7.7932,0.0,0.0,0.0,0.0,0.0,0.0,0.0,0.0,0.0,0.0,0.0,0.0,0.0,0.0,0.0,0.0,0.0,0.0,0.0,0.0,0.0,0.0,0.0,0.0,0.0,0.0,0.0,0.0,0.0,0.0,0.0,0.0,0.0,0.0,0.0,0.0,0.0,0.0,0.0,0.0,0.0,0.0,0.0,0.0,0.0,0.0,0.0,0.0,0.0,0.0,0.0,0.0,0.0,0.0,0.0,0.0,0.0,0.0,0.0,0.0,0.0,0.0,0.0,0.0,0.0,0.0,0.0,0.0,0.0,0.0,0.0,0.0,0.0,0.0,0.0,0.0,0.0,0.0,0.0,0.0,0.0,0.0,0.0,0.0,0.0,0.0,0.0,0.0,0.0,0.0,0.0,0.0,0.0,0.0,0.0,0.0,0.0,0.0,0.0,0.0,0.0,0.0,0.0,0.0,0.0,0.0,0.0,0.0,7.7385,8.4921,8.85,8.7472,8.0815,7.6439,0.0,0.0,0.0,0.0,0.0,0.0,0.0,0.0,0.0,0.0,0.0,0.0,0.0,0.0,0.0,0.0,0.0,0.0,0.0,0.0,0.0,0.0,0.0,0.0,0.0,0.0,0.0,0.0,0.0,0.0,0.0,0.0,0.0,0.0,0.0,0.0,0.0,0.0,0.0,0.0,0.0,0.0,0.0,0.0,0.0,0.0,0.0,0.0,0.0,0.0,0.0,0.0,0.0,0.0,0.0,0.0,0.0,0.0,0.0,0.0,0.0,0.0,0.0,0.0,0.0,0.0,0.0,0.0,0.0,0.0,0.0,0.0,0.0,0.0,0.0,0.0,0.0,0.0,0.0,0.0,0.0,0.0,0.0,0.0,0.0,0.0,0.0,0.0,0.0,0.0,0.0,0.0,0.0,0.0,0.0,0.0,0.0,0.0,0.0,0.0,0.0,0.0,0.0,0.0,0.0,0.0,0.0,0.0,7.2855,8.27,8.8649,8.8605,8.3111,8.0241,7.3853,0.0,0.0,0.0,0.0,0.0,0.0,0.0,0.0,0.0,0.0,0.0,0.0,0.0,0.0,0.0,0.0,0.0,0.0,0.0,0.0,0.0,0.0,0.0,0.0,0.0,0.0,0.0,0.0,0.0,0.0,0.0,0.0,0.0,0.0,0.0,0.0,0.0,0.0,0.0,0.0,0.0,0.0,0.0,0.0,0.0,0.0,0.0,0.0,0.0,0.0,0.0,0.0,0.0,0.0,0.0,0.0,0.0,0.0,0.0,0.0,0.0,0.0,0.0,0.0,0.0,0.0,0.0,0.0,0.0,0.0,0.0,0.0,0.0,0.0,0.0,0.0,0.0,0.0,0.0,0.0,0.0,0.0,0.0,0.0,0.0,0.0,0.0,0.0,0.0,0.0,0.0,0.0,0.0,0.0,0.0,0.0,0.0,0.0,0.0,0.0,0.0,0.0,0.0,0.0,0.0,0.0,0.0,0.0,0.0,7.2889,0.0,8.0966,0.0,7.6116,7.2226,0.0,0.0,0.0,0.0,0.0,0.0,0.0,0.0,0.0,0.0,0.0,0.0,0.0,0.0,0.0,0.0,0.0,0.0,0.0,0.0,0.0,0.0,0.0,0.0,0.0,0.0,0.0,0.0,0.0,0.0,0.0,0.0,0.0,0.0,0.0,0.0,0.0,0.0,0.0,0.0,0.0,0.0,0.0,0.0,0.0,0.0,0.0,0.0,0.0,0.0,0.0,0.0,0.0,0.0,0.0,0.0,0.0,0.0,0.0,0.0,0.0,0.0,0.0,0.0,0.0,0.0,0.0,0.0,0.0,0.0,0.0,0.0,0.0,0.0,0.0,0.0,0.0,0.0,0.0,0.0,0.0,0.0,0.0,0.0,0.0,0.0,0.0,0.0,0.0,0.0,0.0,0.0,0.0,0.0,0.0,0.0,0.0,0.0,0.0,0.0,0.0,0.0,0.0,0.0,0.0,0.0,0.0,0.0,0.0,7.1602,7.3593,7.5973,0.0,7.4218,7.1279,0.0,0.0,0.0,0.0,0.0,0.0,0.0,0.0,0.0,0.0,0.0,0.0,0.0,0.0,0.0,0.0,0.0,0.0,0.0,0.0,0.0,0.0,0.0,0.0,0.0,0.0,0.0,0.0,0.0,0.0,0.0,0.0,0.0,0.0,0.0,0.0,0.0,0.0,0.0,0.0,0.0,0.0,0.0,0.0,0.0,0.0,0.0,0.0,0.0,0.0,0.0,0.0,0.0,0.0,0.0,0.0,0.0,0.0,0.0,0.0,0.0,0.0,0.0,0.0,0.0,0.0,0.0,0.0,0.0,0.0,0.0,0.0,0.0,0.0,0.0,0.0,0.0,0.0,0.0,0.0,0.0,0.0,0.0,0.0,0.0,0.0,0.0,0.0,0.0,0.0,0.0,0.0,0.0,0.0,0.0,0.0,0.0,0.0,0.0,0.0,0.0,0.0,0.0,0.0,0.0,0.0,0.0,0.0,0.0,0.0,7.38,7.3847,7.8086,7.4479,7.0667,0.0,0.0,0.0,0.0,0.0,0.0,0.0,0.0,0.0,0.0,0.0,0.0,0.0,0.0,0.0,0.0,0.0,0.0,0.0,0.0,0.0,0.0,0.0,0.0,0.0,0.0,0.0,0.0,0.0,0.0,0.0,0.0,0.0,0.0,0.0,0.0,0.0,0.0,0.0,0.0,0.0,0.0,0.0,0.0,0.0,0.0,0.0,0.0,0.0,0.0,0.0,0.0,0.0,0.0,0.0,0.0,0.0,0.0,0.0,0.0,0.0,0.0,0.0,0.0,0.0,0.0,0.0,0.0,0.0,0.0,0.0,0.0,0.0,0.0,0.0,0.0,0.0,0.0,0.0,0.0,0.0,0.0,0.0,0.0,0.0,0.0,0.0,0.0,0.0,0.0,0.0,0.0,0.0,0.0,0.0,0.0,0.0,0.0,0.0,0.0,0.0,0.0,0.0,0.0,0.0,0.0,0.0,0.0,0.0,0.0,6.9499,0.0,7.5079,7.2204,6.8414,6.4259,0.0,0.0,0.0,0.0,0.0,0.0,0.0,0.0,0.0,0.0,0.0,0.0,0.0,0.0,0.0,0.0,0.0,0.0,0.0,0.0,0.0,0.0,0.0,0.0,0.0,0.0,0.0,0.0,0.0,0.0,0.0,0.0,0.0,0.0,0.0,0.0,0.0,0.0,0.0,0.0,0.0,0.0,0.0,0.0,0.0,0.0,0.0,0.0,0.0,0.0,0.0,0.0,0.0,0.0,0.0,0.0,0.0,0.0,0.0,0.0,0.0,0.0,0.0,0.0,0.0,0.0,0.0,0.0,0.0,0.0,0.0,0.0,0.0,0.0,0.0,0.0,0.0,0.0,0.0,0.0,0.0,0.0,0.0,0.0,0.0,0.0,0.0,0.0,0.0,0.0,0.0,0.0,0.0,0.0,0.0,0.0,0.0,0.0,0.0,0.0,0.0,0.0,0.0,0.0,0.0,0.0,0.0,0.0,0.0,0.0,0.0,7.3412,7.0963,6.7746,0.0,0.0,0.0,0.0,0.0,0.0,0.0,0.0,0.0,0.0,0.0,0.0,0.0,0.0,0.0,0.0,0.0,0.0,0.0,0.0,0.0,0.0,0.0,0.0,0.0,0.0,0.0,0.0,0.0,0.0,0.0,0.0,0.0,0.0,0.0,0.0,0.0,0.0,0.0,0.0,0.0,0.0,0.0,0.0,0.0,0.0,0.0,0.0,0.0,0.0,0.0,0.0,0.0,0.0,0.0,0.0,0.0,0.0,0.0,0.0,0.0,0.0,0.0,0.0,0.0,0.0,0.0,0.0,0.0,0.0,0.0,0.0,0.0,0.0,0.0,0.0,0.0,0.0,0.0,0.0,0.0,0.0,0.0,0.0,0.0,0.0,0.0,0.0,0.0,0.0,0.0,0.0,0.0,0.0,0.0,0.0,0.0,0.0,0.0,0.0,0.0,0.0,0.0,0.0,0.0,0.0,0.0,0.0,0.0,0.0,0.0,6.7803,7.1682,7.0755,0.0,6.4857,0.0,0.0,0.0,0.0,0.0,0.0,0.0,0.0,0.0,0.0,0.0,0.0,0.0,0.0,0.0,0.0,0.0,0.0,0.0,0.0,0.0,0.0,0.0,0.0,0.0,0.0,0.0,0.0,0.0,0.0,0.0,0.0,0.0,0.0,0.0,0.0,0.0,0.0,0.0,0.0,0.0,0.0,0.0,0.0,0.0,0.0,0.0,0.0,0.0,0.0,0.0,0.0,0.0,0.0,0.0,0.0,0.0,0.0,0.0,0.0,0.0,0.0,0.0,0.0,0.0,0.0,0.0,0.0,0.0,0.0,0.0,0.0,0.0,0.0,0.0,0.0,0.0,0.0,0.0,0.0,0.0,0.0,0.0,0.0,0.0,0.0,0.0,0.0,0.0,0.0,0.0,0.0,0.0,0.0,0.0,0.0,0.0,0.0,0.0,0.0,0.0,0.0,0.0,0.0,0.0,0.0,0.0,0.0,0.0,0.0,0.0,0.0,7.2552,7.1027,6.419,0.0,0.0,0.0,0.0,0.0,0.0,0.0,0.0,0.0,0.0,0.0,0.0,0.0,0.0,0.0,0.0,0.0,0.0,0.0,0.0,0.0,0.0,0.0,0.0,0.0,0.0,0.0,0.0,0.0,0.0,0.0,0.0,0.0,0.0,0.0,0.0,0.0,0.0,0.0,0.0,0.0,0.0,0.0,0.0,0.0,0.0,0.0,0.0,0.0,0.0,0.0,0.0,0.0,0.0,0.0,0.0,0.0,0.0,0.0,0.0,0.0,0.0,0.0,0.0,0.0,0.0,0.0,0.0,0.0,0.0,0.0,0.0,0.0,0.0,0.0,0.0,0.0,0.0,0.0,0.0,0.0,0.0,0.0,0.0,0.0,0.0,0.0,0.0,0.0,0.0,0.0,0.0,0.0,0.0,0.0,0.0,0.0,0.0,0.0,0.0,0.0,0.0,0.0,0.0,0.0,0.0,0.0,0.0,0.0,0.0,6.9554,6.7557,7.0541,6.9127,6.2689,0.0,0.0,0.0,0.0,0.0,0.0,0.0,0.0,0.0,0.0,0.0,0.0,0.0,0.0,0.0,0.0,0.0,0.0,0.0,0.0,0.0,0.0,0.0,0.0,0.0,0.0,0.0,0.0,0.0,0.0,0.0,0.0,0.0,0.0,0.0,0.0,0.0,0.0,0.0,0.0,0.0,0.0,0.0,0.0,0.0,0.0,0.0,0.0,0.0,0.0,0.0,0.0,0.0,0.0,0.0,0.0,0.0,0.0,0.0,0.0,0.0,0.0,0.0,0.0,0.0,0.0,0.0,0.0,0.0,0.0,0.0,0.0,0.0,0.0,0.0,0.0,0.0,0.0,0.0,0.0,0.0,0.0,0.0,0.0,0.0,0.0,0.0,0.0,0.0,0.0,0.0,0.0,0.0,0.0,0.0,0.0,0.0,0.0,0.0,0.0,0.0,0.0,0.0,0.0,0.0,0.0,0.0,0.0,0.0,0.0,0.0,0.0,0.0,0.0,6.187,0.0,0.0,0.0,0.0,0.0,0.0,0.0,0.0,0.0,0.0,0.0,0.0,0.0,0.0,0.0,0.0,0.0,0.0,0.0,0.0,0.0,0.0,0.0,0.0,0.0,0.0,0.0,0.0,0.0,0.0,0.0,0.0,0.0,0.0,0.0,0.0,0.0,0.0,0.0,0.0,0.0,0.0,0.0,0.0,0.0,0.0,0.0,0.0,0.0,0.0,0.0,0.0,0.0,0.0,0.0,0.0,0.0,0.0,0.0,0.0,0.0,0.0,0.0,0.0,0.0,0.0,0.0,0.0,0.0,0.0,0.0,0.0,0.0,0.0,0.0,0.0,0.0,0.0,0.0,0.0,0.0,0.0,0.0,0.0,0.0,0.0,0.0,0.0,0.0,0.0,0.0,0.0,0.0,0.0,0.0,0.0,0.0,0.0,0.0,0.0,0.0,0.0,0.0,0.0,0.0,0.0,0.0,0.0,0.0,0.0,0.0,0.0,0.0,0.0,0.0,0.0,0.0,0.0,0.0,0.0,0.0,0.0,0.0,0.0,0.0,0.0,0.0,0.0,0.0,0.0,0.0,0.0,0.0,0.0,0.0,0.0,0.0,0.0,0.0,0.0,0.0,0.0,0.0,0.0,0.0,0.0,0.0,0.0,0.0,0.0,0.0,0.0,0.0,0.0,0.0,0.0,0.0,0.0,0.0,0.0,0.0,0.0,0.0,0.0,0.0,0.0,0.0,0.0,0.0,0.0,0.0,0.0,0.0,0.0,0.0,0.0,0.0,0.0,0.0,0.0,0.0,0.0,0.0,0.0,0.0,0.0,0.0,0.0,0.0,0.0,0.0,0.0,0.0,0.0,0.0,0.0,0.0,0.0,0.0,0.0,0.0,0.0,0.0,0.0,0.0,0.0,0.0,0.0,0.0,0.0,0.0,0.0,0.0,0.0,0.0,0.0,0.0,0.0,0.0,0.0,0.0,0.0,0.0,0.0,0.0,0.0,0.0,0.0,0.0,0.0,0.0,0.0,0.0,0.0,0.0,0.0,0.0,0.0,0.0,0.0,0.0,0.0,0.0,0.0,0.0,0.0,0.0,0.0,0.0,0.0,0.0,0.0,0.0,0.0,0.0,0.0,0.0,0.0,0.0,0.0,0.0,0.0,0.0,0.0,0.0,0.0,0.0,0.0,0.0,0.0,0.0,0.0,0.0,0.0,0.0,0.0,0.0,0.0,0.0,0.0,0.0,0.0,0.0,0.0,0.0,0.0,0.0,0.0,0.0,0.0,0.0,0.0,0.0,0.0,0.0,0.0,0.0,0.0,0.0,0.0,0.0,0.0,0.0,0.0,0.0,0.0,0.0,0.0,0.0,0.0,0.0,0.0,0.0,0.0,0.0,0.0,0.0,0.0,0.0,0.0,0.0,0.0,0.0,0.0,0.0,0.0,0.0,0.0,0.0,0.0,0.0,0.0,0.0,0.0,0.0,0.0,0.0,0.0,0.0,0.0,0.0,0.0,0.0,0.0,0.0,0.0,0.0,0.0,0.0,0.0,0.0,0.0,0.0,0.0,0.0,0.0,0.0,0.0,0.0,0.0,0.0,0.0,0.0,0.0,0.0,0.0,0.0,0.0,0.0,0.0,0.0,0.0,0.0,0.0,0.0,0.0,0.0,0.0,0.0,0.0,0.0,0.0,0.0,0.0,0.0,0.0,0.0,0.0,0.0,0.0,0.0,0.0,0.0,0.0,0.0,0.0,0.0,0.0,0.0,0.0,0.0,0.0,0.0,0.0,0.0,0.0,0.0,0.0,0.0,0.0,0.0,0.0,0.0,0.0,0.0,0.0,0.0,0.0,0.0,0.0,0.0,0.0,0.0,0.0,0.0,0.0,0.0,0.0,0.0,0.0,0.0,0.0,0.0,0.0,0.0,0.0,0.0,0.0,0.0,0.0,0.0,0.0,0.0,0.0,0.0,0.0,0.0,0.0,0.0,0.0,0.0,0.0,0.0,0.0,0.0,0.0,0.0,0.0,0.0,0.0,0.0,0.0,0.0,0.0,0.0,0.0,0.0,0.0,0.0,0.0,0.0,0.0,0.0,0.0,0.0,0.0,0.0,0.0,0.0,0.0,0.0,0.0,0.0,0.0,0.0,0.0,0.0,0.0,0.0,0.0,0.0,0.0,0.0,0.0,0.0,0.0,0.0,0.0,0.0,0.0,0.0,0.0,0.0,0.0,0.0,0.0,0.0,0.0,0.0,0.0,0.0,0.0,0.0,0.0,0.0,0.0,0.0,0.0,0.0,0.0,0.0,0.0,0.0,0.0,0.0,0.0,0.0,0.0,0.0,0.0,0.0,0.0,0.0,0.0,0.0,0.0,0.0,0.0,0.0,0.0,0.0,0.0,0.0,0.0,0.0,0.0,0.0,0.0,0.0,0.0,0.0,0.0,0.0,0.0,0.0,0.0,0.0,0.0,0.0,0.0,0.0,0.0,0.0,0.0,0.0,0.0,0.0,0.0,0.0,0.0,0.0,0.0,0.0,0.0,0.0,0.0,0.0,0.0,0.0,0.0,0.0,0.0,0.0,0.0,0.0,0.0,0.0,0.0,0.0,0.0,0.0,0.0,0.0,0.0,0.0,0.0,0.0,0.0,0.0,0.0,0.0,0.0,0.0,0.0,0.0,0.0,0.0,0.0,0.0,0.0,0.0,0.0,0.0,0.0,0.0,0.0,0.0,0.0,0.0,0.0,0.0,0.0,0.0,0.0,0.0,0.0,0.0,0.0,0.0,0.0,0.0,0.0,0.0,0.0,0.0,0.0,0.0,0.0,0.0,0.0,0.0,0.0,0.0,0.0,0.0,0.0,0.0,0.0,0.0,0.0,0.0,0.0,0.0,0.0,0.0,0.0,0.0,0.0,0.0,0.0,0.0,0.0,0.0,0.0,0.0,0.0,0.0,0.0,0.0,0.0,0.0,0.0,0.0,0.0,0.0,0.0,0.0,0.0,0.0,0.0,0.0,0.0,0.0,0.0,0.0,0.0,0.0,0.0,0.0,0.0,0.0,0.0,0.0,0.0,0.0,0.0,0.0,0.0,0.0,0.0,0.0,0.0,0.0,0.0,0.0,0.0,0.0,0.0,0.0,0.0,0.0,0.0,0.0,0.0,0.0,0.0,0.0,0.0,0.0,0.0,0.0,0.0,0.0,0.0,0.0,0.0,0.0,0.0,0.0,0.0,0.0,0.0,0.0,0.0,0.0,0.0,0.0,0.0,0.0,0.0,0.0,0.0,0.0,0.0,0.0,0.0,0.0,0.0,0.0,0.0,0.0,0.0,0.0,0.0,0.0,0.0,0.0,0.0,0.0,0.0,0.0,0.0,0.0,0.0,0.0,0.0,0.0,0.0,0.0,0.0,0.0,0.0,0.0,0.0,0.0,0.0,0.0,0.0,0.0,0.0,0.0,0.0,0.0,0.0,0.0,0.0,0.0,0.0,0.0,0.0,0.0,0.0,0.0,0.0,0.0,0.0,0.0,0.0,0.0,0.0,0.0,0.0,0.0,0.0,0.0,0.0,0.0,0.0,0.0,0.0,0.0,0.0,0.0,0.0,0.0,0.0,0.0,0.0,0.0,0.0,0.0,0.0,0.0,0.0,0.0,0.0,0.0,0.0,0.0,0.0,0.0,0.0,0.0,0.0,0.0,0.0,0.0,0.0,0.0,0.0,0.0,0.0,0.0,0.0,0.0,0.0,0.0,0.0,0.0,0.0,0.0,0.0,0.0,0.0,0.0,0.0,0.0,0.0,0.0,0.0,0.0,0.0,0.0,0.0,0.0,0.0,0.0,0.0,0.0,0.0,0.0,0.0,0.0,0.0,0.0,0.0,0.0,0.0,0.0,0.0,0.0,0.0,0.0,0.0,0.0,0.0,0.0,0.0,0.0,0.0,0.0,0.0,0.0,0.0,0.0,0.0,0.0,0.0,0.0,0.0,0.0,0.0,0.0,0.0,0.0,0.0,0.0,0.0,0.0,0.0,0.0,0.0,0.0,0.0,0.0,0.0,0.0,0.0,0.0,0.0,0.0,0.0,0.0,0.0,0.0,0.0,0.0,0.0,0.0,0.0,0.0,0.0,0.0,0.0,0.0,0.0,0.0,0.0,0.0,0.0,0.0,0.0,0.0,0.0,0.0,0.0,0.0,0.0,0.0,0.0,0.0,0.0,0.0,0.0,0.0,0.0,0.0,0.0,0.0,0.0,0.0,0.0,0.0,0.0,0.0,0.0,0.0,0.0,0.0,0.0,0.0,0.0,0.0,0.0,0.0,0.0,0.0,0.0,0.0,0.0,0.0,0.0,0.0,0.0,0.0,0.0,0.0,0.0]}],[{"header":{"parameterUnit":"kt","parameterCategory":2,"dx":1,"dy":1,"la1":29.587661999999998,"la2":31.0,"lo1":-88.76705300000003,"lo2":-86.6583820000003,"nx":115,"ny":88,"refTime":"2022-10-06T12:00:00:Z","depth":0,"parameterNumber":2,"parameterNumberName":"V-component_of_WINDS"},"data":[12.2077,12.2077,12.2077,12.2077,12.2077,12.2077,12.2077,12.2077,12.2077,12.2077,12.2077,12.2077,12.2077,12.2077,12.2077,12.2077,12.2077,12.2077,12.2077,12.2077,12.2077,12.2077,12.2077,12.2077,12.2077,12.2077,12.2077,12.2077,12.2077,12.2077,12.2077,12.2077,12.2077,12.1719,12.1481,12.0314,11.906,11.6695,11.538,11.497,11.2484,11.031,10.9889,10.9299,10.9299,10.9341,10.9341,10.9342,10.9341,10.9636,10.9849,11.027,11.0984,11.1734,11.2609,11.2862,11.1361,11.0648,11.0438,11.0438,11.048,11.052,11.2401,11.2737,11.2238,11.1692,10.968,10.9596,10.8581,10.7391,10.6964,10.5593,10.5162,10.4299,10.3995,10.2736,10.2079,10.2079,10.2079,10.2079,10.2079,10.2079,10.2123,10.2649,10.3823,10.6066,10.7732,10.9511,11.2567,11.2276,11.2026,11.119,11.0312,10.7945,10.5851,10.5335,10.555,10.6066,10.6751,10.705,10.7859,10.9342,10.93,10.7348,10.7902,10.8835,10.8623,10.7092,10.8835,11.0396,11.3525,11.6246,11.7799,11.9053,12.1193,12.2077,12.2077,12.2077,12.2077,12.2077,12.2077,12.2077,12.2077,12.2077,12.2077,12.2077,12.2077,12.2077,12.2077,12.2077,12.2077,12.2077,12.2077,12.2077,12.2077,12.2077,12.2077,12.2077,12.2077,12.2077,12.2077,12.2077,12.2077,12.2077,12.1998,12.1998,12.2077,12.152,12.0514,11.8366,11.7061,11.5714,11.3069,11.2029,11.1609,10.8834,10.5679,10.378,10.2518,10.2035,10.2035,10.2123,10.2166,10.221,10.3301,10.5378,10.6237,10.722,10.8581,10.9596,10.9385,10.7859,10.7007,10.6793,10.6751,10.6793,10.7519,11.0186,11.1026,11.048,10.8581,10.5205,10.3908,10.2823,10.2079,10.2123,10.1686,10.1686,10.1379,10.1379,10.1025,10.0981,10.0981,10.0981,10.0981,10.0981,10.0981,10.0981,10.0938,10.2605,10.5162,10.7093,10.8708,10.9469,10.8496,10.8157,10.7519,10.6494,10.4472,10.2254,10.1992,10.2431,10.304,10.3692,10.2649,10.2649,10.5163,10.5894,10.417,10.3258,10.3563,10.3477,10.4343,10.5205,10.6323,10.9554,11.2654,11.4476,11.7061,11.9905,12.2077,12.2077,12.2077,12.2077,12.2077,12.2077,12.2077,12.2077,12.2077,12.2077,12.2077,12.2077,12.2077,12.2077,12.2077,12.2077,12.2077,12.2077,12.2077,12.2077,12.2077,12.2077,12.2077,12.2077,12.2077,12.2077,12.2077,12.2077,12.2077,12.1878,12.0554,11.9181,11.877,11.7306,11.4228,11.3525,11.1984,10.8623,10.8496,10.7092,10.4472,10.2953,10.1025,10.0674,10.0762,10.0894,10.0674,10.0674,10.0674,10.1467,10.2254,10.3214,10.391,10.512,10.5593,10.5206,10.4602,10.3084,10.3084,10.3084,10.3084,10.3171,10.4947,10.598,10.5765,10.555,10.2166,10.1904,10.085,10.0674,10.0674,10.0674,10.0674,10.0674,10.0674,10.0674,10.0674,10.0674,10.0674,10.0674,10.0674,10.0674,10.0674,10.0674,10.1201,10.3605,10.3171,10.4299,10.4472,10.3997,10.4386,10.4255,10.3171,10.1376,10.0674,10.0674,10.0674,10.0674,10.1245,10.1113,10.1467,10.2562,10.3084,10.2431,10.1598,10.0674,10.0674,10.1686,10.2605,10.3778,10.6408,10.93,11.1737,11.4269,11.5216,12.2077,12.2077,12.2077,12.2077,12.2077,12.2077,12.2077,12.2077,12.2077,12.2077,12.2077,12.2077,12.2077,12.2077,12.2077,12.2077,12.2077,12.2077,12.2077,12.2077,12.2077,12.2077,12.2077,12.2077,12.2077,12.2077,12.2077,12.2077,12.1719,12.0714,11.9302,11.719,11.5468,11.3691,11.0396,11.0057,10.8411,10.5119,10.4731,10.3605,10.2035,10.1069,10.0674,10.0674,10.0674,10.0674,10.0674,10.0674,10.0674,10.0674,10.0674,10.0674,10.0674,10.0806,10.0806,10.0718,10.1248,10.1245,10.1245,10.1332,10.1336,10.1157,10.1069,10.0806,10.0674,10.0674,10.0718,10.0762,10.0674,10.0674,10.0674,10.0674,10.0674,10.0674,10.0674,10.0674,10.0674,10.0674,10.0674,10.0674,10.0674,10.0674,10.0674,10.0674,10.0674,10.0674,10.0674,10.085,10.1554,10.1861,10.2646,10.2385,10.0938,10.0718,10.0674,10.0674,10.0674,10.0674,10.0674,10.0674,10.0718,10.1379,10.1861,10.1025,10.0674,10.0674,10.0674,10.0674,10.0894,10.1817,10.4126,10.7093,10.9554,11.0438,11.0396,12.2077,12.2077,12.2077,12.2077,12.2077,12.2077,12.2077,12.2077,12.2077,12.2077,12.2077,12.2077,12.2077,12.2077,12.2077,12.2077,12.2077,12.2077,12.2077,12.2077,12.2077,12.2077,12.2077,12.2077,12.2077,12.2077,12.1958,12.168,12.1113,11.877,11.6817,11.6695,11.3525,11.0017,10.7093,10.658,10.5162,10.2603,10.1948,10.1729,10.0894,10.0674,10.0674,10.0674,10.0674,10.0674,10.0674,10.0674,10.0674,10.0674,10.0674,10.0674,10.0674,10.0674,10.0674,10.0674,10.0674,10.0674,10.0674,10.0674,10.0674,10.0674,10.0674,10.0674,10.0674,10.0674,10.0674,10.0674,10.0674,10.0674,10.0674,10.0674,10.0674,10.0674,10.0674,10.0674,10.0674,10.0674,10.0674,10.0674,10.0674,10.0674,10.0674,10.0674,10.0674,10.0674,10.0674,10.0674,10.0981,10.0981,10.1245,10.1157,10.0674,10.0674,10.0674,10.0674,10.0674,10.0674,10.0674,10.0674,10.0674,10.0674,10.0674,10.0674,10.0674,10.0674,10.0674,10.0674,10.0806,10.1201,10.2515,10.5076,10.5937,10.6323,10.5937,12.2077,12.2077,12.2077,12.2077,12.2077,12.2077,12.2077,12.2077,12.2077,12.2077,12.2077,12.2077,12.2077,12.2077,12.2077,12.2077,12.2077,12.2077,12.2077,12.2077,12.2077,12.2077,12.2077,12.2077,12.2077,12.2077,12.1878,12.0834,11.8204,11.5468,11.2154,11.0942,10.9342,10.6109,10.404,10.3084,10.1992,10.1288,10.0674,10.0674,10.0674,10.0674,10.0674,10.0674,10.0674,10.0674,10.0674,10.0674,10.0674,10.0674,10.0674,10.0674,10.0674,10.0674,10.0674,10.0674,10.0674,10.0674,10.0674,10.0674,10.0674,10.0674,10.0674,10.0674,10.0674,10.0674,10.0674,10.0674,10.0674,10.0674,10.0674,10.0674,10.0674,10.0674,10.0674,10.0674,10.0674,10.0674,10.0674,10.0674,10.0674,10.0674,10.0674,10.0674,10.0674,10.0674,10.0674,10.063,10.0542,10.0366,10.019,10.019,10.0322,10.0542,10.0674,10.0674,10.0674,10.0674,10.0674,10.0674,10.0674,10.0586,10.041,10.0454,10.0542,10.0674,10.0674,10.0674,10.0674,10.0806,10.1686,10.2518,10.2649,10.2825,10.1601,12.2077,12.2077,12.2077,12.2077,12.2077,12.2077,12.2077,12.2077,12.2077,12.2077,12.2077,12.2077,12.2077,12.2077,12.2077,12.2077,12.2077,12.2077,12.2077,12.2077,12.2077,12.2077,12.2077,12.2077,12.2077,12.1799,12.0714,11.906,11.645,11.3318,10.9849,10.6194,10.5378,10.3518,10.1773,10.0762,10.0806,10.0674,10.0674,10.0674,10.0674,10.0674,10.0674,10.0674,10.0674,10.0674,10.0674,10.0674,10.0674,10.0674,10.0674,10.0674,10.0674,10.0674,10.0674,10.0674,10.0674,10.0674,10.0674,10.0674,10.0674,10.0674,10.0674,10.0674,10.0674,10.0674,10.0674,10.0674,10.0674,10.0674,10.0674,10.0674,10.0674,10.0674,10.0674,10.0674,10.0674,10.0674,10.0674,10.0674,10.0674,10.0674,10.0674,10.0674,10.0674,10.0674,10.0586,10.0454,10.0234,9.9662,9.9441,9.9397,9.9573,9.9926,10.0146,10.0366,10.0498,10.0586,10.063,10.063,10.0322,10.0058,10.0058,9.997,9.9926,10.0146,10.0498,10.0674,10.0674,10.0718,10.0498,9.9882,9.9397,9.9622,9.8915,12.2077,12.2077,12.2077,12.2077,12.2077,12.2077,12.2077,12.2077,12.2077,12.2077,12.2077,12.2077,12.2077,12.2077,12.2077,12.2077,12.2077,12.2077,12.2077,12.2077,12.2077,12.2077,12.2077,12.1998,12.156,12.0714,11.9141,11.7271,11.6041,11.2113,10.8708,10.5808,10.2951,10.1642,10.1069,10.0674,10.0674,10.0674,10.0674,10.0674,10.0674,10.0674,10.0674,10.0674,10.0674,10.0674,10.0674,10.0674,10.0674,10.0674,10.0674,10.0674,10.0674,10.0674,10.0674,10.0674,10.0674,10.0674,10.0674,10.0674,10.0674,10.0674,10.0674,10.0674,10.0674,10.0674,10.0674,10.0674,10.0674,10.0674,10.0674,10.0674,10.0674,10.0674,10.0674,10.0674,10.0674,10.0674,10.0674,10.0674,10.0674,10.0674,10.0674,10.0674,10.0674,10.0498,10.0146,9.9926,9.9308,9.8822,9.8778,9.8778,9.9088,9.9441,9.9617,9.9838,9.9882,9.9662,9.9882,9.9794,9.9617,9.9308,9.9132,9.9043,9.9176,9.9573,10.0146,10.041,10.0542,10.0366,10.0102,9.9397,9.8158,9.7891,9.7586,12.2077,12.2077,12.2077,12.2077,12.2077,12.2077,12.2077,12.2077,12.2077,12.2077,12.2077,12.2077,12.2077,12.2077,12.2077,12.2077,12.2077,12.2077,12.2077,12.2077,12.2077,12.2077,12.2077,12.1998,12.0714,11.869,11.6858,11.3898,11.0522,10.8666,10.6151,10.3388,10.1332,10.0806,10.0674,10.0674,10.0674,10.0674,10.0674,10.0674,10.0674,10.0674,10.0674,10.0674,10.0674,10.0674,10.0674,10.0674,10.0674,10.0674,10.0674,10.0674,10.0674,10.0674,10.0674,10.0674,10.0674,10.0674,10.0674,10.0674,10.0674,10.0674,10.0674,10.0674,10.0674,10.0674,10.0674,10.0674,10.0674,10.0674,10.0674,10.0674,10.0674,10.0674,10.0674,10.0674,10.0674,10.0674,10.0674,10.0674,10.0674,10.0674,10.0674,10.063,10.0366,10.0014,9.9617,9.8955,9.8335,9.8246,9.8246,9.8512,9.8822,9.8822,9.8911,9.9176,9.9043,9.8778,9.8645,9.8468,9.8335,9.8512,9.8202,9.8025,9.8734,9.9397,9.9838,10.0014,10.0014,9.9882,9.9441,9.8335,9.7135,9.6734,9.6562,12.2077,12.2077,12.2077,12.2077,12.2077,12.2077,12.2077,12.2077,12.2077,12.2077,12.2077,12.2077,12.2077,12.2077,12.2077,12.2077,12.2077,12.2077,12.2077,12.2077,12.2077,12.2037,12.1481,12.0634,11.902,11.6817,11.3443,10.9807,10.5979,10.4731,10.269,10.142,10.085,10.0674,10.0674,10.0674,10.0674,10.0674,10.0674,10.0674,10.0674,10.0674,10.0674,10.0674,10.0674,10.0674,10.0674,10.0674,10.0674,10.0674,10.0674,10.0674,10.0674,10.0674,10.0674,10.0674,10.0674,10.0674,10.0674,10.0674,10.0674,10.0674,10.0674,10.0674,10.0674,10.0674,10.0674,10.0674,10.0674,10.0674,10.0674,10.0674,10.0674,10.0674,10.0674,10.0674,10.0674,10.0674,10.0674,10.0674,10.0674,10.0674,10.0498,10.041,9.9706,9.9176,9.8291,9.7625,9.7358,9.7402,9.7313,9.7714,9.8025,9.8025,9.8158,9.8335,9.8291,9.8202,9.7936,9.7536,9.7536,9.7758,9.7447,9.6824,9.8025,9.9176,9.9043,9.8999,9.922,9.8999,9.8158,9.7135,9.6288,9.5848,9.5713,12.2077,12.2077,12.2077,12.2077,12.2037,12.1998,12.1918,12.2037,12.1273,12.1113,12.1361,12.2077,12.2077,12.1958,12.1233,12.1073,12.1113,12.0914,12.0634,12.0185,11.9744,12.0874,11.9945,11.8083,11.5837,11.4769,11.1193,10.7604,10.5464,10.2997,10.1554,10.0674,10.0674,10.0674,10.0674,10.0674,10.0674,10.0674,10.0674,10.0674,10.0674,10.0674,10.0674,10.0674,10.0674,10.0674,10.0674,10.0674,10.0674,10.0674,10.0674,10.0674,10.0674,10.0674,10.0674,10.0674,10.0674,10.0674,10.0674,10.0674,10.0674,10.0674,10.0674,10.0674,10.0674,10.0674,10.0674,10.0674,10.0674,10.0674,10.0674,10.0674,10.0674,10.0674,10.0674,10.0674,10.0674,10.0674,10.0674,10.0674,10.0674,10.0542,10.0278,9.9838,9.8955,9.8025,9.7002,9.6511,9.6333,9.6244,9.602,9.6294,9.6607,9.6785,9.7224,9.7447,9.7536,9.7625,9.7358,9.6868,9.6734,9.6779,9.6377,9.5669,9.6517,9.7891,9.8025,9.7985,9.7763,9.7541,9.6779,9.6288,9.5617,9.5131,9.5221,12.2077,12.2077,12.2077,12.2077,12.1719,11.9422,11.9744,12.0914,11.7061,11.5831,11.8575,12.1033,12.2077,12.1233,11.9824,11.8528,11.788,11.6246,11.5134,11.5052,11.5216,11.4558,11.4228,11.336,11.2029,10.9259,10.6451,10.4471,10.2736,10.1376,10.0806,10.0674,10.0674,10.0674,10.0674,10.0674,10.0674,10.0674,10.0674,10.0674,10.063,10.0674,10.0674,10.0586,10.063,10.0674,10.0674,10.0674,10.0674,10.0674,10.0674,10.0674,10.0674,10.0674,10.0674,10.0674,10.0674,10.0674,10.0674,10.0674,10.0674,10.0674,10.0674,10.0674,10.0674,10.0674,10.0674,10.0674,10.0674,10.0674,10.0674,10.0674,10.0674,10.0674,10.0674,10.0542,10.0542,10.041,10.0454,10.0278,10.0014,9.9706,9.9353,9.8866,9.798,9.7002,9.6199,9.5752,9.5624,9.549,9.5221,9.5445,9.5624,9.5937,9.6205,9.6288,9.6333,9.6422,9.6377,9.5937,9.5803,9.5617,9.5304,9.5394,9.5931,9.6601,9.7046,9.7269,9.6868,9.6288,9.5892,9.5617,9.5042,9.5042,9.5042,12.2077,12.2077,12.2077,12.2077,12.1918,11.9744,11.9302,11.9181,11.5462,11.4228,11.4975,11.8326,12.0025,11.9503,11.7556,11.6205,11.4434,11.2109,11.1901,11.14,11.1358,11.14,11.069,11.0186,10.8327,10.6537,10.4515,10.2472,10.0806,10.0762,10.0674,10.0674,10.0674,10.0674,10.0674,10.0674,10.0674,10.0674,10.0674,10.041,10.045,10.041,10.0498,10.0278,10.0406,10.0674,10.063,10.0674,10.0674,10.0674,10.0674,10.0674,10.0674,10.0674,10.0674,10.0674,10.0674,10.0674,10.0674,10.0674,10.0674,10.0674,10.0674,10.0674,10.0674,10.0674,10.0674,10.063,10.0674,10.0674,10.063,10.063,10.0542,10.063,10.0586,10.041,10.0234,10.0014,9.9882,9.9132,9.8866,9.8778,9.8335,9.7891,9.6957,9.6109,9.549,9.5042,9.5131,9.5087,9.5176,9.5355,9.5311,9.5573,9.5624,9.5355,9.5087,9.5176,9.5221,9.5266,9.5355,9.5125,9.5304,9.5573,9.5975,9.6199,9.6377,9.6556,9.6333,9.5758,9.5311,9.5042,9.5042,9.5042,9.5042,12.1839,12.1313,12.1193,12.0954,12.0874,12.1113,11.8939,11.6368,11.5427,11.3194,11.2404,11.4352,11.5837,11.6041,11.5262,11.3401,11.0981,11.073,10.972,10.9764,11.0564,10.9554,10.8581,10.6964,10.5507,10.4731,10.2953,10.142,10.0674,10.0674,10.0674,10.0674,10.0674,10.0674,10.063,10.0454,10.0366,10.0366,10.0102,9.9794,9.9838,9.997,10.0234,9.9838,10.019,10.0586,10.0582,10.0234,10.0146,10.041,10.0366,10.041,10.063,10.0674,10.0674,10.0674,10.0674,10.0674,10.0542,10.0542,10.0586,10.063,10.0542,10.0366,10.0322,10.0454,10.041,10.0146,9.9882,10.0058,10.0234,10.041,10.0014,9.9882,9.9662,9.9529,9.9308,9.922,9.8822,9.8069,9.7758,9.7758,9.7447,9.6868,9.602,9.5617,9.5042,9.5042,9.5042,9.5042,9.5131,9.5176,9.5125,9.5125,9.5131,9.5087,9.5042,9.5042,9.5042,9.5042,9.5042,9.5304,9.5528,9.5662,9.5573,9.5624,9.5713,9.5758,9.5707,9.5221,9.5042,9.5042,9.5042,9.4731,9.4655,11.8891,11.4146,11.4063,11.4017,11.3856,11.1149,11.1193,11.1862,10.7561,10.7433,10.9975,10.9764,11.0564,11.1734,11.0312,10.8835,10.7306,10.4559,10.3648,10.3344,10.3344,10.3737,10.3823,10.3301,10.2297,10.1904,10.1025,10.0762,10.0674,10.0674,10.0674,10.0674,10.0586,10.0586,10.0454,10.0014,9.9617,9.9573,9.9043,9.8911,9.9176,9.9529,9.9838,9.997,9.9926,9.9662,9.9529,9.9132,9.9176,9.9529,9.9794,10.019,10.0586,10.0674,10.0674,10.0674,10.041,10.041,10.0278,10.0014,10.0102,10.019,10.0234,9.9794,9.9662,9.8866,9.8557,9.8866,9.8822,9.8734,9.8512,9.8601,9.8734,9.8822,9.8734,9.8424,9.8202,9.8202,9.7891,9.7269,9.6957,9.6868,9.6511,9.5886,9.5483,9.5131,9.5042,9.5042,9.5042,9.5042,9.5087,9.5087,9.5042,9.5042,9.5042,9.5042,9.5042,9.5042,9.5042,9.5042,9.5004,9.5221,9.5362,9.5355,9.5259,9.5266,9.5355,9.5176,9.5042,9.5042,9.5042,9.5042,9.4807,9.4313,9.4009,11.4187,10.93,11.0772,11.14,11.1107,10.9342,10.875,10.8241,10.4818,10.4515,10.6151,10.598,10.7135,10.8454,10.7263,10.5335,10.3518,10.1904,10.0718,10.1025,10.1025,10.0894,10.0674,10.0674,10.0674,10.0938,10.0674,10.0674,10.0674,10.0674,10.0674,10.0586,10.0322,10.0102,9.9926,9.9088,9.8734,9.8468,9.8113,9.7891,9.8113,9.8424,9.8734,9.8778,9.8689,9.8645,9.8689,9.8335,9.8822,9.9176,9.9794,10.0146,10.0498,10.063,10.063,10.0626,9.997,9.9485,9.9397,9.8911,9.8911,9.9132,9.9397,9.918,9.9308,9.9176,9.9088,9.8468,9.8424,9.8246,9.8025,9.7758,9.7758,9.7803,9.8069,9.7758,9.7402,9.7269,9.7046,9.6556,9.6154,9.5975,9.5707,9.5394,9.5221,9.5042,9.5042,9.5042,9.5042,9.5042,9.5042,9.5042,9.4997,9.4928,9.4852,9.4731,9.4617,9.4845,9.4845,9.4693,9.4769,9.489,9.4858,9.4858,9.5011,9.5087,9.5042,9.5004,9.4928,9.4966,9.5042,9.5042,9.5004,9.4351,9.3395,10.8326,10.5765,10.8793,11.0144,10.9849,10.9554,10.8072,10.5636,10.5119,10.3561,10.1773,10.3908,10.5205,10.5421,10.5205,10.3518,10.1686,10.0674,10.0674,10.0674,10.0674,10.0674,10.0674,10.0674,10.0674,10.0674,10.0674,10.0674,10.063,10.0498,10.0454,10.019,9.9617,9.9176,9.9043,9.8158,9.7625,9.758,9.7447,9.7046,9.6601,9.7224,9.7313,9.7224,9.7313,9.7625,9.7714,9.7891,9.8424,9.8734,9.9573,10.0142,10.0362,10.0362,10.0362,9.9794,9.8911,9.7758,9.7936,9.7758,9.7758,9.8202,9.8424,9.8866,9.8778,9.8999,9.8999,9.8955,9.8561,9.8025,9.7269,9.7313,9.7402,9.7269,9.7046,9.6734,9.6428,9.6244,9.6065,9.5662,9.5617,9.5355,9.5259,9.5087,9.5042,9.5042,9.5042,9.5042,9.5042,9.5042,9.5042,9.4921,9.4883,9.4427,9.4237,9.4161,9.4237,9.4617,9.4383,9.4117,9.4503,9.4852,9.4693,9.4655,9.4928,9.5042,9.4693,9.4579,9.4738,9.4548,9.4085,9.4313,9.4731,9.4085,9.3092,10.2428,10.1817,10.2562,10.2823,10.2823,10.2823,10.2518,10.1901,10.1904,10.1464,10.0806,10.1551,10.1948,10.1817,10.1773,10.1595,10.085,10.0674,10.0674,10.0674,10.0674,10.0674,10.0674,10.0674,10.0674,10.063,10.0498,10.0674,10.0322,9.9882,9.9662,9.9308,9.8557,9.8069,9.7936,9.718,9.6868,9.6467,9.6065,9.5579,9.5617,9.6244,9.6868,9.7447,9.6957,9.669,9.6645,9.6601,9.6651,9.7097,9.7447,9.7758,9.8246,9.8335,9.8335,9.8291,9.798,9.7803,9.7536,9.7135,9.6957,9.7402,9.7269,9.7135,9.7224,9.7536,9.723,9.6154,9.6109,9.6109,9.5975,9.5707,9.5707,9.5713,9.5752,9.5617,9.5528,9.54,9.5304,9.5259,9.5087,9.5042,9.5087,9.5042,9.5042,9.5042,9.5042,9.5042,9.5042,9.5042,9.4997,9.4883,9.4655,9.4123,9.4009,9.4047,9.4275,9.4389,9.3965,9.3813,9.4237,9.4586,9.4655,9.4541,9.4693,9.4351,9.4161,9.3927,9.3857,9.3629,9.3212,9.3098,9.3326,9.2902,9.2408,10.0674,10.0674,10.0674,10.0674,10.0674,10.0674,10.0674,10.0674,10.0674,10.0674,10.0674,10.0674,10.0674,10.0674,10.0674,10.0674,10.0674,10.0674,10.0674,10.0674,10.0674,10.0674,10.0674,10.0674,10.0674,10.041,9.9662,9.922,9.922,9.8778,9.8645,9.8379,9.7625,9.7135,9.6913,9.6244,9.5841,9.5752,9.5394,9.5087,9.5131,9.5483,9.5931,9.6244,9.5937,9.5796,9.5713,9.549,9.5975,9.6333,9.6824,9.7313,9.7402,9.7135,9.6467,9.6511,9.6422,9.6422,9.6333,9.6154,9.602,9.6422,9.6556,9.6422,9.6511,9.6734,9.7091,9.6511,9.6154,9.5573,9.508,9.5087,9.5042,9.5042,9.5087,9.5087,9.5042,9.5042,9.5042,9.5087,9.5042,9.5042,9.5042,9.5042,9.5042,9.5042,9.5042,9.5042,9.5042,9.5042,9.5042,9.4959,9.4883,9.4586,9.4586,9.4503,9.4579,9.4003,9.3547,9.3547,9.3781,9.3553,9.3705,9.4047,9.3819,9.344,9.325,9.313,9.2902,9.2674,9.2522,9.2408,9.2219,9.1953,9.1606,10.0473,10.0473,10.0473,10.0553,10.0674,10.0674,10.0674,10.0674,10.0674,10.0674,10.0674,10.0674,10.0674,10.0674,10.0674,10.0674,10.0674,10.0674,10.0674,10.0674,10.0674,10.0674,10.0586,10.041,10.019,9.9794,9.8866,9.8025,9.7936,9.758,9.758,9.7358,9.6645,9.6244,9.602,9.5528,9.5176,9.5176,9.5087,9.5042,9.5042,9.5131,9.5304,9.5266,9.5266,9.5176,9.5266,9.5796,9.6199,9.6244,9.6913,9.718,9.6913,9.5931,9.5349,9.5266,9.5311,9.54,9.5355,9.5169,9.5042,9.5176,9.5669,9.6109,9.6288,9.669,9.669,9.669,9.6288,9.5841,9.5087,9.5042,9.5042,9.5042,9.5042,9.5042,9.5042,9.5042,9.5042,9.5042,9.5042,9.5042,9.5042,9.5042,9.5042,9.5042,9.5042,9.5042,9.5042,9.5042,9.4966,9.4966,9.4928,9.4852,9.4738,9.4434,9.3819,9.294,9.2788,9.2788,9.2978,9.2718,9.268,9.3022,9.2946,9.2642,9.2452,9.2294,9.2029,9.1573,9.1763,9.1991,9.1573,9.1117,9.0809,9.9547,9.9547,9.9547,9.9946,10.0634,10.0634,10.0634,10.0674,10.0674,10.0674,10.0674,10.0674,10.0674,10.0674,10.0674,10.0674,10.0674,10.0674,10.0542,10.0542,10.0498,10.0454,10.019,9.9662,9.9043,9.8202,9.7714,9.7625,9.7402,9.7091,9.6645,9.6428,9.5707,9.5483,9.5311,9.5042,9.5042,9.5042,9.5042,9.5042,9.5042,9.5042,9.5042,9.5042,9.5042,9.5042,9.4972,9.5145,9.5272,9.5304,9.5394,9.5483,9.5438,9.5125,9.5042,9.5042,9.5042,9.5042,9.5042,9.5042,9.5042,9.5042,9.5221,9.5266,9.5311,9.5579,9.5752,9.5617,9.5573,9.5266,9.5087,9.5042,9.5042,9.5042,9.5042,9.5042,9.5042,9.5042,9.5042,9.5042,9.5042,9.5042,9.5042,9.5042,9.5042,9.5042,9.5042,9.5042,9.5042,9.5004,9.4693,9.4617,9.4161,9.3971,9.3522,9.3098,9.2181,9.1606,9.1644,9.1991,9.2408,9.2186,9.1996,9.2186,9.211,9.1877,9.1687,9.1535,9.1117,9.0472,9.051,9.0928,9.0738,9.032,9.0244,9.9303,9.9263,9.878,9.9102,9.991,9.9946,10.0231,10.0634,10.0674,10.0674,10.0674,10.0674,10.0674,10.0674,10.0674,10.0674,10.0674,10.0674,10.0454,10.0058,9.997,9.9662,9.9132,9.8202,9.7625,9.7091,9.6645,9.6377,9.6288,9.5931,9.5713,9.5624,9.5304,9.5042,9.5042,9.5042,9.5042,9.5042,9.5042,9.5042,9.5042,9.5042,9.5042,9.5042,9.5042,9.4814,9.4389,9.4307,9.4351,9.4351,9.4313,9.4351,9.4351,9.4814,9.5042,9.5042,9.5042,9.5042,9.5042,9.5042,9.5004,9.5042,9.5042,9.5042,9.5042,9.5042,9.5042,9.5042,9.5042,9.5042,9.5042,9.5042,9.5042,9.5042,9.5042,9.5042,9.5042,9.5042,9.5042,9.5042,9.4966,9.4966,9.5042,9.5042,9.4921,9.4275,9.4275,9.4123,9.4199,9.4009,9.3933,9.3895,9.3402,9.2984,9.2414,9.1806,9.1037,9.0923,9.1037,9.1378,9.1687,9.1497,9.135,9.108,9.0928,9.0814,9.0966,9.07,9.0396,9.0168,9.0054,9.0016,9.0054,9.013,9.0092,9.9021,9.8981,9.8458,9.878,9.9547,9.9628,10.007,10.0674,10.0674,10.0674,10.0674,10.0674,10.0674,10.0674,10.0674,10.0674,10.0674,10.063,10.0322,9.9617,9.9529,9.8601,9.7224,9.6556,9.6154,9.5975,9.5394,9.5125,9.5125,9.5176,9.5042,9.5087,9.5087,9.5042,9.5042,9.5042,9.5042,9.5004,9.4769,9.4693,9.4655,9.4503,9.4313,9.4351,9.4396,9.4047,9.3591,9.3433,9.3357,9.3237,9.3357,9.3629,9.3889,9.4579,9.489,9.4731,9.4693,9.4617,9.451,9.4351,9.4465,9.4313,9.432,9.4586,9.4655,9.4693,9.4769,9.5042,9.5042,9.5042,9.5042,9.5042,9.4928,9.4769,9.4845,9.5042,9.5042,9.4845,9.4693,9.4662,9.4548,9.451,9.4434,9.4275,9.4085,9.3585,9.332,9.313,9.2984,9.2794,9.2908,9.306,9.2756,9.256,9.211,9.1611,9.0999,9.0771,9.0733,9.0885,9.0809,9.07,9.0624,9.032,9.0016,9.0054,9.0358,9.013,9.0206,9.0092,9.0016,9.0016,9.0016,9.0016,9.0016,9.8096,9.8177,9.886,9.9749,10.0308,10.0553,10.0513,10.0674,10.0634,10.0634,10.0594,10.0634,10.0433,10.0674,10.0433,10.0634,10.0634,10.0634,10.0542,10.0234,9.9397,9.7902,9.586,9.5413,9.5355,9.5266,9.5131,9.5042,9.5042,9.5042,9.5042,9.5042,9.5004,9.5042,9.4845,9.489,9.5004,9.4693,9.4161,9.3851,9.3775,9.3364,9.3136,9.3136,9.3098,9.2946,9.2832,9.256,9.2294,9.1492,9.2219,9.2902,9.3661,9.4503,9.4579,9.4047,9.3813,9.3591,9.3022,9.3022,9.2908,9.2984,9.2946,9.306,9.3661,9.3895,9.4123,9.4655,9.5042,9.4966,9.4966,9.5042,9.4769,9.4389,9.4693,9.5004,9.4883,9.4307,9.3813,9.3813,9.3206,9.2908,9.2794,9.2794,9.2794,9.2674,9.256,9.2332,9.2148,9.192,9.1958,9.2034,9.2034,9.1991,9.1687,9.1302,9.0847,9.0548,9.0429,9.0353,9.0278,9.0202,9.0092,9.0016,9.0016,9.0016,9.0016,9.0016,9.0054,9.0016,9.0016,9.0016,9.0016,9.0016,9.0016,9.7296,9.7337,9.7656,9.8383,9.9145,9.9665,10.0231,10.0513,10.0191,9.991,9.9789,9.9343,9.9145,9.9182,9.9668,9.9866,9.9946,10.0433,10.0634,10.037,9.9092,9.7224,9.5616,9.5069,9.5042,9.5042,9.5042,9.5042,9.5042,9.5042,9.5042,9.4928,9.4541,9.4231,9.4275,9.3857,9.3553,9.3516,9.3288,9.306,9.306,9.268,9.2528,9.2528,9.2528,9.2528,9.2452,9.1991,9.134,9.0847,9.1264,9.1833,9.2294,9.3054,9.3402,9.3098,9.3016,9.2864,9.2604,9.2528,9.2528,9.2528,9.2528,9.2674,9.2902,9.306,9.3098,9.3629,9.4047,9.4237,9.4351,9.4769,9.4807,9.4503,9.4814,9.4852,9.4269,9.4313,9.4465,9.4231,9.3737,9.3206,9.3206,9.2788,9.2332,9.1915,9.1763,9.1535,9.1312,9.1123,9.0928,9.0814,9.0776,9.089,9.0738,9.0581,9.032,9.0244,9.0126,9.0088,9.0092,9.0092,9.0016,9.0016,9.0016,9.0016,9.0016,9.0016,9.0016,9.0016,9.0016,9.0016,9.0016,9.0016,9.0016,9.6815,9.6815,9.7015,9.7415,9.8059,9.8619,9.9386,9.9829,9.9226,9.8941,9.882,9.8257,9.8056,9.8016,9.87,9.8984,9.9018,9.9367,9.9641,9.9295,9.7667,9.6043,9.5112,9.4764,9.4655,9.4693,9.4845,9.4883,9.4693,9.4617,9.4503,9.4351,9.3661,9.3395,9.332,9.2908,9.2566,9.2528,9.2376,9.2143,9.2105,9.1953,9.1882,9.1882,9.1806,9.1806,9.1763,9.1188,9.0543,9.013,9.0733,9.1188,9.134,9.2105,9.2528,9.2219,9.2143,9.2067,9.1877,9.1806,9.1844,9.1882,9.1692,9.1915,9.2105,9.2143,9.2338,9.2642,9.2978,9.3395,9.3516,9.3933,9.4389,9.4579,9.4358,9.4009,9.3585,9.3819,9.4047,9.3933,9.3092,9.256,9.2332,9.1991,9.154,9.108,9.089,9.0738,9.051,9.0282,9.0434,9.013,9.0054,9.0016,9.0016,9.0016,9.0016,9.0016,9.0016,9.0016,9.0016,9.0016,9.0016,9.0016,9.0016,9.0016,9.0016,9.0016,9.0016,9.0016,9.0016,9.0016,9.0016,9.0016,9.0016,9.6775,9.6896,9.7576,9.7857,9.7895,9.8056,9.8217,9.8177,9.8056,9.8099,9.8016,9.7732,9.7689,9.7852,9.7679,9.7756,9.7842,9.7398,9.7049,9.6287,9.5037,9.4115,9.3815,9.3678,9.3699,9.3851,9.4503,9.4503,9.3813,9.3775,9.3395,9.2908,9.2718,9.2604,9.2522,9.2566,9.2452,9.2338,9.1763,9.1378,9.134,9.0657,9.032,9.0282,9.032,9.0358,9.0396,9.0282,9.0088,9.0088,9.0657,9.1074,9.1264,9.1991,9.1953,9.1302,9.1264,9.0928,9.0396,9.0396,9.0396,9.0396,9.0434,9.0434,9.115,9.1264,9.1492,9.2186,9.2446,9.2604,9.2604,9.2832,9.3092,9.3547,9.3174,9.287,9.2566,9.2029,9.2105,9.1682,9.0809,9.032,9.0662,9.051,9.032,9.0168,9.0206,9.0206,9.0016,9.0016,9.0016,9.0016,9.0016,9.0016,9.0016,9.0016,9.0016,9.0016,9.0016,9.0016,9.0016,9.0016,9.0016,9.0016,9.0016,9.0016,9.0016,9.0016,9.0016,9.0016,9.0016,9.0016,9.0016,9.0016,9.0016,9.5969,9.605,9.6854,9.7256,9.7296,9.7817,9.7935,9.7895,9.7455,9.7216,9.6968,9.6061,9.5528,9.5521,9.5529,9.5554,9.559,9.572,9.4855,9.323,9.1956,9.1748,9.2115,9.2159,9.2327,9.2946,9.3288,9.3288,9.2984,9.2984,9.2788,9.2408,9.1953,9.1687,9.1687,9.1687,9.1644,9.1682,9.1877,9.1763,9.1226,9.0885,9.0467,9.0054,9.0016,9.0016,9.0016,9.0016,9.0016,9.0092,9.024,9.0391,9.0472,9.0738,9.0776,9.051,9.0434,9.0316,9.0092,9.0016,9.0016,9.0016,9.0016,9.0168,9.0358,9.0429,9.0548,9.0966,9.1383,9.1644,9.1758,9.2105,9.2332,9.2175,9.1877,9.1953,9.2414,9.2219,9.1991,9.1725,9.115,9.0809,9.0581,9.0434,9.0016,9.0016,9.0016,9.0016,9.0016,9.0016,9.0016,9.0016,9.0016,9.0016,9.0016,9.0016,9.0016,9.0016,9.0016,9.0016,9.0016,9.0016,9.0016,9.0016,9.0016,9.0016,9.0016,9.0016,9.0016,9.0016,9.0016,9.0016,9.0016,9.0016,9.0016,9.5446,9.5526,9.6131,9.6412,9.6451,9.6932,9.7173,9.7133,9.6612,9.6204,9.5747,9.4641,9.3902,9.3725,9.3649,9.3666,9.3662,9.3494,9.2667,9.1185,9.0352,9.0358,9.0776,9.0809,9.1269,9.1991,9.2376,9.2414,9.2143,9.2105,9.1996,9.1687,9.1074,9.0809,9.0809,9.0809,9.0809,9.0885,9.1421,9.1502,9.0885,9.0771,9.0543,9.0092,9.0016,9.0016,9.0016,9.0244,9.0202,9.0016,9.0244,9.0282,9.0054,9.0016,9.0016,9.0016,9.0016,9.0016,9.0016,9.0016,9.0016,9.0016,9.0016,9.0016,9.0016,9.0054,9.0054,9.0092,9.0429,9.0809,9.0885,9.1421,9.1421,9.0928,9.0809,9.108,9.1459,9.1654,9.1768,9.1692,9.1193,9.0847,9.0657,9.0391,9.0016,9.0016,9.0016,9.0016,9.0016,9.0016,9.0016,9.0016,9.0016,9.0016,9.0016,9.0016,9.0016,9.0016,9.0016,9.0016,9.0016,9.0016,9.0016,9.0016,9.0016,9.0016,9.0016,9.0016,9.0016,9.0016,8.9941,8.9941,8.9979,9.0016,9.0016,9.5446,9.5404,9.5445,9.5442,9.5482,9.5437,9.5442,9.5437,9.5358,9.4898,9.431,9.4025,9.3357,9.285,9.263,9.2634,9.2335,9.1223,9.0381,9.0144,9.0059,9.0054,9.013,9.013,9.0548,9.1231,9.2029,9.1991,9.1226,9.1188,9.0847,9.0244,9.0126,9.0168,9.0054,9.0206,9.0126,9.0282,9.0434,9.032,9.0054,9.0206,9.0168,9.0016,9.0016,9.0016,9.0016,9.07,9.0657,9.0126,9.0581,9.0733,9.0016,8.9827,8.9903,8.9789,8.9865,8.9941,8.9903,8.9784,8.9751,8.9865,8.9941,8.9903,8.9979,9.0016,9.0016,9.0016,9.0092,9.0092,9.013,9.013,9.0092,9.0016,9.013,9.0168,9.0206,9.0092,9.0054,9.0164,9.0206,9.0054,9.0054,9.0016,9.0016,9.0016,9.0016,8.9979,8.9827,8.9903,8.9979,8.9941,8.9941,8.9979,9.0016,9.0016,8.9979,9.0016,8.9979,9.0016,9.0016,9.0016,9.0016,9.0016,9.0016,9.0016,9.0016,9.0016,9.0016,8.9713,8.9789,8.9751,8.9523,8.9253,8.9481,9.5446,9.5363,9.4779,9.4529,9.4445,9.3818,9.3606,9.3606,9.3606,9.348,9.3102,9.2474,9.2134,9.1754,9.112,9.0908,9.0781,9.0314,9.0016,9.0016,9.0016,9.0016,9.0016,9.0016,9.0168,9.0434,9.07,9.07,9.0391,9.0353,9.0202,9.0016,9.0016,9.0016,9.0092,9.0505,9.0809,9.0966,9.1421,9.1383,9.0847,9.0771,9.0543,9.0092,9.0016,9.0016,9.0016,9.0244,9.0244,9.0016,8.9713,8.9489,8.9143,8.865,8.8266,8.8304,8.8304,8.8266,8.8266,8.8266,8.8532,8.9105,8.9223,8.9447,8.9941,9.0016,9.0016,9.0016,9.0016,9.0016,8.9903,8.9527,8.9223,8.9261,8.9675,9.0016,9.0016,8.9979,8.9979,8.9979,8.9941,8.9979,9.0016,8.9979,9.0016,9.0016,9.0016,8.9751,8.9409,8.9561,8.9865,8.9375,8.9675,8.9941,8.9903,8.9827,8.9827,8.9941,8.9979,8.9979,9.0016,9.0016,9.0016,9.0016,9.0016,9.0016,9.0016,9.0016,8.9713,8.9299,8.9299,8.9219,8.8684,8.8418,8.8456,9.4438,9.4356,9.353,9.3158,9.3075,9.2204,9.1827,9.1827,9.1827,9.1775,9.1629,9.1122,9.0854,9.0785,8.9624,8.9063,8.9143,8.9447,8.9603,8.9641,8.9865,9.0016,9.0016,9.0016,9.0016,9.0016,9.0016,9.0016,9.0016,9.0016,9.0016,9.0016,9.0016,9.0016,9.0092,9.0467,9.0733,9.0809,9.1264,9.1345,9.0733,9.0733,9.0505,9.0016,9.0016,8.9865,8.9561,8.9561,8.9409,8.9105,8.865,8.8346,8.827,8.7773,8.7507,8.7507,8.7507,8.7507,8.7507,8.7507,8.7735,8.827,8.8346,8.8532,8.8991,8.9105,8.9105,8.9105,8.9105,8.9063,8.8991,8.865,8.8346,8.8384,8.8802,8.9101,8.9485,8.9561,8.9561,8.9561,8.9561,8.9561,8.9561,8.9827,8.9979,8.9979,8.9793,8.9523,8.9295,8.9413,8.9523,8.9413,8.9717,8.9903,8.9675,8.9561,8.9675,8.9789,8.9713,8.9561,8.9333,8.9257,8.8991,8.8836,8.9333,8.9371,8.9485,8.9485,8.9637,8.9223,8.8957,8.865,8.7621,8.7887,8.7735,9.2667,9.2504,9.1815,9.1528,9.1367,9.0427,9.0061,9.0014,9.0018,9.0036,8.9903,8.9858,8.99,8.9717,8.8308,8.7507,8.7621,8.8384,8.8768,8.8844,8.9447,8.9822,8.9941,8.9979,8.9979,9.0016,9.0016,9.0016,9.0016,9.0016,9.0016,9.0016,9.0016,9.0016,9.0016,9.0054,9.0016,9.0092,9.0168,9.0054,9.0054,8.9979,8.9941,8.9708,8.9865,8.9447,8.8882,8.8768,8.8384,8.7545,8.7469,8.7431,8.7431,8.7356,8.728,8.728,8.7318,8.7318,8.728,8.7204,8.7318,8.7431,8.7431,8.7469,8.7697,8.7735,8.7735,8.7545,8.7507,8.7356,8.7356,8.7394,8.7431,8.7431,8.7507,8.7963,8.865,8.8768,8.8768,8.8768,8.8768,8.8768,8.8806,8.9409,8.9637,8.9561,8.9223,8.8882,8.9181,8.9071,8.9033,8.9375,8.9561,8.9599,8.8957,8.8768,8.9067,8.9219,8.8953,8.8726,8.846,8.8156,8.7852,8.7735,8.8346,8.8726,8.8878,8.8991,8.9067,8.8915,8.8536,8.7928,8.6862,8.7204,8.709,9.0881,9.0879,9.0676,9.0185,8.953,8.8586,8.8213,8.8213,8.8213,8.8203,8.8143,8.8143,8.8171,8.8118,8.7735,8.7507,8.7507,8.7735,8.7852,8.7849,8.8039,8.8536,8.9147,8.9185,8.9451,8.9903,9.0016,9.0016,9.0016,9.0016,9.0016,9.0016,9.0016,9.0016,9.0016,9.0016,9.0016,9.0016,9.0016,9.0016,8.9903,8.9489,8.884,8.827,8.8194,8.8077,8.789,8.789,8.7739,8.7469,8.6941,8.6597,8.66,8.5952,8.561,8.5688,8.565,8.561,8.561,8.561,8.5954,8.6524,8.6638,8.6865,8.7356,8.7507,8.7507,8.7356,8.6331,8.5726,8.5764,8.6258,8.66,8.6676,8.7166,8.7545,8.7773,8.7811,8.7811,8.7852,8.789,8.7852,8.7928,8.8039,8.8266,8.8266,8.8042,8.7852,8.7435,8.7701,8.7739,8.7397,8.7849,8.8001,8.7887,8.7852,8.7849,8.8077,8.8077,8.7849,8.7773,8.7697,8.7469,8.7014,8.7549,8.789,8.7966,8.7966,8.7963,8.7773,8.7359,8.6676,8.6027,8.5726,8.5688,8.9048,8.9127,8.9088,8.8562,8.7751,8.6815,8.6445,8.6445,8.6445,8.6635,8.69,8.6597,8.6445,8.6486,8.6448,8.6407,8.6483,8.6865,8.6976,8.7014,8.7356,8.7777,8.827,8.8654,8.9071,8.9485,8.9865,9.0016,9.0016,9.0016,9.0016,9.0016,9.0016,9.0016,9.0016,9.0016,9.0016,9.0016,9.0016,8.9827,8.9447,8.873,8.8004,8.7545,8.7507,8.7356,8.7014,8.6976,8.6786,8.6445,8.5989,8.5764,8.5764,8.5271,8.4929,8.4929,8.4929,8.4929,8.4929,8.4929,8.5195,8.5688,8.5726,8.5954,8.6369,8.6445,8.6407,8.6331,8.5534,8.4929,8.5005,8.5423,8.5726,8.5802,8.6103,8.6559,8.69,8.6976,8.6976,8.7017,8.6976,8.7017,8.7017,8.6976,8.7128,8.7431,8.7166,8.7052,8.6862,8.6862,8.6938,8.6827,8.6524,8.6597,8.6979,8.6976,8.7166,8.7318,8.7204,8.7017,8.6941,8.6748,8.6445,8.6369,8.671,8.6976,8.6976,8.7166,8.7469,8.7394,8.6824,8.603,8.5157,8.4967,8.4929,8.7243,8.7244,8.7282,8.6845,8.6125,8.5366,8.5005,8.5005,8.4967,8.5385,8.5764,8.5195,8.4891,8.4815,8.4663,8.4587,8.4625,8.5273,8.5499,8.5764,8.6559,8.709,8.7394,8.827,8.873,8.8957,8.9637,9.0016,9.0016,9.0016,9.0016,9.0016,9.0016,9.0016,9.0016,9.0016,9.0016,9.0016,8.9941,8.9485,8.873,8.7852,8.7318,8.7242,8.7242,8.6862,8.622,8.6182,8.5802,8.5043,8.4967,8.4889,8.4853,8.4853,8.4777,8.4701,8.4701,8.4661,8.4701,8.4701,8.4623,8.4739,8.4701,8.4739,8.4853,8.4737,8.4739,8.4661,8.4701,8.4587,8.4701,8.4777,8.4853,8.4853,8.5005,8.5271,8.603,8.6223,8.6182,8.6223,8.6144,8.6182,8.6144,8.6182,8.6448,8.69,8.6486,8.6255,8.6673,8.6483,8.6334,8.6635,8.5989,8.5499,8.5954,8.6182,8.641,8.6941,8.6597,8.6258,8.6068,8.5575,8.5005,8.5499,8.5686,8.6103,8.6334,8.6673,8.7128,8.6786,8.6407,8.5919,8.5195,8.4929,8.4929,8.5528,8.5528,8.5528,8.5408,8.5288,8.5009,8.4929,8.4929,8.4929,8.4322,8.3447,8.3828,8.4058,8.3906,8.2651,8.212,8.1854,8.0297,8.0601,8.2272,8.2536,8.4056,8.6448,8.7356,8.8156,8.8882,8.9637,9.0016,9.0016,9.0016,9.0016,9.0016,9.0016,9.0016,9.0016,9.0016,9.0016,8.9979,8.9413,8.865,8.7773,8.7017,8.6258,8.5534,8.5496,8.5461,8.5271,8.5271,8.5157,8.4967,8.4929,8.4663,8.4096,8.4058,8.3754,8.3068,8.2992,8.2992,8.2992,8.2992,8.2992,8.2992,8.2992,8.3257,8.3866,8.341,8.2992,8.2992,8.303,8.303,8.3143,8.36,8.4058,8.4096,8.4587,8.4967,8.5195,8.5231,8.5271,8.5271,8.5311,8.5271,8.5271,8.5271,8.5385,8.5575,8.5385,8.5309,8.542,8.5423,8.5309,8.5382,8.5193,8.5081,8.5195,8.5309,8.5385,8.5382,8.5385,8.5385,8.5309,8.5157,8.4967,8.4967,8.5157,8.5309,8.5309,8.5499,8.5612,8.5648,8.5575,8.5233,8.5005,8.4929,8.4929,8.3788,8.3828,8.3788,8.3788,8.3788,8.3788,8.3788,8.3675,8.2574,8.1626,8.0904,8.2422,8.3145,8.3069,8.2234,8.1816,8.1739,8.0829,8.1133,8.2424,8.2765,8.3942,8.5688,8.69,8.7697,8.827,8.9409,9.0016,9.0016,9.0016,9.0016,9.0016,9.0016,9.0016,9.0016,9.0016,9.0016,8.9936,8.884,8.8004,8.7469,8.6334,8.5461,8.4967,8.4929,8.4929,8.4929,8.4587,8.4398,8.4437,8.4018,8.3638,8.3183,8.3145,8.2803,8.1967,8.1891,8.193,8.193,8.1892,8.2043,8.2384,8.2422,8.2195,8.155,8.098,8.1056,8.1777,8.1853,8.2044,8.2422,8.284,8.3183,8.3145,8.3485,8.3751,8.3788,8.4132,8.4437,8.4436,8.4701,8.4929,8.4929,8.4929,8.4929,8.4929,8.4967,8.4967,8.4967,8.4967,8.4967,8.4929,8.4929,8.4929,8.4967,8.4929,8.4929,8.4929,8.4929,8.4929,8.4929,8.4929,8.4929,8.4929,8.4967,8.4929,8.4967,8.4929,8.4929,8.4929,8.4929,8.4929,8.4929,8.4929,8.4929,8.2422,8.2422,8.2422,8.2233,8.1891,8.189,8.1701,8.1246,7.9387,7.8552,7.8704,8.0904,8.1852,8.1929,8.1815,8.1739,8.1777,8.231,8.2766,8.3108,8.4018,8.4625,8.5003,8.6786,8.7659,8.7773,8.9257,9.0016,9.0016,9.0016,9.0016,8.9979,8.9903,8.9827,8.9827,8.9827,8.9827,8.9789,8.8266,8.7545,8.7621,8.6103,8.5195,8.5005,8.5081,8.5005,8.4625,8.4056,8.3564,8.307,8.2309,8.1739,8.155,8.1474,8.1284,8.0791,8.0715,8.0753,8.0715,8.0753,8.1019,8.1663,8.1739,8.0791,7.8628,7.8476,7.9159,8.0525,8.0639,8.0866,8.1008,8.0967,8.0964,8.1079,8.142,8.1842,8.227,8.256,8.293,8.3444,8.3852,8.3792,8.4194,8.4025,8.3621,8.3857,8.353,8.4045,8.3803,8.3731,8.3372,8.3444,8.3444,8.3444,8.2798,8.3605,8.3884,8.4206,8.4447,8.4929,8.4929,8.4929,8.4929,8.4929,8.4929,8.4929,8.4929,8.4929,8.4929,8.4929,8.4929,8.4929,8.4929,8.3455,8.3059,8.2422,8.2422,8.2422,8.1246,7.9387,7.9387,7.8247,7.6423,0.0,0.0,0.0,7.8931,7.9387,7.9349,7.8704,7.8399,7.8361,7.7145,7.7676,7.9652,8.117,8.2993,8.5043,8.7476,8.8616,8.8654,8.9523,9.0016,9.0016,9.0016,9.0016,8.9941,8.9333,8.9033,8.9033,8.9033,8.9033,8.8995,8.8042,8.7811,8.854,8.7545,8.6369,8.5005,8.5688,8.5081,8.2992,8.3448,8.25,7.9804,7.9462,7.8741,7.7412,7.7298,7.7564,7.8133,7.8209,7.8209,7.8209,7.8209,7.8285,7.8399,7.8437,7.7905,7.6766,7.7299,7.7905,7.8208,7.8209,7.7173,7.4823,7.5177,7.5501,7.5537,7.6769,7.8617,8.0858,7.9897,7.9557,8.1868,8.029,7.981,8.2131,8.0834,7.9516,7.9588,8.0065,8.0611,8.0213,7.801,7.6334,7.6659,7.7016,7.6454,7.6612,7.8549,8.0488,8.0624,8.2885,8.4809,8.4929,8.4929,8.4929,8.4815,8.4929,8.4891,8.4929,8.4815,8.4929,8.4929,8.4929,8.4929,8.4412,7.9989,7.6852,7.9994,7.9994,7.9994,7.9235,0.0,7.8134,7.5514,7.1257,7.2131,7.3388,7.5169,7.7222,7.8134,7.8133,7.7716,7.7526,7.7526,7.7108,7.7564,7.8855,8.1399,8.3222,8.4475,8.7438,8.8844,8.8844,8.9637,9.0016,9.0016,9.0016,8.9789,8.9413,8.9033,8.8616,8.8156,8.8156,8.8346,8.8806,8.8384,8.8384,8.8768,8.7966,8.6903,8.5688,8.6068,0.0,0.0,0.0,0.0,0.0,0.0,0.0,0.0,0.0,0.0,7.4909,7.1216,6.9154,6.9424,6.821,6.8913,7.2315,7.2342,7.1599,7.0262,7.3171,7.4182,7.2229,7.4231,7.5321,7.4617,7.3476,7.298,7.3372,7.2723,7.2831,7.4203,7.3842,7.4065,7.5379,7.5039,7.5056,7.6674,7.5883,7.5414,7.5442,7.5794,7.6139,7.6246,7.4469,7.3081,7.3293,7.3393,7.3393,7.3523,7.5107,7.6041,7.6482,7.8938,8.0938,8.1217,8.2567,8.3675,8.3675,8.3675,8.3637,8.3637,8.3675,8.3162,8.1655,8.1217,8.0778,7.8706,7.569,7.359,7.707,7.707,7.707,7.6841,7.6387,7.6539,7.3463,6.8414,6.8414,6.9933,7.2666,7.54,7.6613,7.6615,7.6766,7.6918,7.7108,7.7869,7.8514,7.9083,8.2158,8.3638,8.4132,8.7134,8.8578,8.8654,8.9413,8.9789,8.9789,8.9941,8.9599,8.8844,8.8612,8.8118,8.728,0.0,0.0,0.0,8.8426,8.8654,8.8806,8.8118,8.7166,8.6106,8.622,0.0,8.5575,8.4398,8.3752,8.3752,8.2309,0.0,0.0,0.0,0.0,0.0,0.0,0.0,0.0,0.0,0.0,0.0,6.4023,6.3138,6.3058,6.7201,6.8504,6.538,6.9088,7.2022,7.2522,7.051,6.9476,7.014,6.8082,6.68,6.7397,6.7823,6.8355,6.8852,6.9523,7.0164,7.0872,7.0827,7.0891,7.0983,7.1221,7.1242,7.0863,7.0084,7.0059,7.0432,6.9993,7.0335,7.0473,7.0984,7.1576,7.1763,7.4129,7.6199,7.6454,7.8425,8.0026,7.9948,8.0182,8.0063,8.021,8.0366,7.9301,7.7121,7.66,7.5275,7.0832,6.991,7.0315,7.5359,7.5395,7.5359,7.4068,7.2203,7.289,7.2701,7.1831,7.1869,7.2097,7.2549,7.2932,7.316,7.3232,7.3846,7.4567,7.5397,7.6159,7.7754,7.9993,8.1778,8.3371,8.4853,8.6789,8.7659,8.7659,8.8578,8.8957,8.8995,8.9675,8.9561,8.8844,8.8042,8.7283,8.6448,8.5688,8.5347,8.5461,8.6941,8.8042,8.8806,8.873,8.7552,8.5309,8.5878,8.5271,8.3068,8.3488,8.25,7.969,7.8703,7.783,7.6958,7.4296,7.1641,0.0,6.4933,0.0,0.0,0.0,0.0,0.0,0.0,0.0,0.0,5.9386,6.0134,5.9276,6.2748,6.3569,5.9923,6.0273,6.0747,6.0841,6.1087,6.2351,6.4868,6.3986,6.4219,6.7051,6.55,6.5399,6.7778,6.6401,6.529,6.5852,6.648,6.5681,6.2644,6.1942,6.2427,6.3051,6.3196,6.3755,6.3855,6.588,6.7504,6.7439,6.9864,7.2035,7.155,7.1995,7.2234,7.2273,7.258,7.2552,7.2848,7.3075,7.3042,7.2994,7.2707,7.0096,6.3275,6.1355,6.2575,7.365,7.3615,7.3615,7.2438,7.0583,7.0958,7.1076,7.1076,7.1076,7.1413,7.1865,7.1831,7.2131,7.2514,7.286,7.3236,7.3615,7.403,7.5248,7.7335,7.9387,8.1284,8.2993,8.5572,8.6827,8.6865,8.7659,8.808,8.8118,8.846,8.7925,8.6716,8.6789,8.5281,8.2334,8.1808,8.2492,8.4284,8.5448,8.6939,8.8726,8.8346,8.7321,8.5802,8.6106,8.5764,8.4585,8.4474,8.3754,8.2233,8.1398,8.0221,7.8323,7.1783,6.8226,0.0,0.0,0.0,0.0,0.0,0.0,0.0,0.0,0.0,0.0,0.0,5.3616,5.6482,6.0148,6.0776,5.6846,5.6382,5.6484,5.6891,5.4802,5.4826,5.858,5.7377,5.7243,5.9658,5.9566,5.9854,6.1193,6.0992,6.0823,6.1089,6.0881,5.998,5.8171,5.8443,5.9079,5.966,5.9773,5.9773,5.9773,6.1112,6.2007,6.2058,6.4624,6.68,6.6556,6.7928,6.9197,6.9158,6.9197,6.9259,6.9521,6.9583,6.8953,6.7649,6.5566,6.2641,5.8734,5.8212,5.9052,7.1873,7.1793,7.0388,6.9292,6.8528,6.8691,6.9222,6.9976,7.0013,7.0355,7.0991,7.0251,7.0033,7.0184,6.9101,6.9361,7.0596,7.0596,7.2256,7.5359,7.7488,7.9462,8.136,8.4094,8.5385,8.5382,8.5989,8.6483,8.6824,8.6442,8.5643,8.4421,8.415,8.1779,7.7452,7.7855,7.9642,8.262,8.4162,8.592,8.7827,8.7425,8.6786,8.603,8.5802,8.5688,8.5688,8.4853,8.432,8.4322,8.196,7.9728,7.7766,6.7826,0.0,0.0,0.0,0.0,0.0,0.0,0.0,0.0,0.0,4.7074,4.058,0.0,4.7612,0.0,5.6034,5.7295,5.4889,5.3393,0.0,0.0,4.9538,4.8114,5.1404,5.1269,5.1417,5.2762,5.4588,5.5722,5.5722,5.6576,5.7155,5.7022,5.6272,5.5752,5.5801,5.6769,5.7468,5.7639,5.7696,5.7735,5.7895,5.7791,5.7727,5.7439,5.9573,6.1208,6.1064,6.3127,6.4792,6.4754,6.4754,6.4819,6.4791,6.498,6.3885,6.149,5.8618,5.6434,5.6319,5.6765,5.7307,7.0203,6.971,6.4397,6.2955,6.4314,6.5004,6.7092,6.9938,6.9938,6.998,6.9867,6.718,6.5147,6.3471,5.9373,0.0,6.4977,6.4984,6.8899,7.6121,7.7146,7.8931,8.1284,8.2271,8.2726,8.2726,8.2802,8.3599,8.5005,8.3599,8.2788,8.2719,7.9297,7.5835,7.2753,7.4722,7.7035,7.9304,8.3021,8.5033,8.5223,8.6001,8.5954,8.5081,8.4361,8.3982,8.3982,8.3107,8.2612,8.2383,7.5457,7.1327,7.0849,0.0,0.0,0.0,0.0,0.0,0.0,0.0,0.0,0.0,0.0,0.0,0.0,0.0,0.0,0.0,4.7579,0.0,5.0886,4.9351,0.0,0.0,0.0,4.4021,4.482,4.7347,4.9088,4.9228,0.0,0.0,5.4361,5.4483,5.4377,5.3881,5.4186,5.4588,5.5203,5.5317,5.5656,5.6159,5.632,5.6519,5.6907,5.6499,5.5988,5.5656,5.5645,5.5875,5.5527,5.5723,5.5452,5.5936,5.5415,5.5736,5.6203,5.6625,5.5967,5.5346,5.4761,5.44,5.4179,5.4431,5.5116,6.5308,6.1475,5.9132,5.8453,5.8862,5.9389,6.0673,6.2382,6.2585,6.2016,6.0802,6.0139,5.8429,5.5847,5.4564,0.0,0.0,0.0,6.2233,6.9916,7.1185,7.4926,8.0411,8.136,8.1474,8.1057,8.1967,8.2536,8.2727,8.2498,7.7398,6.7617,0.0,0.0,6.4143,6.7877,7.1448,7.4748,7.9514,8.2229,8.2745,8.4525,8.4813,8.3485,8.3145,8.2993,8.2955,8.2157,7.9956,7.6106,7.1515,6.6847,0.0,0.0,0.0,0.0,0.0,0.0,0.0,0.0,0.0,0.0,0.0,3.5621,3.1254,0.0,0.0,0.0,3.893,4.0603,4.2092,4.3907,0.0,0.0,0.0,0.0,0.0,0.0,0.0,4.6313,4.8785,5.0534,5.0928,5.192,5.2182,5.1139,5.1589,5.2028,5.2137,0.0,5.2969,5.3617,5.37,5.397,5.467,5.3625,5.3114,5.4392,5.4625,5.4511,5.4247,5.4219,5.4219,5.4219,5.4219,5.4341,5.4596,5.2997,5.1726,5.1959,5.2536,5.3151,5.3506,5.3862,5.4332,5.8935,0.0,0.0,0.0,0.0,5.3299,5.4311,5.5642,5.589,5.5167,5.3785,5.3374,0.0,0.0,0.0,0.0,0.0,0.0,5.7997,6.4511,6.8823,7.3645,7.8968,7.9804,7.9917,7.9386,7.969,7.9086,7.7471,7.5677,6.8275,5.5875,0.0,0.0,0.0,0.0,6.553,7.0009,7.5542,7.899,8.0173,8.2602,8.319,8.1758,8.1043,8.0934,8.1354,7.8372,7.4848,7.0783,6.5057,0.0,0.0,0.0,0.0,0.0,0.0,0.0,0.0,0.0,0.0,0.0,0.0,0.0,0.0,0.0,0.0,0.0,0.0,0.0,3.6461,3.9519,4.0366,0.0,0.0,0.0,0.0,0.0,0.0,0.0,0.0,0.0,4.6544,4.8283,4.9424,0.0,0.0,5.0117,4.9965,5.0295,5.0767,5.1239,5.113,0.0,5.1807,5.0704,5.0449,5.2504,5.2677,5.2404,5.1933,5.2442,5.2755,5.2225,5.2557,5.278,5.2452,5.0242,4.876,4.9248,4.9974,5.0676,5.142,5.228,5.2844,0.0,0.0,0.0,0.0,0.0,0.0,0.0,0.0,5.1397,5.1264,0.0,4.7433,0.0,0.0,0.0,0.0,4.3536,5.175,0.0,0.0,7.1803,7.6844,7.6239,7.711,7.7602,7.745,7.4952,7.1867,6.7991,6.0368,0.0,0.0,0.0,0.0,0.0,0.0,5.9516,6.5292,7.1394,7.5519,7.7618,8.0087,8.1001,8.0116,7.7865,7.7356,7.8558,7.0685,6.6696,6.7864,5.4488,0.0,0.0,0.0,0.0,0.0,0.0,0.0,0.0,0.0,0.0,0.0,0.0,0.0,0.0,0.0,0.0,0.0,0.0,0.0,0.0,3.6935,0.0,0.0,0.0,0.0,0.0,0.0,0.0,0.0,0.0,0.0,4.1262,4.3325,4.5681,4.7272,0.0,0.0,0.0,0.0,4.9439,4.9431,4.8941,4.8587,4.8786,4.8567,4.8668,4.9435,0.0,0.0,4.6467,4.8154,4.926,4.7599,4.8763,4.9454,4.8684,4.6991,4.6063,4.6554,4.6402,4.6292,4.6872,4.8403,4.9606,0.0,0.0,0.0,0.0,0.0,0.0,0.0,0.0,0.0,4.0914,0.0,3.8543,0.0,0.0,0.0,0.0,0.0,0.0,0.0,0.0,5.8544,6.3191,6.4927,6.8249,6.7962,0.0,6.3237,5.8581,0.0,0.0,0.0,0.0,0.0,0.0,0.0,0.0,5.6586,6.1508,6.8376,7.3068,7.5255,7.7621,7.8449,7.7676,7.6351,7.3773,6.9907,6.4495,6.1287,0.0,0.0,0.0,0.0,0.0,0.0,0.0,0.0,0.0,0.0,0.0,0.0,0.0,0.0,0.0,0.0,0.0,0.0,0.0,0.0,0.0,0.0,0.0,3.3221,0.0,0.0,0.0,0.0,0.0,0.0,0.0,0.0,0.0,3.6919,4.1208,4.4594,4.5067,4.6107,4.7003,4.7413,0.0,0.0,0.0,0.0,0.0,0.0,0.0,4.5278,4.6831,4.5276,4.3936,4.4157,4.5835,4.695,4.6409,0.0,0.0,4.287,4.1497,4.1267,4.1963,4.2539,4.3182,4.3716,4.474,4.5606,0.0,0.0,0.0,0.0,0.0,0.0,0.0,0.0,0.0,3.3198,3.1548,0.0,0.0,0.0,0.0,0.0,0.0,0.0,0.0,0.0,0.0,0.0,5.6409,5.9692,0.0,0.0,0.0,0.0,0.0,0.0,0.0,0.0,0.0,0.0,0.0,0.0,5.2936,5.7559,6.5186,7.0618,7.3614,7.5694,7.636,7.5634,7.4099,7.0189,6.3711,0.0,0.0,0.0,0.0,0.0,0.0,0.0,0.0,0.0,0.0,0.0,0.0,0.0,0.0,0.0,0.0,0.0,0.0,0.0,0.0,0.0,0.0,0.0,0.0,0.0,2.9233,0.0,0.0,0.0,0.0,0.0,0.0,0.0,0.0,0.0,0.0,0.0,4.1306,4.2547,4.3791,4.4876,4.5675,4.5492,4.5439,0.0,0.0,0.0,0.0,0.0,0.0,0.0,0.0,0.0,0.0,0.0,0.0,0.0,0.0,4.2359,3.7704,3.6324,3.6107,3.6758,0.0,0.0,0.0,0.0,0.0,0.0,0.0,0.0,0.0,0.0,0.0,0.0,0.0,0.0,0.0,2.8233,0.0,0.0,2.6774,0.0,0.0,0.0,0.0,0.0,0.0,0.0,0.0,0.0,0.0,0.0,0.0,0.0,0.0,0.0,0.0,0.0,0.0,0.0,0.0,0.0,0.0,4.8527,5.3497,6.1763,6.8226,7.2763,7.4218,7.4646,7.4013,7.0919,6.651,6.0632,0.0,0.0,0.0,0.0,0.0,0.0,0.0,0.0,0.0,0.0,0.0,0.0,0.0,0.0,0.0,0.0,0.0,0.0,0.0,0.0,0.0,0.0,0.0,0.0,0.0,0.0,2.5433,2.6711,2.7664,0.0,0.0,0.0,0.0,0.0,0.0,0.0,0.0,0.0,0.0,4.1666,4.3175,4.4326,4.4876,4.5154,4.5198,4.4806,4.4234,4.3682,4.4026,4.391,0.0,0.0,0.0,0.0,0.0,0.0,0.0,0.0,0.0,0.0,0.0,0.0,0.0,0.0,0.0,0.0,0.0,0.0,0.0,0.0,0.0,0.0,0.0,0.0,0.0,0.0,0.0,0.0,0.0,0.0,0.0,0.0,0.0,0.0,0.0,0.0,0.0,0.0,0.0,0.0,0.0,0.0,0.0,0.0,0.0,0.0,0.0,0.0,0.0,0.0,0.0,0.0,0.0,0.0,4.6497,5.2593,5.9472,6.5918,7.194,7.188,7.2232,7.3045,6.8184,6.2612,0.0,0.0,0.0,0.0,0.0,0.0,0.0,0.0,0.0,0.0,0.0,0.0,0.0,0.0,0.0,0.0,0.0,0.0,0.0,0.0,0.0,0.0,0.0,0.0,0.0,0.0,0.0,0.0,2.8377,2.7953,2.609,0.0,0.0,0.0,0.0,0.0,0.0,0.0,0.0,0.0,0.0,4.1968,4.3117,4.3091,4.3123,4.3448,4.3097,4.2785,4.2987,4.2493,4.176,4.0912,0.0,0.0,0.0,0.0,0.0,0.0,0.0,0.0,0.0,0.0,0.0,0.0,0.0,0.0,0.0,0.0,0.0,0.0,0.0,0.0,0.0,0.0,0.0,0.0,0.0,0.0,0.0,0.0,0.0,0.0,0.0,0.0,0.0,0.0,0.0,0.0,0.0,0.0,0.0,0.0,0.0,0.0,0.0,0.0,0.0,0.0,0.0,0.0,0.0,0.0,0.0,0.0,0.0,4.4491,4.9738,5.7359,6.398,6.9353,6.9587,6.976,7.0304,6.4975,5.8846,0.0,0.0,0.0,0.0,0.0,0.0,0.0,0.0,0.0,0.0,0.0,0.0,0.0,0.0,0.0,0.0,0.0,0.0,0.0,0.0,0.0,0.0,0.0,0.0,0.0,0.0,0.0,0.0,2.6083,2.6371,2.4974,0.0,0.0,0.0,0.0,0.0,0.0,0.0,0.0,0.0,0.0,3.9573,4.074,4.0972,0.0,0.0,4.1795,4.1422,4.2623,4.2149,4.1167,3.9504,3.8464,0.0,0.0,0.0,0.0,0.0,0.0,0.0,0.0,0.0,0.0,0.0,0.0,0.0,0.0,0.0,0.0,0.0,0.0,0.0,0.0,0.0,0.0,0.0,0.0,0.0,0.0,0.0,0.0,0.0,0.0,0.0,0.0,0.0,0.0,0.0,0.0,0.0,0.0,0.0,0.0,0.0,0.0,0.0,0.0,0.0,0.0,0.0,0.0,0.0,0.0,0.0,0.0,0.0,4.5729,5.5225,6.2029,6.5845,6.7169,6.724,6.6021,6.1593,5.5373,0.0,0.0,0.0,0.0,0.0,0.0,0.0,0.0,0.0,0.0,0.0,0.0,0.0,0.0,0.0,0.0,0.0,0.0,0.0,0.0,0.0,0.0,0.0,0.0,0.0,0.0,0.0,0.0,0.0,0.0,0.0,0.0,0.0,0.0,0.0,0.0,0.0,0.0,0.0,0.0,0.0,3.6552,3.7862,3.867,3.9971,0.0,4.0581,3.9889,4.1894,4.2216,4.1184,3.7966,0.0,0.0,0.0,0.0,0.0,0.0,0.0,0.0,0.0,0.0,0.0,0.0,0.0,0.0,0.0,0.0,0.0,0.0,0.0,0.0,0.0,0.0,0.0,0.0,0.0,0.0,0.0,0.0,0.0,0.0,0.0,0.0,0.0,0.0,0.0,0.0,0.0,0.0,0.0,0.0,0.0,0.0,0.0,0.0,0.0,0.0,0.0,0.0,0.0,0.0,0.0,0.0,0.0,0.0,4.4253,5.1801,5.804,6.2725,6.3047,6.3334,6.371,5.8829,0.0,0.0,0.0,0.0,0.0,0.0,0.0,0.0,0.0,0.0,0.0,0.0,0.0,0.0,0.0,0.0,0.0,0.0,0.0,0.0,0.0,0.0,0.0,0.0,0.0,0.0,0.0,1.791,0.0,0.0,0.0,0.0,0.0,0.0,0.0,0.0,0.0,0.0,0.0,0.0,0.0,0.0,3.6019,3.9193,3.7718,3.6902,0.0,0.0,3.6304,3.6481,3.7228,3.7089,0.0,0.0,0.0,0.0,0.0,0.0,0.0,0.0,0.0,0.0,0.0,0.0,0.0,0.0,0.0,0.0,0.0,0.0,0.0,0.0,0.0,0.0,0.0,0.0,0.0,0.0,0.0,0.0,0.0,0.0,0.0,0.0,0.0,0.0,0.0,0.0,0.0,0.0,0.0,0.0,0.0,0.0,0.0,0.0,0.0,0.0,0.0,0.0,0.0,0.0,0.0,0.0,0.0,0.0,3.6927,4.2342,4.7885,5.3341,5.8395,5.8862,5.9131,5.9449,5.5675,5.0457,0.0,0.0,0.0,0.0,0.0,0.0,0.0,0.0,0.0,0.0,0.0,0.0,0.0,0.0,0.0,0.0,0.0,0.0,0.0,0.0,0.0,0.0,0.0,0.0,0.0,0.0,0.0,0.0,0.0,0.0,0.0,0.0,0.0,0.0,0.0,0.0,0.0,0.0,0.0,0.0,0.0,0.0,3.6371,3.5005,0.0,0.0,0.0,3.4413,3.5063,0.0,0.0,0.0,0.0,0.0,0.0,0.0,0.0,0.0,0.0,0.0,0.0,0.0,0.0,0.0,0.0,0.0,0.0,0.0,0.0,0.0,0.0,0.0,0.0,0.0,0.0,0.0,0.0,0.0,0.0,0.0,0.0,0.0,0.0,0.0,0.0,0.0,0.0,0.0,0.0,0.0,0.0,0.0,0.0,0.0,0.0,0.0,0.0,0.0,0.0,0.0,0.0,0.0,0.0,0.0,0.0,0.0,4.0307,4.4566,4.9057,5.3684,5.4805,5.5036,5.4515,5.2869,4.8768,0.0,0.0,0.0,0.0,0.0,0.0,0.0,0.0,0.0,0.0,0.0,0.0,0.0,0.0,0.0,0.0,0.0,0.0,0.0,0.0,0.0,0.0,0.0,0.0,0.0,0.0,0.0,0.0,0.0,0.0,0.0,0.0,0.0,0.0,0.0,0.0,0.0,0.0,0.0,0.0,0.0,3.29,3.2242,3.1918,3.2041,0.0,0.0,3.3094,3.5106,3.526,0.0,0.0,0.0,0.0,0.0,0.0,0.0,0.0,0.0,0.0,0.0,0.0,0.0,0.0,0.0,0.0,0.0,0.0,0.0,0.0,0.0,0.0,0.0,0.0,0.0,0.0,0.0,0.0,0.0,0.0,0.0,0.0,0.0,0.0,0.0,0.0,0.0,0.0,0.0,0.0,0.0,0.0,0.0,0.0,0.0,0.0,0.0,0.0,0.0,0.0,0.0,0.0,0.0,0.0,0.0,0.0,3.9299,4.5015,4.8981,5.0933,5.1771,5.2423,5.2812,5.2496,4.9069,0.0,0.0,0.0,0.0,0.0,0.0,0.0,0.0,0.0,0.0,0.0,0.0,0.0,0.0,0.0,0.0,0.0,0.0,0.0,0.0,0.0,0.0,0.0,0.0,0.0,0.0,0.0,0.0,0.0,0.0,0.0,0.0,0.0,0.0,0.0,0.0,0.0,0.0,0.0,0.0,0.0,3.1238,3.3533,3.2018,0.0,0.0,0.0,0.0,3.0754,2.9924,0.0,0.0,0.0,0.0,0.0,0.0,0.0,0.0,0.0,0.0,0.0,0.0,0.0,0.0,0.0,0.0,0.0,0.0,0.0,0.0,0.0,0.0,0.0,0.0,0.0,0.0,0.0,0.0,0.0,0.0,0.0,0.0,0.0,0.0,0.0,0.0,0.0,0.0,0.0,0.0,0.0,0.0,0.0,0.0,0.0,0.0,0.0,0.0,0.0,0.0,0.0,0.0,0.0,0.0,0.0,0.0,3.9326,4.2258,4.557,4.9346,4.992,5.0356,5.0649,5.116,4.7907,0.0,0.0,0.0,0.0,0.0,0.0,0.0,0.0,0.0,0.0,0.0,0.0,0.0,0.0,0.0,0.0,0.0,0.0,0.0,0.0,0.0,0.0,0.0,0.0,0.0,0.0,0.0,0.0,0.0,0.0,0.0,0.0,0.0,0.0,0.0,0.0,0.0,0.0,0.0,0.0,2.8133,2.9239,3.2043,0.0,0.0,0.0,0.0,0.0,0.0,2.7793,2.6998,0.0,0.0,0.0,0.0,0.0,0.0,0.0,0.0,0.0,0.0,0.0,0.0,0.0,0.0,0.0,0.0,0.0,0.0,0.0,0.0,0.0,0.0,0.0,0.0,0.0,0.0,0.0,0.0,0.0,0.0,0.0,0.0,0.0,0.0,0.0,0.0,0.0,0.0,0.0,0.0,0.0,0.0,0.0,0.0,0.0,0.0,0.0,0.0,0.0,0.0,0.0,0.0,0.0,0.0,0.0,3.9358,3.9338,4.2225,4.821,4.8472,4.8618,4.8876,4.9619,4.6188,3.8354,0.0,0.0,0.0,0.0,0.0,0.0,0.0,0.0,0.0,0.0,0.0,0.0,0.0,0.0,0.0,0.0,0.0,0.0,0.0,0.0,0.0,0.0,0.0,0.0,0.0,0.0,0.0,0.0,0.0,0.0,0.0,0.0,0.0,0.0,0.0,0.0,0.0,0.0,0.0,2.5766,2.7075,0.0,0.0,0.0,0.0,0.0,0.0,0.0,0.0,2.6241,0.0,0.0,0.0,0.0,0.0,0.0,0.0,0.0,0.0,0.0,0.0,0.0,0.0,0.0,0.0,0.0,0.0,0.0,0.0,0.0,0.0,0.0,0.0,0.0,0.0,0.0,0.0,0.0,0.0,0.0,0.0,0.0,0.0,0.0,0.0,0.0,0.0,0.0,0.0,0.0,0.0,0.0,0.0,0.0,0.0,0.0,0.0,0.0,0.0,0.0,0.0,0.0,0.0,0.0,0.0,0.0,3.9834,4.3279,4.6504,4.6652,4.7253,4.8272,4.8574,4.4686,3.6342,0.0,0.0,0.0,0.0,0.0,0.0,0.0,0.0,0.0,0.0,0.0,0.0,0.0,0.0,0.0,0.0,0.0,0.0,0.0,0.0,0.0,0.0,0.0,0.0,0.0,0.0,0.0,0.0,0.0,0.0,0.0,0.0,0.0,0.0,0.0,0.0,0.0,0.0,1.9843,2.2358,0.0,0.0,0.0,0.0,0.0,0.0,0.0,0.0,2.5456,0.0,0.0,0.0,0.0,0.0,0.0,0.0,0.0,0.0,0.0,0.0,0.0,0.0,0.0,0.0,0.0,0.0,0.0,0.0,0.0,0.0,0.0,0.0,0.0,0.0,0.0,0.0,0.0,0.0,0.0,0.0,0.0,0.0,0.0,0.0,0.0,0.0,0.0,0.0,0.0,0.0,0.0,0.0,0.0,0.0,0.0,0.0,0.0,0.0,0.0,0.0,0.0,0.0,0.0,0.0,0.0,0.0,0.0,4.1224,4.5569,4.6079,4.6669,4.7402,4.4889,4.057,0.0,0.0,0.0,0.0,0.0,0.0,0.0,0.0,0.0,0.0,0.0,0.0,0.0,0.0,0.0,0.0,0.0,0.0,0.0,0.0,0.0,0.0,0.0,0.0,0.0,0.0,0.0,0.0,0.0,0.0,0.0,0.0,0.0,0.0,0.0,0.0,0.0,0.0,0.0,0.0,0.0,0.0,0.0,0.0,0.0,0.0,0.0,0.0,0.0,0.0,0.0,0.0,0.0,0.0,0.0,0.0,0.0,0.0,0.0,0.0,0.0,0.0,0.0,0.0,0.0,0.0,0.0,0.0,0.0,0.0,0.0,0.0,0.0,0.0,0.0,0.0,0.0,0.0,0.0,0.0,0.0,0.0,0.0,0.0,0.0,0.0,0.0,0.0,0.0,0.0,0.0,0.0,0.0,0.0,0.0,0.0,0.0,0.0,0.0,0.0,0.0,0.0,0.0,0.0,0.0,0.0,0.0,0.0,3.9078,4.4568,4.5638,4.6253,4.6642,4.1375,3.6752,0.0,0.0,0.0,0.0,0.0,0.0,0.0,0.0,0.0,0.0,0.0,0.0,0.0,0.0,0.0,0.0,0.0,0.0,0.0,0.0,0.0,0.0,0.0,0.0,0.0,0.0,0.0,0.0,0.0,0.0,0.0,0.0,0.0,0.0,0.0,0.0,0.0,0.0,0.0,0.0,0.0,0.0,0.0,0.0,0.0,0.0,0.0,0.0,2.1966,0.0,0.0,0.0,0.0,0.0,0.0,0.0,0.0,0.0,0.0,0.0,0.0,0.0,0.0,0.0,0.0,0.0,0.0,0.0,0.0,0.0,0.0,0.0,0.0,0.0,0.0,0.0,0.0,0.0,0.0,0.0,0.0,0.0,0.0,0.0,0.0,0.0,0.0,0.0,0.0,0.0,0.0,0.0,0.0,0.0,0.0,0.0,0.0,0.0,0.0,0.0,0.0,0.0,0.0,0.0,0.0,0.0,0.0,0.0,3.8412,4.2922,4.4591,4.5439,4.5302,3.9845,3.5235,0.0,0.0,0.0,0.0,0.0,0.0,0.0,0.0,0.0,0.0,0.0,0.0,0.0,0.0,0.0,0.0,0.0,0.0,0.0,0.0,0.0,0.0,0.0,0.0,0.0,0.0,0.0,0.0,0.0,0.0,0.0,0.0,0.0,0.0,0.0,0.0,0.0,0.0,0.0,0.0,0.0,0.0,0.0,0.0,0.0,0.0,0.0,0.0,0.0,0.0,0.0,0.0,0.0,0.0,0.0,0.0,0.0,0.0,0.0,0.0,0.0,0.0,0.0,0.0,0.0,0.0,0.0,0.0,0.0,0.0,0.0,0.0,0.0,0.0,0.0,0.0,0.0,0.0,0.0,0.0,0.0,0.0,0.0,0.0,0.0,0.0,0.0,0.0,0.0,0.0,0.0,0.0,0.0,0.0,0.0,0.0,0.0,0.0,0.0,0.0,0.0,0.0,0.0,0.0,0.0,0.0,0.0,0.0,3.5148,3.9962,4.2516,4.3526,4.2786,3.6389,3.2255,0.0,0.0,0.0,0.0,0.0,0.0,0.0,0.0,0.0,0.0,0.0,0.0,0.0,0.0,0.0,0.0,0.0,0.0,0.0,0.0,0.0,0.0,0.0,0.0,0.0,0.0,0.0,0.0,0.0,0.0,0.0,0.0,0.0,0.0,0.0,0.0,0.0,0.0,0.0,0.0,0.0,0.0,0.0,0.0,0.0,0.0,0.0,0.0,0.0,0.0,0.0,0.0,0.0,0.0,0.0,0.0,0.0,0.0,0.0,0.0,0.0,0.0,0.0,0.0,0.0,0.0,0.0,0.0,0.0,0.0,0.0,0.0,0.0,0.0,0.0,0.0,0.0,0.0,0.0,0.0,0.0,0.0,0.0,0.0,0.0,0.0,0.0,0.0,0.0,0.0,0.0,0.0,0.0,0.0,0.0,0.0,0.0,0.0,0.0,0.0,0.0,0.0,0.0,0.0,0.0,0.0,0.0,0.0,0.0,3.695,4.0212,4.1162,3.9597,3.3454,2.9676,0.0,0.0,0.0,0.0,0.0,0.0,0.0,0.0,0.0,0.0,0.0,0.0,0.0,0.0,0.0,0.0,0.0,0.0,0.0,0.0,0.0,0.0,0.0,0.0,0.0,0.0,0.0,0.0,0.0,0.0,0.0,0.0,0.0,0.0,0.0,0.0,0.0,0.0,0.0,0.0,0.0,0.0,0.0,0.0,0.0,0.0,0.0,0.0,0.0,0.0,0.0,0.0,0.0,0.0,0.0,0.0,0.0,0.0,0.0,0.0,0.0,0.0,0.0,0.0,0.0,0.0,0.0,0.0,0.0,0.0,0.0,0.0,0.0,0.0,0.0,0.0,0.0,0.0,0.0,0.0,0.0,0.0,0.0,0.0,0.0,0.0,0.0,0.0,0.0,0.0,0.0,0.0,0.0,0.0,0.0,0.0,0.0,0.0,0.0,0.0,0.0,0.0,0.0,0.0,0.0,0.0,0.0,0.0,0.0,3.4394,3.7702,3.8378,3.6253,3.1881,2.8014,0.0,0.0,0.0,0.0,0.0,0.0,0.0,0.0,0.0,0.0,0.0,0.0,0.0,0.0,0.0,0.0,0.0,0.0,0.0,0.0,0.0,0.0,0.0,0.0,0.0,0.0,0.0,0.0,0.0,0.0,0.0,0.0,0.0,0.0,0.0,0.0,0.0,0.0,0.0,0.0,0.0,0.0,0.0,0.0,0.0,0.0,0.0,0.0,0.0,0.0,0.0,0.0,0.0,0.0,0.0,0.0,0.0,0.0,0.0,0.0,0.0,0.0,0.0,0.0,0.0,0.0,0.0,0.0,0.0,0.0,0.0,0.0,0.0,0.0,0.0,0.0,0.0,0.0,0.0,0.0,0.0,0.0,0.0,0.0,0.0,0.0,0.0,0.0,0.0,0.0,0.0,0.0,0.0,0.0,0.0,0.0,0.0,0.0,0.0,0.0,0.0,0.0,0.0,0.0,0.0,0.0,0.0,0.0,0.0,2.6326,3.0899,3.3174,3.2696,2.8436,2.6048,2.5769,0.0,0.0,0.0,0.0,0.0,0.0,0.0,0.0,0.0,0.0,0.0,0.0,0.0,0.0,0.0,0.0,0.0,0.0,0.0,0.0,0.0,0.0,0.0,0.0,0.0,0.0,0.0,0.0,0.0,0.0,0.0,0.0,0.0,0.0,0.0,0.0,0.0,0.0,0.0,0.0,0.0,0.0,0.0,0.0,0.0,0.0,0.0,0.0,0.0,0.0,0.0,0.0,0.0,0.0,0.0,0.0,0.0,0.0,0.0,0.0,0.0,0.0,0.0,0.0,0.0,0.0,0.0,0.0,0.0,0.0,0.0,0.0,0.0,0.0,0.0,0.0,0.0,0.0,0.0,0.0,0.0,0.0,0.0,0.0,0.0,0.0,0.0,0.0,0.0,0.0,0.0,0.0,0.0,0.0,0.0,0.0,0.0,0.0,0.0,0.0,0.0,0.0,0.0,0.0,0.0,0.0,0.0,0.0,2.2945,2.7849,3.0311,2.9799,2.599,2.3964,0.0,0.0,0.0,0.0,0.0,0.0,0.0,0.0,0.0,0.0,0.0,0.0,0.0,0.0,0.0,0.0,0.0,0.0,0.0,0.0,0.0,0.0,0.0,0.0,0.0,0.0,0.0,0.0,0.0,0.0,0.0,0.0,0.0,0.0,0.0,0.0,0.0,0.0,0.0,0.0,0.0,0.0,0.0,0.0,0.0,0.0,0.0,0.0,0.0,0.0,0.0,0.0,0.0,0.0,0.0,0.0,0.0,0.0,0.0,0.0,0.0,0.0,0.0,0.0,0.0,0.0,0.0,0.0,0.0,0.0,0.0,0.0,0.0,0.0,0.0,0.0,0.0,0.0,0.0,0.0,0.0,0.0,0.0,0.0,0.0,0.0,0.0,0.0,0.0,0.0,0.0,0.0,0.0,0.0,0.0,0.0,0.0,0.0,0.0,0.0,0.0,0.0,0.0,0.0,0.0,0.0,0.0,0.0,2.0848,2.6075,2.9635,3.0239,2.8238,2.5036,2.1767,0.0,0.0,0.0,0.0,0.0,0.0,0.0,0.0,0.0,0.0,0.0,0.0,0.0,0.0,0.0,0.0,0.0,0.0,0.0,0.0,0.0,0.0,0.0,0.0,0.0,0.0,0.0,0.0,0.0,0.0,0.0,0.0,0.0,0.0,0.0,0.0,0.0,0.0,0.0,0.0,0.0,0.0,0.0,0.0,0.0,0.0,0.0,0.0,0.0,0.0,0.0,0.0,0.0,0.0,0.0,0.0,0.0,0.0,0.0,0.0,0.0,0.0,0.0,0.0,0.0,0.0,0.0,0.0,0.0,0.0,0.0,0.0,0.0,0.0,0.0,0.0,0.0,0.0,0.0,0.0,0.0,0.0,0.0,0.0,0.0,0.0,0.0,0.0,0.0,0.0,0.0,0.0,0.0,0.0,0.0,0.0,0.0,0.0,0.0,0.0,0.0,0.0,0.0,0.0,0.0,0.0,0.0,0.0,0.0,2.045,0.0,2.6015,0.0,2.3726,2.2168,0.0,0.0,0.0,0.0,0.0,0.0,0.0,0.0,0.0,0.0,0.0,0.0,0.0,0.0,0.0,0.0,0.0,0.0,0.0,0.0,0.0,0.0,0.0,0.0,0.0,0.0,0.0,0.0,0.0,0.0,0.0,0.0,0.0,0.0,0.0,0.0,0.0,0.0,0.0,0.0,0.0,0.0,0.0,0.0,0.0,0.0,0.0,0.0,0.0,0.0,0.0,0.0,0.0,0.0,0.0,0.0,0.0,0.0,0.0,0.0,0.0,0.0,0.0,0.0,0.0,0.0,0.0,0.0,0.0,0.0,0.0,0.0,0.0,0.0,0.0,0.0,0.0,0.0,0.0,0.0,0.0,0.0,0.0,0.0,0.0,0.0,0.0,0.0,0.0,0.0,0.0,0.0,0.0,0.0,0.0,0.0,0.0,0.0,0.0,0.0,0.0,0.0,0.0,0.0,0.0,0.0,0.0,0.0,0.0,2.0257,2.1843,2.3159,0.0,2.2403,2.1368,0.0,0.0,0.0,0.0,0.0,0.0,0.0,0.0,0.0,0.0,0.0,0.0,0.0,0.0,0.0,0.0,0.0,0.0,0.0,0.0,0.0,0.0,0.0,0.0,0.0,0.0,0.0,0.0,0.0,0.0,0.0,0.0,0.0,0.0,0.0,0.0,0.0,0.0,0.0,0.0,0.0,0.0,0.0,0.0,0.0,0.0,0.0,0.0,0.0,0.0,0.0,0.0,0.0,0.0,0.0,0.0,0.0,0.0,0.0,0.0,0.0,0.0,0.0,0.0,0.0,0.0,0.0,0.0,0.0,0.0,0.0,0.0,0.0,0.0,0.0,0.0,0.0,0.0,0.0,0.0,0.0,0.0,0.0,0.0,0.0,0.0,0.0,0.0,0.0,0.0,0.0,0.0,0.0,0.0,0.0,0.0,0.0,0.0,0.0,0.0,0.0,0.0,0.0,0.0,0.0,0.0,0.0,0.0,0.0,0.0,2.1948,2.1787,2.4293,2.1247,1.937,0.0,0.0,0.0,0.0,0.0,0.0,0.0,0.0,0.0,0.0,0.0,0.0,0.0,0.0,0.0,0.0,0.0,0.0,0.0,0.0,0.0,0.0,0.0,0.0,0.0,0.0,0.0,0.0,0.0,0.0,0.0,0.0,0.0,0.0,0.0,0.0,0.0,0.0,0.0,0.0,0.0,0.0,0.0,0.0,0.0,0.0,0.0,0.0,0.0,0.0,0.0,0.0,0.0,0.0,0.0,0.0,0.0,0.0,0.0,0.0,0.0,0.0,0.0,0.0,0.0,0.0,0.0,0.0,0.0,0.0,0.0,0.0,0.0,0.0,0.0,0.0,0.0,0.0,0.0,0.0,0.0,0.0,0.0,0.0,0.0,0.0,0.0,0.0,0.0,0.0,0.0,0.0,0.0,0.0,0.0,0.0,0.0,0.0,0.0,0.0,0.0,0.0,0.0,0.0,0.0,0.0,0.0,0.0,0.0,0.0,1.8744,0.0,2.1906,2.064,1.8973,1.7181,0.0,0.0,0.0,0.0,0.0,0.0,0.0,0.0,0.0,0.0,0.0,0.0,0.0,0.0,0.0,0.0,0.0,0.0,0.0,0.0,0.0,0.0,0.0,0.0,0.0,0.0,0.0,0.0,0.0,0.0,0.0,0.0,0.0,0.0,0.0,0.0,0.0,0.0,0.0,0.0,0.0,0.0,0.0,0.0,0.0,0.0,0.0,0.0,0.0,0.0,0.0,0.0,0.0,0.0,0.0,0.0,0.0,0.0,0.0,0.0,0.0,0.0,0.0,0.0,0.0,0.0,0.0,0.0,0.0,0.0,0.0,0.0,0.0,0.0,0.0,0.0,0.0,0.0,0.0,0.0,0.0,0.0,0.0,0.0,0.0,0.0,0.0,0.0,0.0,0.0,0.0,0.0,0.0,0.0,0.0,0.0,0.0,0.0,0.0,0.0,0.0,0.0,0.0,0.0,0.0,0.0,0.0,0.0,0.0,0.0,0.0,2.0834,2.0285,1.9106,0.0,0.0,0.0,0.0,0.0,0.0,0.0,0.0,0.0,0.0,0.0,0.0,0.0,0.0,0.0,0.0,0.0,0.0,0.0,0.0,0.0,0.0,0.0,0.0,0.0,0.0,0.0,0.0,0.0,0.0,0.0,0.0,0.0,0.0,0.0,0.0,0.0,0.0,0.0,0.0,0.0,0.0,0.0,0.0,0.0,0.0,0.0,0.0,0.0,0.0,0.0,0.0,0.0,0.0,0.0,0.0,0.0,0.0,0.0,0.0,0.0,0.0,0.0,0.0,0.0,0.0,0.0,0.0,0.0,0.0,0.0,0.0,0.0,0.0,0.0,0.0,0.0,0.0,0.0,0.0,0.0,0.0,0.0,0.0,0.0,0.0,0.0,0.0,0.0,0.0,0.0,0.0,0.0,0.0,0.0,0.0,0.0,0.0,0.0,0.0,0.0,0.0,0.0,0.0,0.0,0.0,0.0,0.0,0.0,0.0,0.0,1.7436,1.969,1.9622,0.0,1.8158,0.0,0.0,0.0,0.0,0.0,0.0,0.0,0.0,0.0,0.0,0.0,0.0,0.0,0.0,0.0,0.0,0.0,0.0,0.0,0.0,0.0,0.0,0.0,0.0,0.0,0.0,0.0,0.0,0.0,0.0,0.0,0.0,0.0,0.0,0.0,0.0,0.0,0.0,0.0,0.0,0.0,0.0,0.0,0.0,0.0,0.0,0.0,0.0,0.0,0.0,0.0,0.0,0.0,0.0,0.0,0.0,0.0,0.0,0.0,0.0,0.0,0.0,0.0,0.0,0.0,0.0,0.0,0.0,0.0,0.0,0.0,0.0,0.0,0.0,0.0,0.0,0.0,0.0,0.0,0.0,0.0,0.0,0.0,0.0,0.0,0.0,0.0,0.0,0.0,0.0,0.0,0.0,0.0,0.0,0.0,0.0,0.0,0.0,0.0,0.0,0.0,0.0,0.0,0.0,0.0,0.0,0.0,0.0,0.0,0.0,0.0,0.0,1.6875,1.6725,1.4267,0.0,0.0,0.0,0.0,0.0,0.0,0.0,0.0,0.0,0.0,0.0,0.0,0.0,0.0,0.0,0.0,0.0,0.0,0.0,0.0,0.0,0.0,0.0,0.0,0.0,0.0,0.0,0.0,0.0,0.0,0.0,0.0,0.0,0.0,0.0,0.0,0.0,0.0,0.0,0.0,0.0,0.0,0.0,0.0,0.0,0.0,0.0,0.0,0.0,0.0,0.0,0.0,0.0,0.0,0.0,0.0,0.0,0.0,0.0,0.0,0.0,0.0,0.0,0.0,0.0,0.0,0.0,0.0,0.0,0.0,0.0,0.0,0.0,0.0,0.0,0.0,0.0,0.0,0.0,0.0,0.0,0.0,0.0,0.0,0.0,0.0,0.0,0.0,0.0,0.0,0.0,0.0,0.0,0.0,0.0,0.0,0.0,0.0,0.0,0.0,0.0,0.0,0.0,0.0,0.0,0.0,0.0,0.0,0.0,0.0,1.5679,1.3381,1.5437,1.5503,1.3307,0.0,0.0,0.0,0.0,0.0,0.0,0.0,0.0,0.0,0.0,0.0,0.0,0.0,0.0,0.0,0.0,0.0,0.0,0.0,0.0,0.0,0.0,0.0,0.0,0.0,0.0,0.0,0.0,0.0,0.0,0.0,0.0,0.0,0.0,0.0,0.0,0.0,0.0,0.0,0.0,0.0,0.0,0.0,0.0,0.0,0.0,0.0,0.0,0.0,0.0,0.0,0.0,0.0,0.0,0.0,0.0,0.0,0.0,0.0,0.0,0.0,0.0,0.0,0.0,0.0,0.0,0.0,0.0,0.0,0.0,0.0,0.0,0.0,0.0,0.0,0.0,0.0,0.0,0.0,0.0,0.0,0.0,0.0,0.0,0.0,0.0,0.0,0.0,0.0,0.0,0.0,0.0,0.0,0.0,0.0,0.0,0.0,0.0,0.0,0.0,0.0,0.0,0.0,0.0,0.0,0.0,0.0,0.0,0.0,0.0,0.0,0.0,0.0,0.0,1.3858,0.0,0.0,0.0,0.0,0.0,0.0,0.0,0.0,0.0,0.0,0.0,0.0,0.0,0.0,0.0,0.0,0.0,0.0,0.0,0.0,0.0,0.0,0.0,0.0,0.0,0.0,0.0,0.0,0.0,0.0,0.0,0.0,0.0,0.0,0.0,0.0,0.0,0.0,0.0,0.0,0.0,0.0,0.0,0.0,0.0,0.0,0.0,0.0,0.0,0.0,0.0,0.0,0.0,0.0,0.0,0.0,0.0,0.0,0.0,0.0,0.0,0.0,0.0,0.0,0.0,0.0,0.0,0.0,0.0,0.0,0.0,0.0,0.0,0.0,0.0,0.0,0.0,0.0,0.0,0.0,0.0,0.0,0.0,0.0,0.0,0.0,0.0,0.0,0.0,0.0,0.0,0.0,0.0,0.0,0.0,0.0,0.0,0.0,0.0,0.0,0.0,0.0,0.0,0.0,0.0,0.0,0.0,0.0,0.0,0.0,0.0,0.0,0.0,0.0,0.0,0.0,0.0,0.0,0.0,0.0,0.0,0.0,0.0,0.0,0.0,0.0,0.0,0.0,0.0,0.0,0.0,0.0,0.0,0.0,0.0,0.0,0.0,0.0,0.0,0.0,0.0,0.0,0.0,0.0,0.0,0.0,0.0,0.0,0.0,0.0,0.0,0.0,0.0,0.0,0.0,0.0,0.0,0.0,0.0,0.0,0.0,0.0,0.0,0.0,0.0,0.0,0.0,0.0,0.0,0.0,0.0,0.0,0.0,0.0,0.0,0.0,0.0,0.0,0.0,0.0,0.0,0.0,0.0,0.0,0.0,0.0,0.0,0.0,0.0,0.0,0.0,0.0,0.0,0.0,0.0,0.0,0.0,0.0,0.0,0.0,0.0,0.0,0.0,0.0,0.0,0.0,0.0,0.0,0.0,0.0,0.0,0.0,0.0,0.0,0.0,0.0,0.0,0.0,0.0,0.0,0.0,0.0,0.0,0.0,0.0,0.0,0.0,0.0,0.0,0.0,0.0,0.0,0.0,0.0,0.0,0.0,0.0,0.0,0.0,0.0,0.0,0.0,0.0,0.0,0.0,0.0,0.0,0.0,0.0,0.0,0.0,0.0,0.0,0.0,0.0,0.0,0.0,0.0,0.0,0.0,0.0,0.0,0.0,0.0,0.0,0.0,0.0,0.0,0.0,0.0,0.0,0.0,0.0,0.0,0.0,0.0,0.0,0.0,0.0,0.0,0.0,0.0,0.0,0.0,0.0,0.0,0.0,0.0,0.0,0.0,0.0,0.0,0.0,0.0,0.0,0.0,0.0,0.0,0.0,0.0,0.0,0.0,0.0,0.0,0.0,0.0,0.0,0.0,0.0,0.0,0.0,0.0,0.0,0.0,0.0,0.0,0.0,0.0,0.0,0.0,0.0,0.0,0.0,0.0,0.0,0.0,0.0,0.0,0.0,0.0,0.0,0.0,0.0,0.0,0.0,0.0,0.0,0.0,0.0,0.0,0.0,0.0,0.0,0.0,0.0,0.0,0.0,0.0,0.0,0.0,0.0,0.0,0.0,0.0,0.0,0.0,0.0,0.0,0.0,0.0,0.0,0.0,0.0,0.0,0.0,0.0,0.0,0.0,0.0,0.0,0.0,0.0,0.0,0.0,0.0,0.0,0.0,0.0,0.0,0.0,0.0,0.0,0.0,0.0,0.0,0.0,0.0,0.0,0.0,0.0,0.0,0.0,0.0,0.0,0.0,0.0,0.0,0.0,0.0,0.0,0.0,0.0,0.0,0.0,0.0,0.0,0.0,0.0,0.0,0.0,0.0,0.0,0.0,0.0,0.0,0.0,0.0,0.0,0.0,0.0,0.0,0.0,0.0,0.0,0.0,0.0,0.0,0.0,0.0,0.0,0.0,0.0,0.0,0.0,0.0,0.0,0.0,0.0,0.0,0.0,0.0,0.0,0.0,0.0,0.0,0.0,0.0,0.0,0.0,0.0,0.0,0.0,0.0,0.0,0.0,0.0,0.0,0.0,0.0,0.0,0.0,0.0,0.0,0.0,0.0,0.0,0.0,0.0,0.0,0.0,0.0,0.0,0.0,0.0,0.0,0.0,0.0,0.0,0.0,0.0,0.0,0.0,0.0,0.0,0.0,0.0,0.0,0.0,0.0,0.0,0.0,0.0,0.0,0.0,0.0,0.0,0.0,0.0,0.0,0.0,0.0,0.0,0.0,0.0,0.0,0.0,0.0,0.0,0.0,0.0,0.0,0.0,0.0,0.0,0.0,0.0,0.0,0.0,0.0,0.0,0.0,0.0,0.0,0.0,0.0,0.0,0.0,0.0,0.0,0.0,0.0,0.0,0.0,0.0,0.0,0.0,0.0,0.0,0.0,0.0,0.0,0.0,0.0,0.0,0.0,0.0,0.0,0.0,0.0,0.0,0.0,0.0,0.0,0.0,0.0,0.0,0.0,0.0,0.0,0.0,0.0,0.0,0.0,0.0,0.0,0.0,0.0,0.0,0.0,0.0,0.0,0.0,0.0,0.0,0.0,0.0,0.0,0.0,0.0,0.0,0.0,0.0,0.0,0.0,0.0,0.0,0.0,0.0,0.0,0.0,0.0,0.0,0.0,0.0,0.0,0.0,0.0,0.0,0.0,0.0,0.0,0.0,0.0,0.0,0.0,0.0,0.0,0.0,0.0,0.0,0.0,0.0,0.0,0.0,0.0,0.0,0.0,0.0,0.0,0.0,0.0,0.0,0.0,0.0,0.0,0.0,0.0,0.0,0.0,0.0,0.0,0.0,0.0,0.0,0.0,0.0,0.0,0.0,0.0,0.0,0.0,0.0,0.0,0.0,0.0,0.0,0.0,0.0,0.0,0.0,0.0,0.0,0.0,0.0,0.0,0.0,0.0,0.0,0.0,0.0,0.0,0.0,0.0,0.0,0.0,0.0,0.0,0.0,0.0,0.0,0.0,0.0,0.0,0.0,0.0,0.0,0.0,0.0,0.0,0.0,0.0,0.0,0.0,0.0,0.0,0.0,0.0,0.0,0.0,0.0,0.0,0.0,0.0,0.0,0.0,0.0,0.0,0.0,0.0,0.0,0.0,0.0,0.0,0.0,0.0,0.0,0.0,0.0,0.0,0.0,0.0,0.0,0.0,0.0,0.0,0.0,0.0,0.0,0.0,0.0,0.0,0.0,0.0,0.0,0.0,0.0,0.0,0.0,0.0,0.0,0.0,0.0,0.0,0.0,0.0,0.0,0.0,0.0,0.0,0.0,0.0,0.0,0.0,0.0,0.0,0.0,0.0,0.0,0.0,0.0,0.0,0.0,0.0,0.0,0.0,0.0,0.0,0.0,0.0,0.0,0.0,0.0,0.0,0.0,0.0,0.0,0.0,0.0,0.0,0.0,0.0,0.0,0.0,0.0,0.0,0.0,0.0,0.0,0.0,0.0,0.0,0.0,0.0,0.0,0.0,0.0,0.0,0.0,0.0,0.0,0.0,0.0,0.0,0.0,0.0,0.0,0.0,0.0,0.0,0.0,0.0,0.0,0.0,0.0,0.0,0.0,0.0,0.0,0.0,0.0,0.0,0.0,0.0,0.0,0.0,0.0,0.0,0.0,0.0,0.0,0.0,0.0,0.0,0.0,0.0,0.0,0.0,0.0,0.0,0.0,0.0,0.0,0.0,0.0,0.0,0.0,0.0,0.0,0.0,0.0,0.0,0.0,0.0,0.0,0.0,0.0,0.0,0.0,0.0,0.0,0.0,0.0,0.0,0.0,0.0,0.0,0.0,0.0,0.0,0.0,0.0,0.0,0.0,0.0,0.0,0.0,0.0,0.0,0.0,0.0,0.0,0.0,0.0,0.0,0.0,0.0,0.0,0.0,0.0,0.0,0.0,0.0,0.0,0.0,0.0,0.0,0.0,0.0,0.0,0.0,0.0,0.0,0.0,0.0,0.0,0.0,0.0,0.0,0.0,0.0,0.0,0.0,0.0,0.0,0.0,0.0,0.0,0.0,0.0,0.0,0.0,0.0,0.0,0.0,0.0,0.0,0.0,0.0,0.0,0.0,0.0,0.0,0.0,0.0,0.0,0.0,0.0,0.0,0.0,0.0,0.0,0.0,0.0,0.0,0.0,0.0,0.0,0.0,0.0,0.0,0.0,0.0,0.0,0.0,0.0,0.0,0.0,0.0,0.0,0.0,0.0,0.0,0.0,0.0,0.0,0.0,0.0,0.0,0.0,0.0,0.0,0.0,0.0,0.0,0.0,0.0,0.0,0.0,0.0,0.0,0.0,0.0,0.0,0.0,0.0,0.0,0.0,0.0,0.0,0.0,0.0,0.0,0.0,0.0,0.0,0.0,0.0,0.0]}]]]